<?xml version='1.0' encoding='UTF-8'?><gpx version="1.1" creator="JPX - https://github.com/jenetics/jpx" xmlns="http://www.topografix.com/GPX/1/1"><trk><trkseg><trkpt lat="45.9951002" lon="11.7595627"><ele>636.0</ele><time>2026-04-25T14:43:46.522Z</time></trkpt><trkpt lat="45.995033" lon="11.7595787"><ele>636.0</ele><time>2026-04-25T14:43:59.529Z</time></trkpt><trkpt lat="45.9950838" lon="11.7596616"><ele>636.0</ele><time>2026-04-25T14:44:19.49Z</time></trkpt><trkpt lat="45.9949941" lon="11.7597469"><ele>636.0</ele><time>2026-04-25T14:45:12.514Z</time></trkpt><trkpt lat="45.9950146" lon="11.759844"><ele>636.0</ele><time>2026-04-25T14:45:14.533Z</time></trkpt><trkpt lat="45.9950134" lon="11.7600011"><ele>636.0</ele><time>2026-04-25T14:45:16.528Z</time></trkpt><trkpt lat="45.9950249" lon="11.7601302"><ele>634.8</ele><time>2026-04-25T14:45:18.443Z</time></trkpt><trkpt lat="45.9950457" lon="11.7602748"><ele>633.6</ele><time>2026-04-25T14:45:20.531Z</time></trkpt><trkpt lat="45.9950736" lon="11.7603994"><ele>632.4</ele><time>2026-04-25T14:45:22.531Z</time></trkpt><trkpt lat="45.9951293" lon="11.7605078"><ele>631.2</ele><time>2026-04-25T14:45:25.546Z</time></trkpt><trkpt lat="45.9951788" lon="11.7605757"><ele>630.0</ele><time>2026-04-25T14:45:30.532Z</time></trkpt><trkpt lat="45.9951924" lon="11.7607319"><ele>630.0</ele><time>2026-04-25T14:45:37.496Z</time></trkpt><trkpt lat="45.9952096" lon="11.7608313"><ele>630.0</ele><time>2026-04-25T14:45:38.522Z</time></trkpt><trkpt lat="45.9952275" lon="11.7609295"><ele>630.0</ele><time>2026-04-25T14:45:39.522Z</time></trkpt><trkpt lat="45.995243" lon="11.761065"><ele>630.0</ele><time>2026-04-25T14:45:41.537Z</time></trkpt><trkpt lat="45.9952148" lon="11.761153"><ele>630.0</ele><time>2026-04-25T14:45:44.527Z</time></trkpt><trkpt lat="45.9952485" lon="11.7612397"><ele>630.0</ele><time>2026-04-25T14:45:48.516Z</time></trkpt><trkpt lat="45.9953376" lon="11.7612272"><ele>630.0</ele><time>2026-04-25T14:45:50.52Z</time></trkpt><trkpt lat="45.9954273" lon="11.7611785"><ele>630.0</ele><time>2026-04-25T14:45:52.488Z</time></trkpt><trkpt lat="45.9955092" lon="11.7611767"><ele>630.0</ele><time>2026-04-25T14:45:53.527Z</time></trkpt><trkpt lat="45.9956005" lon="11.7611499"><ele>630.0</ele><time>2026-04-25T14:45:54.538Z</time></trkpt><trkpt lat="45.9956871" lon="11.7611281"><ele>630.0</ele><time>2026-04-25T14:45:55.51Z</time></trkpt><trkpt lat="45.9957669" lon="11.761096"><ele>630.0</ele><time>2026-04-25T14:45:57.49Z</time></trkpt><trkpt lat="45.9958325" lon="11.7609361"><ele>630.0</ele><time>2026-04-25T14:46:04.521Z</time></trkpt><trkpt lat="45.9957995" lon="11.7608217"><ele>630.0</ele><time>2026-04-25T14:46:06.523Z</time></trkpt><trkpt lat="45.9957443" lon="11.7607216"><ele>630.0</ele><time>2026-04-25T14:46:08.544Z</time></trkpt><trkpt lat="45.9956693" lon="11.7606447"><ele>630.0</ele><time>2026-04-25T14:46:10.494Z</time></trkpt><trkpt lat="45.9956232" lon="11.7605415"><ele>630.0</ele><time>2026-04-25T14:46:14.519Z</time></trkpt><trkpt lat="45.9955521" lon="11.7605031"><ele>630.0</ele><time>2026-04-25T14:46:16.523Z</time></trkpt><trkpt lat="45.9957776" lon="11.7595103"><ele>633.0</ele><time>2026-04-25T14:46:18.531Z</time></trkpt><trkpt lat="45.99574" lon="11.7593195"><ele>636.0</ele><time>2026-04-25T14:46:20.527Z</time></trkpt><trkpt lat="45.9957378" lon="11.7592031"><ele>639.0</ele><time>2026-04-25T14:46:21.518Z</time></trkpt><trkpt lat="45.9956713" lon="11.7592098"><ele>642.0</ele><time>2026-04-25T14:46:23.522Z</time></trkpt><trkpt lat="45.9956243" lon="11.7591455"><ele>645.0</ele><time>2026-04-25T14:46:24.533Z</time></trkpt><trkpt lat="45.9956278" lon="11.7589793"><ele>645.0</ele><time>2026-04-25T14:46:25.543Z</time></trkpt><trkpt lat="45.9956408" lon="11.7588144"><ele>645.0</ele><time>2026-04-25T14:46:26.491Z</time></trkpt><trkpt lat="45.9956397" lon="11.7586666"><ele>645.0</ele><time>2026-04-25T14:46:27.52Z</time></trkpt><trkpt lat="45.9955961" lon="11.7585488"><ele>645.0</ele><time>2026-04-25T14:46:29.521Z</time></trkpt><trkpt lat="45.99557" lon="11.7584565"><ele>645.0</ele><time>2026-04-25T14:46:31.521Z</time></trkpt><trkpt lat="45.995572" lon="11.7583503"><ele>647.3333333333334</ele><time>2026-04-25T14:46:33.536Z</time></trkpt><trkpt lat="45.9955485" lon="11.758261"><ele>649.6666666666666</ele><time>2026-04-25T14:46:34.544Z</time></trkpt><trkpt lat="45.9955302" lon="11.7581717"><ele>652.0</ele><time>2026-04-25T14:46:35.527Z</time></trkpt><trkpt lat="45.9954905" lon="11.7580575"><ele>654.3333333333333</ele><time>2026-04-25T14:46:36.523Z</time></trkpt><trkpt lat="45.9954544" lon="11.7579472"><ele>656.6666666666666</ele><time>2026-04-25T14:46:37.536Z</time></trkpt><trkpt lat="45.9954091" lon="11.7577799"><ele>659.0</ele><time>2026-04-25T14:46:39.562Z</time></trkpt><trkpt lat="45.9953814" lon="11.7576955"><ele>661.4000000000001</ele><time>2026-04-25T14:46:40.541Z</time></trkpt><trkpt lat="45.9953515" lon="11.7575842"><ele>663.8</ele><time>2026-04-25T14:46:42.511Z</time></trkpt><trkpt lat="45.9952711" lon="11.7574947"><ele>666.2</ele><time>2026-04-25T14:46:45.532Z</time></trkpt><trkpt lat="45.9951887" lon="11.757403"><ele>668.5999999999999</ele><time>2026-04-25T14:46:47.54Z</time></trkpt><trkpt lat="45.9951293" lon="11.7572843"><ele>671.0</ele><time>2026-04-25T14:46:49.544Z</time></trkpt><trkpt lat="45.9951207" lon="11.7571847"><ele>671.0</ele><time>2026-04-25T14:46:52.531Z</time></trkpt><trkpt lat="45.995081" lon="11.7569654"><ele>671.0</ele><time>2026-04-25T14:46:54.52Z</time></trkpt><trkpt lat="45.995067" lon="11.7568647"><ele>671.0</ele><time>2026-04-25T14:46:55.535Z</time></trkpt><trkpt lat="45.9950468" lon="11.75676"><ele>671.0</ele><time>2026-04-25T14:46:57.541Z</time></trkpt><trkpt lat="45.9950103" lon="11.7566329"><ele>671.0</ele><time>2026-04-25T14:46:59.487Z</time></trkpt><trkpt lat="45.9949869" lon="11.7565427"><ele>666.3333333333333</ele><time>2026-04-25T14:47:00.515Z</time></trkpt><trkpt lat="45.9949409" lon="11.756417"><ele>661.6666666666666</ele><time>2026-04-25T14:47:02.512Z</time></trkpt><trkpt lat="45.9948663" lon="11.7563628"><ele>657.0</ele><time>2026-04-25T14:47:03.526Z</time></trkpt><trkpt lat="45.9947754" lon="11.7563093"><ele>652.3333333333334</ele><time>2026-04-25T14:47:04.523Z</time></trkpt><trkpt lat="45.9946982" lon="11.7562737"><ele>647.6666666666667</ele><time>2026-04-25T14:47:05.536Z</time></trkpt><trkpt lat="45.9946515" lon="11.7561847"><ele>643.0</ele><time>2026-04-25T14:47:07.499Z</time></trkpt><trkpt lat="45.9945999" lon="11.7560249"><ele>642.8333333333334</ele><time>2026-04-25T14:47:09.528Z</time></trkpt><trkpt lat="45.9945875" lon="11.7559018"><ele>642.6666666666667</ele><time>2026-04-25T14:47:11.546Z</time></trkpt><trkpt lat="45.9946201" lon="11.7558138"><ele>642.5</ele><time>2026-04-25T14:47:13.542Z</time></trkpt><trkpt lat="45.9946885" lon="11.7556987"><ele>642.3333333333334</ele><time>2026-04-25T14:47:15.543Z</time></trkpt><trkpt lat="45.994718" lon="11.7555978"><ele>642.1666666666666</ele><time>2026-04-25T14:47:17.539Z</time></trkpt><trkpt lat="45.9946729" lon="11.755527"><ele>642.0</ele><time>2026-04-25T14:47:20.524Z</time></trkpt><trkpt lat="45.9946099" lon="11.7555317"><ele>642.0</ele><time>2026-04-25T14:47:21.502Z</time></trkpt><trkpt lat="45.9945401" lon="11.7555124"><ele>642.0</ele><time>2026-04-25T14:47:23.54Z</time></trkpt><trkpt lat="45.9944762" lon="11.755448"><ele>642.0</ele><time>2026-04-25T14:47:26.541Z</time></trkpt><trkpt lat="45.9944597" lon="11.7553027"><ele>642.0</ele><time>2026-04-25T14:47:28.47Z</time></trkpt><trkpt lat="45.9944394" lon="11.7551436"><ele>642.0</ele><time>2026-04-25T14:47:30.471Z</time></trkpt><trkpt lat="45.994461" lon="11.7550186"><ele>641.8333333333334</ele><time>2026-04-25T14:47:32.474Z</time></trkpt><trkpt lat="45.9944737" lon="11.7549049"><ele>641.6666666666666</ele><time>2026-04-25T14:47:33.477Z</time></trkpt><trkpt lat="45.9944689" lon="11.7548033"><ele>641.5</ele><time>2026-04-25T14:47:34.445Z</time></trkpt><trkpt lat="45.9944509" lon="11.7546889"><ele>641.3333333333333</ele><time>2026-04-25T14:47:35.475Z</time></trkpt><trkpt lat="45.9944267" lon="11.7545856"><ele>641.1666666666666</ele><time>2026-04-25T14:47:36.469Z</time></trkpt><trkpt lat="45.9944043" lon="11.7544781"><ele>641.0</ele><time>2026-04-25T14:47:37.459Z</time></trkpt><trkpt lat="45.994397" lon="11.7543576"><ele>642.1666666666666</ele><time>2026-04-25T14:47:38.48Z</time></trkpt><trkpt lat="45.9944047" lon="11.754239"><ele>643.3333333333333</ele><time>2026-04-25T14:47:39.484Z</time></trkpt><trkpt lat="45.9944126" lon="11.7541131"><ele>644.5</ele><time>2026-04-25T14:47:40.435Z</time></trkpt><trkpt lat="45.9944174" lon="11.7539867"><ele>645.6666666666666</ele><time>2026-04-25T14:47:41.442Z</time></trkpt><trkpt lat="45.9944147" lon="11.7538536"><ele>646.8333333333334</ele><time>2026-04-25T14:47:42.465Z</time></trkpt><trkpt lat="45.9944019" lon="11.7537182"><ele>648.0</ele><time>2026-04-25T14:47:43.475Z</time></trkpt><trkpt lat="45.9943941" lon="11.7535879"><ele>649.5</ele><time>2026-04-25T14:47:44.463Z</time></trkpt><trkpt lat="45.9943915" lon="11.7534544"><ele>651.0</ele><time>2026-04-25T14:47:45.457Z</time></trkpt><trkpt lat="45.9943941" lon="11.7533298"><ele>652.5</ele><time>2026-04-25T14:47:46.477Z</time></trkpt><trkpt lat="45.9944009" lon="11.7532025"><ele>654.0</ele><time>2026-04-25T14:47:47.454Z</time></trkpt><trkpt lat="45.9944102" lon="11.753079"><ele>655.5</ele><time>2026-04-25T14:47:48.477Z</time></trkpt><trkpt lat="45.9944234" lon="11.7529622"><ele>657.0</ele><time>2026-04-25T14:47:49.481Z</time></trkpt><trkpt lat="45.9944478" lon="11.7528207"><ele>656.8333333333334</ele><time>2026-04-25T14:47:50.505Z</time></trkpt><trkpt lat="45.9944656" lon="11.7526838"><ele>656.6666666666666</ele><time>2026-04-25T14:47:51.469Z</time></trkpt><trkpt lat="45.9944804" lon="11.7525773"><ele>656.5</ele><time>2026-04-25T14:47:52.48Z</time></trkpt><trkpt lat="45.9944909" lon="11.7524691"><ele>656.3333333333333</ele><time>2026-04-25T14:47:53.498Z</time></trkpt><trkpt lat="45.9945003" lon="11.7523783"><ele>656.1666666666666</ele><time>2026-04-25T14:47:54.481Z</time></trkpt><trkpt lat="45.9945264" lon="11.7522353"><ele>656.0</ele><time>2026-04-25T14:47:56.449Z</time></trkpt><trkpt lat="45.9945496" lon="11.7521423"><ele>656.0</ele><time>2026-04-25T14:47:57.468Z</time></trkpt><trkpt lat="45.9945686" lon="11.7519974"><ele>656.0</ele><time>2026-04-25T14:47:59.474Z</time></trkpt><trkpt lat="45.9945847" lon="11.7518989"><ele>656.0</ele><time>2026-04-25T14:48:00.456Z</time></trkpt><trkpt lat="45.9946226" lon="11.7517139"><ele>656.0</ele><time>2026-04-25T14:48:02.447Z</time></trkpt><trkpt lat="45.9946577" lon="11.7515793"><ele>656.0</ele><time>2026-04-25T14:48:03.483Z</time></trkpt><trkpt lat="45.994693" lon="11.7514601"><ele>655.4</ele><time>2026-04-25T14:48:04.486Z</time></trkpt><trkpt lat="45.9947199" lon="11.751333"><ele>654.8</ele><time>2026-04-25T14:48:05.469Z</time></trkpt><trkpt lat="45.9947544" lon="11.7511655"><ele>654.1999999999999</ele><time>2026-04-25T14:48:07.469Z</time></trkpt><trkpt lat="45.9947664" lon="11.7510465"><ele>653.5999999999999</ele><time>2026-04-25T14:48:08.447Z</time></trkpt><trkpt lat="45.9947822" lon="11.7509401"><ele>653.0</ele><time>2026-04-25T14:48:09.482Z</time></trkpt><trkpt lat="45.9948065" lon="11.7508318"><ele>651.2</ele><time>2026-04-25T14:48:10.478Z</time></trkpt><trkpt lat="45.9948512" lon="11.7507412"><ele>649.4</ele><time>2026-04-25T14:48:11.469Z</time></trkpt><trkpt lat="45.9948746" lon="11.7506448"><ele>647.6</ele><time>2026-04-25T14:48:12.439Z</time></trkpt><trkpt lat="45.9948926" lon="11.7505477"><ele>645.8000000000001</ele><time>2026-04-25T14:48:13.477Z</time></trkpt><trkpt lat="45.9949078" lon="11.7503892"><ele>644.0</ele><time>2026-04-25T14:48:14.485Z</time></trkpt><trkpt lat="45.9949047" lon="11.7501904"><ele>642.25</ele><time>2026-04-25T14:48:16.489Z</time></trkpt><trkpt lat="45.9949217" lon="11.7500536"><ele>640.5</ele><time>2026-04-25T14:48:17.46Z</time></trkpt><trkpt lat="45.9949457" lon="11.7498803"><ele>638.75</ele><time>2026-04-25T14:48:18.434Z</time></trkpt><trkpt lat="45.9949678" lon="11.7496913"><ele>637.0</ele><time>2026-04-25T14:48:19.465Z</time></trkpt><trkpt lat="45.9950122" lon="11.7495246"><ele>650.75</ele><time>2026-04-25T14:48:20.487Z</time></trkpt><trkpt lat="45.9950549" lon="11.749353"><ele>664.5</ele><time>2026-04-25T14:48:21.498Z</time></trkpt><trkpt lat="45.9951092" lon="11.7491931"><ele>678.25</ele><time>2026-04-25T14:48:22.467Z</time></trkpt><trkpt lat="45.9951727" lon="11.7490529"><ele>692.0</ele><time>2026-04-25T14:48:23.482Z</time></trkpt><trkpt lat="45.9952393" lon="11.7488999"><ele>692.0</ele><time>2026-04-25T14:48:24.479Z</time></trkpt><trkpt lat="45.9953123" lon="11.7487674"><ele>692.0</ele><time>2026-04-25T14:48:25.475Z</time></trkpt><trkpt lat="45.9953743" lon="11.7486423"><ele>692.0</ele><time>2026-04-25T14:48:26.461Z</time></trkpt><trkpt lat="45.9954368" lon="11.7485157"><ele>692.0</ele><time>2026-04-25T14:48:27.479Z</time></trkpt><trkpt lat="45.9954779" lon="11.7484284"><ele>692.0</ele><time>2026-04-25T14:48:28.427Z</time></trkpt><trkpt lat="45.9955536" lon="11.7482674"><ele>688.4000000000001</ele><time>2026-04-25T14:48:30.46Z</time></trkpt><trkpt lat="45.9956072" lon="11.7481572"><ele>684.8000000000001</ele><time>2026-04-25T14:48:31.484Z</time></trkpt><trkpt lat="45.9956594" lon="11.74806"><ele>681.2</ele><time>2026-04-25T14:48:32.482Z</time></trkpt><trkpt lat="45.9957226" lon="11.7479531"><ele>677.6</ele><time>2026-04-25T14:48:33.471Z</time></trkpt><trkpt lat="45.9957882" lon="11.7478546"><ele>674.0</ele><time>2026-04-25T14:48:34.472Z</time></trkpt><trkpt lat="45.9958554" lon="11.7477581"><ele>674.0</ele><time>2026-04-25T14:48:35.467Z</time></trkpt><trkpt lat="45.9959161" lon="11.7476686"><ele>674.0</ele><time>2026-04-25T14:48:36.44Z</time></trkpt><trkpt lat="45.9959817" lon="11.7475753"><ele>674.0</ele><time>2026-04-25T14:48:37.462Z</time></trkpt><trkpt lat="45.9960515" lon="11.7474872"><ele>674.0</ele><time>2026-04-25T14:48:38.473Z</time></trkpt><trkpt lat="45.996121" lon="11.7473981"><ele>674.0</ele><time>2026-04-25T14:48:39.481Z</time></trkpt><trkpt lat="45.9961951" lon="11.7473039"><ele>674.0</ele><time>2026-04-25T14:48:40.461Z</time></trkpt><trkpt lat="45.9962837" lon="11.7472178"><ele>674.0</ele><time>2026-04-25T14:48:41.477Z</time></trkpt><trkpt lat="45.9963629" lon="11.7471411"><ele>674.0</ele><time>2026-04-25T14:48:42.487Z</time></trkpt><trkpt lat="45.9964412" lon="11.7470894"><ele>674.0</ele><time>2026-04-25T14:48:43.474Z</time></trkpt><trkpt lat="45.9965258" lon="11.7470366"><ele>674.0</ele><time>2026-04-25T14:48:44.492Z</time></trkpt><trkpt lat="45.9966093" lon="11.7469986"><ele>675.8000000000001</ele><time>2026-04-25T14:48:45.468Z</time></trkpt><trkpt lat="45.9966979" lon="11.7469821"><ele>677.6</ele><time>2026-04-25T14:48:46.474Z</time></trkpt><trkpt lat="45.9968195" lon="11.7470073"><ele>679.4</ele><time>2026-04-25T14:48:47.49Z</time></trkpt><trkpt lat="45.9969107" lon="11.7470603"><ele>681.2</ele><time>2026-04-25T14:48:48.479Z</time></trkpt><trkpt lat="45.996987" lon="11.7471389"><ele>683.0</ele><time>2026-04-25T14:48:49.477Z</time></trkpt><trkpt lat="45.9970481" lon="11.7471976"><ele>683.0</ele><time>2026-04-25T14:48:50.477Z</time></trkpt><trkpt lat="45.9971194" lon="11.7472149"><ele>683.0</ele><time>2026-04-25T14:49:01.442Z</time></trkpt><trkpt lat="45.997189" lon="11.7471788"><ele>683.0</ele><time>2026-04-25T14:49:07.429Z</time></trkpt><trkpt lat="45.9971796" lon="11.7470504"><ele>683.0</ele><time>2026-04-25T14:52:30.474Z</time></trkpt><trkpt lat="45.9971867" lon="11.7469313"><ele>683.0</ele><time>2026-04-25T14:52:32.482Z</time></trkpt><trkpt lat="45.9972183" lon="11.7467507"><ele>683.0</ele><time>2026-04-25T14:52:34.441Z</time></trkpt><trkpt lat="45.9971394" lon="11.7466709"><ele>680.1666666666666</ele><time>2026-04-25T14:52:36.439Z</time></trkpt><trkpt lat="45.9970719" lon="11.7466225"><ele>677.3333333333333</ele><time>2026-04-25T14:52:37.478Z</time></trkpt><trkpt lat="45.9970195" lon="11.7465689"><ele>674.5</ele><time>2026-04-25T14:52:38.477Z</time></trkpt><trkpt lat="45.9969037" lon="11.7464936"><ele>671.6666666666666</ele><time>2026-04-25T14:52:40.498Z</time></trkpt><trkpt lat="45.9968615" lon="11.7463783"><ele>668.8333333333334</ele><time>2026-04-25T14:52:43.46Z</time></trkpt><trkpt lat="45.9969234" lon="11.746305"><ele>666.0</ele><time>2026-04-25T14:52:46.479Z</time></trkpt><trkpt lat="45.9969803" lon="11.7462537"><ele>666.0</ele><time>2026-04-25T14:52:48.481Z</time></trkpt><trkpt lat="45.9970345" lon="11.7461961"><ele>666.0</ele><time>2026-04-25T14:52:50.433Z</time></trkpt><trkpt lat="45.9970899" lon="11.7461298"><ele>666.0</ele><time>2026-04-25T14:52:51.438Z</time></trkpt><trkpt lat="45.997141" lon="11.7460676"><ele>666.0</ele><time>2026-04-25T14:52:52.483Z</time></trkpt><trkpt lat="45.9971823" lon="11.7459638"><ele>666.0</ele><time>2026-04-25T14:52:53.48Z</time></trkpt><trkpt lat="45.9972235" lon="11.7458758"><ele>666.0</ele><time>2026-04-25T14:52:54.439Z</time></trkpt><trkpt lat="45.9972746" lon="11.7457191"><ele>664.5999999999999</ele><time>2026-04-25T14:52:55.474Z</time></trkpt><trkpt lat="45.9973156" lon="11.7455578"><ele>663.2</ele><time>2026-04-25T14:52:56.494Z</time></trkpt><trkpt lat="45.9973457" lon="11.745433"><ele>661.8</ele><time>2026-04-25T14:52:57.476Z</time></trkpt><trkpt lat="45.9973492" lon="11.7453078"><ele>660.4000000000001</ele><time>2026-04-25T14:52:58.471Z</time></trkpt><trkpt lat="45.9973405" lon="11.7451213"><ele>659.0</ele><time>2026-04-25T14:53:00.469Z</time></trkpt><trkpt lat="45.9973417" lon="11.7449961"><ele>658.0</ele><time>2026-04-25T14:53:01.489Z</time></trkpt><trkpt lat="45.9973652" lon="11.7448785"><ele>657.0</ele><time>2026-04-25T14:53:02.478Z</time></trkpt><trkpt lat="45.9973496" lon="11.7447823"><ele>656.0</ele><time>2026-04-25T14:53:03.487Z</time></trkpt><trkpt lat="45.9973998" lon="11.7446817"><ele>655.0</ele><time>2026-04-25T14:53:04.476Z</time></trkpt><trkpt lat="45.9974469" lon="11.7445898"><ele>654.0</ele><time>2026-04-25T14:53:05.495Z</time></trkpt><trkpt lat="45.9974196" lon="11.7444818"><ele>653.0</ele><time>2026-04-25T14:53:07.481Z</time></trkpt><trkpt lat="45.9974285" lon="11.7443914"><ele>651.1666666666666</ele><time>2026-04-25T14:53:08.489Z</time></trkpt><trkpt lat="45.997452" lon="11.7442779"><ele>649.3333333333333</ele><time>2026-04-25T14:53:09.521Z</time></trkpt><trkpt lat="45.9974652" lon="11.7441545"><ele>647.5</ele><time>2026-04-25T14:53:10.47Z</time></trkpt><trkpt lat="45.9974939" lon="11.7440442"><ele>645.6666666666666</ele><time>2026-04-25T14:53:11.467Z</time></trkpt><trkpt lat="45.9975206" lon="11.7439609"><ele>643.8333333333334</ele><time>2026-04-25T14:53:12.479Z</time></trkpt><trkpt lat="45.9975081" lon="11.7437822"><ele>642.0</ele><time>2026-04-25T14:53:14.474Z</time></trkpt><trkpt lat="45.9974623" lon="11.7437149"><ele>642.0</ele><time>2026-04-25T14:53:15.481Z</time></trkpt><trkpt lat="45.9974214" lon="11.7436424"><ele>642.0</ele><time>2026-04-25T14:53:16.486Z</time></trkpt><trkpt lat="45.9973177" lon="11.7435088"><ele>642.0</ele><time>2026-04-25T14:53:18.475Z</time></trkpt><trkpt lat="45.9971988" lon="11.743434"><ele>642.0</ele><time>2026-04-25T14:53:20.487Z</time></trkpt><trkpt lat="45.9971577" lon="11.7432745"><ele>642.6666666666666</ele><time>2026-04-25T14:53:22.479Z</time></trkpt><trkpt lat="45.9971213" lon="11.7431873"><ele>643.3333333333334</ele><time>2026-04-25T14:53:23.487Z</time></trkpt><trkpt lat="45.9970621" lon="11.7431161"><ele>644.0</ele><time>2026-04-25T14:53:25.476Z</time></trkpt><trkpt lat="45.9969777" lon="11.7431012"><ele>644.6666666666667</ele><time>2026-04-25T14:53:27.485Z</time></trkpt><trkpt lat="45.9969056" lon="11.7431117"><ele>645.3333333333334</ele><time>2026-04-25T14:53:29.476Z</time></trkpt><trkpt lat="45.9968354" lon="11.7432019"><ele>646.0</ele><time>2026-04-25T14:53:31.495Z</time></trkpt><trkpt lat="45.9968142" lon="11.7433733"><ele>646.0</ele><time>2026-04-25T14:53:33.483Z</time></trkpt><trkpt lat="45.9968252" lon="11.7434951"><ele>646.0</ele><time>2026-04-25T14:53:34.477Z</time></trkpt><trkpt lat="45.9968397" lon="11.7435835"><ele>646.0</ele><time>2026-04-25T14:53:35.498Z</time></trkpt><trkpt lat="45.9969487" lon="11.7435297"><ele>646.0</ele><time>2026-04-25T14:53:39.481Z</time></trkpt><trkpt lat="45.9970181" lon="11.7435804"><ele>646.0</ele><time>2026-04-25T14:53:40.478Z</time></trkpt><trkpt lat="45.997106" lon="11.7437121"><ele>645.0</ele><time>2026-04-25T14:53:41.492Z</time></trkpt><trkpt lat="45.997165" lon="11.7438983"><ele>644.0</ele><time>2026-04-25T14:53:42.486Z</time></trkpt><trkpt lat="45.9971845" lon="11.7441147"><ele>643.0</ele><time>2026-04-25T14:53:43.475Z</time></trkpt><trkpt lat="45.9972035" lon="11.7442984"><ele>642.0</ele><time>2026-04-25T14:53:44.489Z</time></trkpt><trkpt lat="45.9971595" lon="11.7444535"><ele>644.2</ele><time>2026-04-25T14:53:45.497Z</time></trkpt><trkpt lat="45.9970628" lon="11.7445613"><ele>646.4000000000001</ele><time>2026-04-25T14:53:46.484Z</time></trkpt><trkpt lat="45.9969454" lon="11.7446282"><ele>648.5999999999999</ele><time>2026-04-25T14:53:47.496Z</time></trkpt><trkpt lat="45.9968613" lon="11.7446272"><ele>650.8</ele><time>2026-04-25T14:53:48.482Z</time></trkpt><trkpt lat="45.9967939" lon="11.7445826"><ele>653.0</ele><time>2026-04-25T14:53:51.47Z</time></trkpt><trkpt lat="45.9967103" lon="11.7446061"><ele>653.0</ele><time>2026-04-25T14:53:53.454Z</time></trkpt><trkpt lat="45.9967763" lon="11.7446256"><ele>653.0</ele><time>2026-04-25T14:53:54.486Z</time></trkpt><trkpt lat="45.9968241" lon="11.7448502"><ele>653.0</ele><time>2026-04-25T14:53:56.476Z</time></trkpt><trkpt lat="45.9968528" lon="11.7449566"><ele>653.0</ele><time>2026-04-25T14:53:57.472Z</time></trkpt><trkpt lat="45.9968687" lon="11.7451015"><ele>653.0</ele><time>2026-04-25T14:53:58.476Z</time></trkpt><trkpt lat="45.9968546" lon="11.7452432"><ele>653.0</ele><time>2026-04-25T14:53:59.469Z</time></trkpt><trkpt lat="45.9968347" lon="11.7453796"><ele>653.0</ele><time>2026-04-25T14:54:00.478Z</time></trkpt><trkpt lat="45.9968132" lon="11.7454739"><ele>653.0</ele><time>2026-04-25T14:54:01.489Z</time></trkpt><trkpt lat="45.9967295" lon="11.7454431"><ele>653.0</ele><time>2026-04-25T14:54:03.473Z</time></trkpt><trkpt lat="45.996789" lon="11.7453797"><ele>653.0</ele><time>2026-04-25T14:54:08.432Z</time></trkpt><trkpt lat="45.9967134" lon="11.7452673"><ele>653.0</ele><time>2026-04-25T14:54:11.457Z</time></trkpt><trkpt lat="45.9967131" lon="11.745145"><ele>653.0</ele><time>2026-04-25T14:54:12.459Z</time></trkpt><trkpt lat="45.9967396" lon="11.7449773"><ele>653.0</ele><time>2026-04-25T14:54:13.459Z</time></trkpt><trkpt lat="45.9967773" lon="11.7448145"><ele>653.0</ele><time>2026-04-25T14:54:14.496Z</time></trkpt><trkpt lat="45.9968215" lon="11.7446535"><ele>653.0</ele><time>2026-04-25T14:54:15.477Z</time></trkpt><trkpt lat="45.9968957" lon="11.7443891"><ele>650.8</ele><time>2026-04-25T14:54:16.488Z</time></trkpt><trkpt lat="45.9969507" lon="11.7441915"><ele>648.5999999999999</ele><time>2026-04-25T14:54:17.477Z</time></trkpt><trkpt lat="45.9969647" lon="11.7440251"><ele>646.4000000000001</ele><time>2026-04-25T14:54:18.476Z</time></trkpt><trkpt lat="45.9969887" lon="11.7438981"><ele>644.2</ele><time>2026-04-25T14:54:19.481Z</time></trkpt><trkpt lat="45.9970276" lon="11.7437877"><ele>642.0</ele><time>2026-04-25T14:54:20.479Z</time></trkpt><trkpt lat="45.997071" lon="11.7436168"><ele>643.3333333333334</ele><time>2026-04-25T14:54:21.446Z</time></trkpt><trkpt lat="45.9969742" lon="11.7433532"><ele>644.6666666666667</ele><time>2026-04-25T14:54:22.471Z</time></trkpt><trkpt lat="45.9969707" lon="11.7431134"><ele>646.0</ele><time>2026-04-25T14:54:23.437Z</time></trkpt><trkpt lat="45.9966106" lon="11.743789"><ele>646.0</ele><time>2026-04-25T14:54:24.475Z</time></trkpt><trkpt lat="45.9967704" lon="11.7435844"><ele>646.0</ele><time>2026-04-25T14:54:28.474Z</time></trkpt><trkpt lat="45.9967969" lon="11.7434868"><ele>646.0</ele><time>2026-04-25T14:54:29.494Z</time></trkpt><trkpt lat="45.9967162" lon="11.7435193"><ele>646.0</ele><time>2026-04-25T14:54:32.474Z</time></trkpt><trkpt lat="45.9966337" lon="11.7436293"><ele>638.75</ele><time>2026-04-25T14:54:33.466Z</time></trkpt><trkpt lat="45.9965373" lon="11.7437475"><ele>631.5</ele><time>2026-04-25T14:54:34.466Z</time></trkpt><trkpt lat="45.9963935" lon="11.7437856"><ele>624.25</ele><time>2026-04-25T14:54:35.463Z</time></trkpt><trkpt lat="45.9962258" lon="11.7437439"><ele>617.0</ele><time>2026-04-25T14:54:36.482Z</time></trkpt><trkpt lat="45.9961774" lon="11.7436599"><ele>619.25</ele><time>2026-04-25T14:54:37.476Z</time></trkpt><trkpt lat="45.9961525" lon="11.7435279"><ele>621.5</ele><time>2026-04-25T14:54:38.478Z</time></trkpt><trkpt lat="45.9960567" lon="11.7434403"><ele>623.75</ele><time>2026-04-25T14:54:39.478Z</time></trkpt><trkpt lat="45.9958444" lon="11.7433508"><ele>626.0</ele><time>2026-04-25T14:54:40.84Z</time></trkpt><trkpt lat="45.9962008" lon="11.7433317"><ele>626.0</ele><time>2026-04-25T14:54:42.542Z</time></trkpt><trkpt lat="45.9961247" lon="11.7433108"><ele>626.0</ele><time>2026-04-25T14:54:43.53Z</time></trkpt><trkpt lat="45.996054" lon="11.7433161"><ele>626.0</ele><time>2026-04-25T14:54:44.527Z</time></trkpt><trkpt lat="45.9960152" lon="11.7432397"><ele>626.0</ele><time>2026-04-25T14:54:45.525Z</time></trkpt><trkpt lat="45.9961892" lon="11.7432609"><ele>626.0</ele><time>2026-04-25T14:54:48.505Z</time></trkpt><trkpt lat="45.9963126" lon="11.7432725"><ele>626.0</ele><time>2026-04-25T14:54:49.529Z</time></trkpt><trkpt lat="45.9963849" lon="11.7433524"><ele>626.0</ele><time>2026-04-25T14:54:50.544Z</time></trkpt><trkpt lat="45.9964638" lon="11.7434318"><ele>626.0</ele><time>2026-04-25T14:54:51.534Z</time></trkpt><trkpt lat="45.9965019" lon="11.743563"><ele>626.0</ele><time>2026-04-25T14:54:53.496Z</time></trkpt><trkpt lat="45.9960864" lon="11.7429572"><ele>626.0</ele><time>2026-04-25T14:54:55.539Z</time></trkpt><trkpt lat="45.9960826" lon="11.742842"><ele>626.0</ele><time>2026-04-25T14:54:57.551Z</time></trkpt><trkpt lat="45.9960138" lon="11.742785"><ele>626.0</ele><time>2026-04-25T14:54:59.479Z</time></trkpt><trkpt lat="45.9959392" lon="11.7427715"><ele>626.0</ele><time>2026-04-25T14:55:00.531Z</time></trkpt><trkpt lat="45.9958508" lon="11.742735"><ele>626.0</ele><time>2026-04-25T14:55:01.546Z</time></trkpt><trkpt lat="45.9957815" lon="11.7426232"><ele>626.0</ele><time>2026-04-25T14:55:03.529Z</time></trkpt><trkpt lat="45.9957176" lon="11.7426033"><ele>621.6</ele><time>2026-04-25T14:55:04.536Z</time></trkpt><trkpt lat="45.9956244" lon="11.7425712"><ele>617.2</ele><time>2026-04-25T14:55:05.519Z</time></trkpt><trkpt lat="45.9955211" lon="11.7425293"><ele>612.8</ele><time>2026-04-25T14:55:06.537Z</time></trkpt><trkpt lat="45.9953811" lon="11.742513"><ele>608.4</ele><time>2026-04-25T14:55:08.52Z</time></trkpt><trkpt lat="45.9952775" lon="11.7425209"><ele>604.0</ele><time>2026-04-25T14:55:10.538Z</time></trkpt><trkpt lat="45.9952156" lon="11.7425431"><ele>604.0</ele><time>2026-04-25T14:55:11.535Z</time></trkpt><trkpt lat="45.9951513" lon="11.7425687"><ele>604.0</ele><time>2026-04-25T14:55:12.537Z</time></trkpt><trkpt lat="45.9950788" lon="11.7426052"><ele>604.0</ele><time>2026-04-25T14:55:13.538Z</time></trkpt><trkpt lat="45.994993" lon="11.7426467"><ele>604.0</ele><time>2026-04-25T14:55:14.512Z</time></trkpt><trkpt lat="45.9949039" lon="11.7426887"><ele>604.0</ele><time>2026-04-25T14:55:15.542Z</time></trkpt><trkpt lat="45.9948056" lon="11.7427485"><ele>604.0</ele><time>2026-04-25T14:55:17.545Z</time></trkpt><trkpt lat="45.9947396" lon="11.7427964"><ele>600.0</ele><time>2026-04-25T14:55:18.524Z</time></trkpt><trkpt lat="45.9946725" lon="11.7427828"><ele>596.0</ele><time>2026-04-25T14:55:21.469Z</time></trkpt><trkpt lat="45.994669" lon="11.7426872"><ele>592.0</ele><time>2026-04-25T14:55:29.474Z</time></trkpt><trkpt lat="45.994657" lon="11.7425941"><ele>588.0</ele><time>2026-04-25T14:55:30.44Z</time></trkpt><trkpt lat="45.9946573" lon="11.7424836"><ele>584.0</ele><time>2026-04-25T14:55:31.465Z</time></trkpt><trkpt lat="45.9946405" lon="11.7423358"><ele>580.0</ele><time>2026-04-25T14:55:32.485Z</time></trkpt><trkpt lat="45.994616" lon="11.7421061"><ele>580.0</ele><time>2026-04-25T14:55:33.473Z</time></trkpt><trkpt lat="45.9946117" lon="11.7419565"><ele>580.0</ele><time>2026-04-25T14:55:34.477Z</time></trkpt><trkpt lat="45.9945778" lon="11.7418472"><ele>580.0</ele><time>2026-04-25T14:55:35.48Z</time></trkpt><trkpt lat="45.9945053" lon="11.741844"><ele>580.0</ele><time>2026-04-25T14:55:38.47Z</time></trkpt><trkpt lat="45.9944607" lon="11.7416967"><ele>580.0</ele><time>2026-04-25T14:55:40.477Z</time></trkpt><trkpt lat="45.9944282" lon="11.74159"><ele>582.0</ele><time>2026-04-25T14:55:41.475Z</time></trkpt><trkpt lat="45.9943884" lon="11.7414836"><ele>584.0</ele><time>2026-04-25T14:55:42.481Z</time></trkpt><trkpt lat="45.9943123" lon="11.741346"><ele>586.0</ele><time>2026-04-25T14:55:44.479Z</time></trkpt><trkpt lat="45.9942832" lon="11.7412158"><ele>588.0</ele><time>2026-04-25T14:55:46.462Z</time></trkpt><trkpt lat="45.9942588" lon="11.7410297"><ele>590.0</ele><time>2026-04-25T14:55:48.483Z</time></trkpt><trkpt lat="45.9942373" lon="11.7409258"><ele>587.8333333333333</ele><time>2026-04-25T14:55:49.486Z</time></trkpt><trkpt lat="45.9942141" lon="11.7408104"><ele>585.6666666666666</ele><time>2026-04-25T14:55:50.478Z</time></trkpt><trkpt lat="45.9941998" lon="11.7406449"><ele>583.5</ele><time>2026-04-25T14:55:51.501Z</time></trkpt><trkpt lat="45.9941871" lon="11.7405395"><ele>581.3333333333334</ele><time>2026-04-25T14:55:52.462Z</time></trkpt><trkpt lat="45.9941664" lon="11.7404331"><ele>579.1666666666667</ele><time>2026-04-25T14:55:53.497Z</time></trkpt><trkpt lat="45.9941486" lon="11.7403364"><ele>577.0</ele><time>2026-04-25T14:55:54.479Z</time></trkpt><trkpt lat="45.9941372" lon="11.7401994"><ele>577.0</ele><time>2026-04-25T14:55:55.48Z</time></trkpt><trkpt lat="45.9941133" lon="11.7400456"><ele>577.0</ele><time>2026-04-25T14:55:56.475Z</time></trkpt><trkpt lat="45.9940838" lon="11.739919"><ele>577.0</ele><time>2026-04-25T14:55:57.475Z</time></trkpt><trkpt lat="45.9940501" lon="11.739837"><ele>577.0</ele><time>2026-04-25T14:55:58.477Z</time></trkpt><trkpt lat="45.9940114" lon="11.7397414"><ele>577.0</ele><time>2026-04-25T14:56:00.479Z</time></trkpt><trkpt lat="45.9939453" lon="11.7397462"><ele>577.0</ele><time>2026-04-25T14:56:03.47Z</time></trkpt><trkpt lat="45.9938711" lon="11.7397955"><ele>577.0</ele><time>2026-04-25T14:56:05.486Z</time></trkpt><trkpt lat="45.9937943" lon="11.7398463"><ele>577.0</ele><time>2026-04-25T14:56:07.482Z</time></trkpt><trkpt lat="45.9937497" lon="11.7399203"><ele>577.0</ele><time>2026-04-25T14:56:09.482Z</time></trkpt><trkpt lat="45.9936438" lon="11.7399503"><ele>577.0</ele><time>2026-04-25T14:56:12.474Z</time></trkpt><trkpt lat="45.9935784" lon="11.7398473"><ele>577.0</ele><time>2026-04-25T14:56:14.463Z</time></trkpt><trkpt lat="45.9935355" lon="11.7397494"><ele>577.0</ele><time>2026-04-25T14:56:15.478Z</time></trkpt><trkpt lat="45.9934914" lon="11.7396232"><ele>577.0</ele><time>2026-04-25T14:56:16.484Z</time></trkpt><trkpt lat="45.9934363" lon="11.7394847"><ele>577.0</ele><time>2026-04-25T14:56:17.451Z</time></trkpt><trkpt lat="45.9933675" lon="11.7393395"><ele>577.0</ele><time>2026-04-25T14:56:18.483Z</time></trkpt><trkpt lat="45.9933142" lon="11.7392375"><ele>577.0</ele><time>2026-04-25T14:56:19.483Z</time></trkpt><trkpt lat="45.9932751" lon="11.7391523"><ele>577.0</ele><time>2026-04-25T14:56:20.485Z</time></trkpt><trkpt lat="45.9932257" lon="11.7389685"><ele>575.0</ele><time>2026-04-25T14:56:22.484Z</time></trkpt><trkpt lat="45.9931937" lon="11.7388335"><ele>573.0</ele><time>2026-04-25T14:56:23.484Z</time></trkpt><trkpt lat="45.9931454" lon="11.7387091"><ele>571.0</ele><time>2026-04-25T14:56:24.475Z</time></trkpt><trkpt lat="45.9931309" lon="11.7386019"><ele>569.0</ele><time>2026-04-25T14:56:26.5Z</time></trkpt><trkpt lat="45.9931993" lon="11.7385836"><ele>567.0</ele><time>2026-04-25T14:56:28.492Z</time></trkpt><trkpt lat="45.9932505" lon="11.7385153"><ele>565.0</ele><time>2026-04-25T14:56:30.49Z</time></trkpt><trkpt lat="45.9932347" lon="11.7384066"><ele>565.0</ele><time>2026-04-25T14:56:32.49Z</time></trkpt><trkpt lat="45.9931892" lon="11.7383289"><ele>565.0</ele><time>2026-04-25T14:56:33.475Z</time></trkpt><trkpt lat="45.993132" lon="11.73823"><ele>565.0</ele><time>2026-04-25T14:56:34.486Z</time></trkpt><trkpt lat="45.9930846" lon="11.7381483"><ele>565.0</ele><time>2026-04-25T14:56:35.446Z</time></trkpt><trkpt lat="45.9930267" lon="11.738004"><ele>565.0</ele><time>2026-04-25T14:56:36.449Z</time></trkpt><trkpt lat="45.9929888" lon="11.7378811"><ele>565.0</ele><time>2026-04-25T14:56:37.477Z</time></trkpt><trkpt lat="45.9929472" lon="11.7377252"><ele>566.6</ele><time>2026-04-25T14:56:38.459Z</time></trkpt><trkpt lat="45.9929107" lon="11.7376059"><ele>568.2</ele><time>2026-04-25T14:56:39.475Z</time></trkpt><trkpt lat="45.9928629" lon="11.7375056"><ele>569.8</ele><time>2026-04-25T14:56:40.489Z</time></trkpt><trkpt lat="45.9928193" lon="11.7374226"><ele>571.4</ele><time>2026-04-25T14:56:41.49Z</time></trkpt><trkpt lat="45.9927385" lon="11.73733"><ele>573.0</ele><time>2026-04-25T14:56:43.482Z</time></trkpt><trkpt lat="45.9926685" lon="11.737227"><ele>573.0</ele><time>2026-04-25T14:56:45.463Z</time></trkpt><trkpt lat="45.9925638" lon="11.7371343"><ele>573.0</ele><time>2026-04-25T14:56:47.469Z</time></trkpt><trkpt lat="45.9925155" lon="11.7370333"><ele>573.0</ele><time>2026-04-25T14:56:49.49Z</time></trkpt><trkpt lat="45.9925363" lon="11.7368751"><ele>573.0</ele><time>2026-04-25T14:56:51.445Z</time></trkpt><trkpt lat="45.9925566" lon="11.7367774"><ele>573.0</ele><time>2026-04-25T14:56:53.487Z</time></trkpt><trkpt lat="45.9925868" lon="11.7366869"><ele>574.0</ele><time>2026-04-25T14:56:55.488Z</time></trkpt><trkpt lat="45.9925272" lon="11.7367181"><ele>575.0</ele><time>2026-04-25T14:56:59.482Z</time></trkpt><trkpt lat="45.9924583" lon="11.7368358"><ele>576.0</ele><time>2026-04-25T14:57:01.465Z</time></trkpt><trkpt lat="45.9924108" lon="11.7369471"><ele>577.0</ele><time>2026-04-25T14:57:03.483Z</time></trkpt><trkpt lat="45.9923762" lon="11.7370237"><ele>578.0</ele><time>2026-04-25T14:57:04.485Z</time></trkpt><trkpt lat="45.992355" lon="11.7371859"><ele>579.0</ele><time>2026-04-25T14:57:06.519Z</time></trkpt><trkpt lat="45.9923358" lon="11.737364"><ele>571.2</ele><time>2026-04-25T14:57:08.484Z</time></trkpt><trkpt lat="45.9923235" lon="11.7374675"><ele>563.4</ele><time>2026-04-25T14:57:09.492Z</time></trkpt><trkpt lat="45.9923166" lon="11.7376236"><ele>555.6</ele><time>2026-04-25T14:57:11.531Z</time></trkpt><trkpt lat="45.9922984" lon="11.7377808"><ele>547.8</ele><time>2026-04-25T14:57:13.532Z</time></trkpt><trkpt lat="45.9922613" lon="11.7378998"><ele>540.0</ele><time>2026-04-25T14:57:14.529Z</time></trkpt><trkpt lat="45.9922081" lon="11.738014"><ele>539.6</ele><time>2026-04-25T14:57:15.529Z</time></trkpt><trkpt lat="45.9921508" lon="11.7380993"><ele>539.2</ele><time>2026-04-25T14:57:16.52Z</time></trkpt><trkpt lat="45.9920958" lon="11.7381729"><ele>538.8</ele><time>2026-04-25T14:57:17.534Z</time></trkpt><trkpt lat="45.9919813" lon="11.738237"><ele>538.4</ele><time>2026-04-25T14:57:19.558Z</time></trkpt><trkpt lat="45.9918888" lon="11.7382867"><ele>538.0</ele><time>2026-04-25T14:57:20.54Z</time></trkpt><trkpt lat="45.9918116" lon="11.7383295"><ele>538.0</ele><time>2026-04-25T14:57:21.553Z</time></trkpt><trkpt lat="45.9917411" lon="11.7383574"><ele>538.0</ele><time>2026-04-25T14:57:22.554Z</time></trkpt><trkpt lat="45.9916556" lon="11.7384137"><ele>538.0</ele><time>2026-04-25T14:57:23.535Z</time></trkpt><trkpt lat="45.9915937" lon="11.7384724"><ele>538.0</ele><time>2026-04-25T14:57:24.529Z</time></trkpt><trkpt lat="45.9915073" lon="11.7385546"><ele>538.0</ele><time>2026-04-25T14:57:25.543Z</time></trkpt><trkpt lat="45.9914036" lon="11.7386625"><ele>536.0</ele><time>2026-04-25T14:57:26.544Z</time></trkpt><trkpt lat="45.9913019" lon="11.7387675"><ele>534.0</ele><time>2026-04-25T14:57:27.539Z</time></trkpt><trkpt lat="45.9912248" lon="11.7388545"><ele>532.0</ele><time>2026-04-25T14:57:28.536Z</time></trkpt><trkpt lat="45.9911878" lon="11.7389622"><ele>530.0</ele><time>2026-04-25T14:57:30.521Z</time></trkpt><trkpt lat="45.9911742" lon="11.7390679"><ele>528.0</ele><time>2026-04-25T14:57:31.543Z</time></trkpt><trkpt lat="45.9911748" lon="11.7392102"><ele>528.0</ele><time>2026-04-25T14:57:32.523Z</time></trkpt><trkpt lat="45.9911799" lon="11.739352"><ele>528.0</ele><time>2026-04-25T14:57:33.563Z</time></trkpt><trkpt lat="45.991181" lon="11.7394667"><ele>528.0</ele><time>2026-04-25T14:57:34.503Z</time></trkpt><trkpt lat="45.9911753" lon="11.7395701"><ele>528.0</ele><time>2026-04-25T14:57:35.573Z</time></trkpt><trkpt lat="45.9911588" lon="11.7396808"><ele>528.0</ele><time>2026-04-25T14:57:37.537Z</time></trkpt><trkpt lat="45.9910742" lon="11.7397773"><ele>528.0</ele><time>2026-04-25T14:57:39.551Z</time></trkpt><trkpt lat="45.9910058" lon="11.739866"><ele>526.1999999999999</ele><time>2026-04-25T14:57:41.521Z</time></trkpt><trkpt lat="45.9909082" lon="11.7399242"><ele>524.4</ele><time>2026-04-25T14:57:43.547Z</time></trkpt><trkpt lat="45.9908288" lon="11.739966"><ele>522.5999999999999</ele><time>2026-04-25T14:57:44.545Z</time></trkpt><trkpt lat="45.990754" lon="11.7400097"><ele>520.8</ele><time>2026-04-25T14:57:45.539Z</time></trkpt><trkpt lat="45.9906903" lon="11.7400447"><ele>519.0</ele><time>2026-04-25T14:57:46.535Z</time></trkpt><trkpt lat="45.990567" lon="11.7401179"><ele>516.0</ele><time>2026-04-25T14:57:47.531Z</time></trkpt><trkpt lat="45.9904283" lon="11.7402009"><ele>513.0</ele><time>2026-04-25T14:57:48.549Z</time></trkpt><trkpt lat="45.9903763" lon="11.7402537"><ele>510.0</ele><time>2026-04-25T14:57:49.539Z</time></trkpt><trkpt lat="45.990329" lon="11.7403287"><ele>507.0</ele><time>2026-04-25T14:57:50.537Z</time></trkpt><trkpt lat="45.9903127" lon="11.7404433"><ele>504.0</ele><time>2026-04-25T14:57:51.557Z</time></trkpt><trkpt lat="45.9903003" lon="11.7405878"><ele>504.0</ele><time>2026-04-25T14:57:53.493Z</time></trkpt><trkpt lat="45.9902879" lon="11.7407369"><ele>504.0</ele><time>2026-04-25T14:57:55.495Z</time></trkpt><trkpt lat="45.9902708" lon="11.7408698"><ele>504.0</ele><time>2026-04-25T14:57:57.538Z</time></trkpt><trkpt lat="45.9902609" lon="11.741"><ele>504.0</ele><time>2026-04-25T14:57:59.528Z</time></trkpt><trkpt lat="45.9902515" lon="11.7411925"><ele>504.0</ele><time>2026-04-25T14:58:01.541Z</time></trkpt><trkpt lat="45.9902563" lon="11.7413118"><ele>503.3333333333333</ele><time>2026-04-25T14:58:02.543Z</time></trkpt><trkpt lat="45.9902616" lon="11.741431"><ele>502.66666666666663</ele><time>2026-04-25T14:58:03.538Z</time></trkpt><trkpt lat="45.9902671" lon="11.741553"><ele>502.0</ele><time>2026-04-25T14:58:04.537Z</time></trkpt><trkpt lat="45.990267" lon="11.7416725"><ele>501.3333333333333</ele><time>2026-04-25T14:58:05.537Z</time></trkpt><trkpt lat="45.9902638" lon="11.7417906"><ele>500.66666666666663</ele><time>2026-04-25T14:58:06.528Z</time></trkpt><trkpt lat="45.9902607" lon="11.7419133"><ele>500.0</ele><time>2026-04-25T14:58:07.56Z</time></trkpt><trkpt lat="45.9902567" lon="11.7420053"><ele>499.3333333333333</ele><time>2026-04-25T14:58:08.515Z</time></trkpt><trkpt lat="45.9902573" lon="11.742114"><ele>498.66666666666663</ele><time>2026-04-25T14:58:10.535Z</time></trkpt><trkpt lat="45.9902578" lon="11.7422155"><ele>498.0</ele><time>2026-04-25T14:58:12.485Z</time></trkpt><trkpt lat="45.9902469" lon="11.7423314"><ele>497.33333333333337</ele><time>2026-04-25T14:58:14.475Z</time></trkpt><trkpt lat="45.9902163" lon="11.7424118"><ele>496.6666666666667</ele><time>2026-04-25T14:58:16.476Z</time></trkpt><trkpt lat="45.9901128" lon="11.7424601"><ele>496.0</ele><time>2026-04-25T14:58:18.475Z</time></trkpt><trkpt lat="45.9900061" lon="11.7424789"><ele>496.0</ele><time>2026-04-25T14:58:20.486Z</time></trkpt><trkpt lat="45.9899179" lon="11.7424966"><ele>496.0</ele><time>2026-04-25T14:58:22.486Z</time></trkpt><trkpt lat="45.98981" lon="11.7425667"><ele>496.0</ele><time>2026-04-25T14:58:24.48Z</time></trkpt><trkpt lat="45.9897476" lon="11.7426017"><ele>496.0</ele><time>2026-04-25T14:58:25.482Z</time></trkpt><trkpt lat="45.9896846" lon="11.7426665"><ele>496.0</ele><time>2026-04-25T14:58:26.48Z</time></trkpt><trkpt lat="45.9896051" lon="11.7427941"><ele>496.0</ele><time>2026-04-25T14:58:28.45Z</time></trkpt><trkpt lat="45.9895781" lon="11.7428766"><ele>496.00000000000006</ele><time>2026-04-25T14:58:29.439Z</time></trkpt><trkpt lat="45.9895588" lon="11.7429733"><ele>496.0</ele><time>2026-04-25T14:58:30.491Z</time></trkpt><trkpt lat="45.9895595" lon="11.7430655"><ele>496.0</ele><time>2026-04-25T14:58:31.477Z</time></trkpt><trkpt lat="45.9895629" lon="11.7431594"><ele>496.00000000000006</ele><time>2026-04-25T14:58:32.475Z</time></trkpt><trkpt lat="45.9895752" lon="11.7432762"><ele>496.0</ele><time>2026-04-25T14:58:33.483Z</time></trkpt><trkpt lat="45.9895932" lon="11.7434146"><ele>496.0</ele><time>2026-04-25T14:58:34.484Z</time></trkpt><trkpt lat="45.9896027" lon="11.7435424"><ele>494.83333333333337</ele><time>2026-04-25T14:58:35.488Z</time></trkpt><trkpt lat="45.9896082" lon="11.7436696"><ele>493.6666666666667</ele><time>2026-04-25T14:58:36.475Z</time></trkpt><trkpt lat="45.9896141" lon="11.7437892"><ele>492.5</ele><time>2026-04-25T14:58:37.484Z</time></trkpt><trkpt lat="45.9896165" lon="11.7439014"><ele>491.33333333333337</ele><time>2026-04-25T14:58:38.475Z</time></trkpt><trkpt lat="45.9896181" lon="11.743994"><ele>490.1666666666667</ele><time>2026-04-25T14:58:39.477Z</time></trkpt><trkpt lat="45.9896172" lon="11.7440939"><ele>489.0</ele><time>2026-04-25T14:58:40.479Z</time></trkpt><trkpt lat="45.9896227" lon="11.7442816"><ele>489.0</ele><time>2026-04-25T14:58:42.484Z</time></trkpt><trkpt lat="45.9896417" lon="11.7443731"><ele>489.0</ele><time>2026-04-25T14:58:43.478Z</time></trkpt><trkpt lat="45.989666" lon="11.7444777"><ele>489.0</ele><time>2026-04-25T14:58:44.48Z</time></trkpt><trkpt lat="45.9896918" lon="11.7445974"><ele>489.0</ele><time>2026-04-25T14:58:45.476Z</time></trkpt><trkpt lat="45.9897156" lon="11.7447165"><ele>489.0</ele><time>2026-04-25T14:58:46.471Z</time></trkpt><trkpt lat="45.989737" lon="11.7448356"><ele>489.0</ele><time>2026-04-25T14:58:47.479Z</time></trkpt><trkpt lat="45.9897525" lon="11.7449547"><ele>487.6666666666667</ele><time>2026-04-25T14:58:48.505Z</time></trkpt><trkpt lat="45.9897752" lon="11.7450811"><ele>486.33333333333337</ele><time>2026-04-25T14:58:49.5Z</time></trkpt><trkpt lat="45.9897959" lon="11.7451989"><ele>485.0</ele><time>2026-04-25T14:58:50.478Z</time></trkpt><trkpt lat="45.9898187" lon="11.7453277"><ele>483.6666666666667</ele><time>2026-04-25T14:58:51.49Z</time></trkpt><trkpt lat="45.9898373" lon="11.7454419"><ele>482.33333333333337</ele><time>2026-04-25T14:58:52.465Z</time></trkpt><trkpt lat="45.9898523" lon="11.7455411"><ele>481.0</ele><time>2026-04-25T14:58:53.49Z</time></trkpt><trkpt lat="45.989864" lon="11.7456321"><ele>480.0</ele><time>2026-04-25T14:58:54.485Z</time></trkpt><trkpt lat="45.989879" lon="11.7457327"><ele>479.0</ele><time>2026-04-25T14:58:55.466Z</time></trkpt><trkpt lat="45.9898979" lon="11.7458656"><ele>478.0</ele><time>2026-04-25T14:58:57.499Z</time></trkpt><trkpt lat="45.9899073" lon="11.7460174"><ele>477.0</ele><time>2026-04-25T14:58:59.495Z</time></trkpt><trkpt lat="45.9899137" lon="11.7461467"><ele>476.0</ele><time>2026-04-25T14:59:00.482Z</time></trkpt><trkpt lat="45.989912" lon="11.7462867"><ele>474.8</ele><time>2026-04-25T14:59:01.469Z</time></trkpt><trkpt lat="45.9899067" lon="11.7464157"><ele>473.6</ele><time>2026-04-25T14:59:02.486Z</time></trkpt><trkpt lat="45.9898591" lon="11.746554"><ele>472.4</ele><time>2026-04-25T14:59:04.485Z</time></trkpt><trkpt lat="45.9897887" lon="11.7466831"><ele>471.2</ele><time>2026-04-25T14:59:06.487Z</time></trkpt><trkpt lat="45.9897266" lon="11.7468064"><ele>470.0</ele><time>2026-04-25T14:59:08.487Z</time></trkpt><trkpt lat="45.9896611" lon="11.7469646"><ele>469.49999999999994</ele><time>2026-04-25T14:59:10.478Z</time></trkpt><trkpt lat="45.9896308" lon="11.7470442"><ele>469.0</ele><time>2026-04-25T14:59:11.486Z</time></trkpt><trkpt lat="45.9896009" lon="11.7471282"><ele>468.5</ele><time>2026-04-25T14:59:12.455Z</time></trkpt><trkpt lat="45.9895505" lon="11.7471984"><ele>468.0</ele><time>2026-04-25T14:59:13.497Z</time></trkpt><trkpt lat="45.9894343" lon="11.7473471"><ele>467.49999999999994</ele><time>2026-04-25T14:59:15.484Z</time></trkpt><trkpt lat="45.9893597" lon="11.7474167"><ele>467.0</ele><time>2026-04-25T14:59:16.481Z</time></trkpt><trkpt lat="45.9892894" lon="11.7474937"><ele>466.99999999999994</ele><time>2026-04-25T14:59:17.5Z</time></trkpt><trkpt lat="45.9892278" lon="11.7475568"><ele>467.0</ele><time>2026-04-25T14:59:18.483Z</time></trkpt><trkpt lat="45.9891533" lon="11.7476199"><ele>467.0</ele><time>2026-04-25T14:59:19.472Z</time></trkpt><trkpt lat="45.9890811" lon="11.7476838"><ele>467.0</ele><time>2026-04-25T14:59:20.492Z</time></trkpt><trkpt lat="45.9889911" lon="11.7477464"><ele>466.99999999999994</ele><time>2026-04-25T14:59:21.487Z</time></trkpt><trkpt lat="45.9889007" lon="11.7478007"><ele>467.0</ele><time>2026-04-25T14:59:22.48Z</time></trkpt><trkpt lat="45.9888063" lon="11.7478671"><ele>466.0</ele><time>2026-04-25T14:59:23.48Z</time></trkpt><trkpt lat="45.9887121" lon="11.7479324"><ele>465.00000000000006</ele><time>2026-04-25T14:59:24.481Z</time></trkpt><trkpt lat="45.9886133" lon="11.747996"><ele>464.00000000000006</ele><time>2026-04-25T14:59:25.441Z</time></trkpt><trkpt lat="45.9885136" lon="11.7480635"><ele>463.0</ele><time>2026-04-25T14:59:26.483Z</time></trkpt><trkpt lat="45.9884152" lon="11.7481346"><ele>462.0</ele><time>2026-04-25T14:59:27.485Z</time></trkpt><trkpt lat="45.9882997" lon="11.7482084"><ele>462.0</ele><time>2026-04-25T14:59:28.496Z</time></trkpt><trkpt lat="45.988198" lon="11.7482685"><ele>462.00000000000006</ele><time>2026-04-25T14:59:29.473Z</time></trkpt><trkpt lat="45.9880987" lon="11.7483297"><ele>462.00000000000006</ele><time>2026-04-25T14:59:30.464Z</time></trkpt><trkpt lat="45.9880114" lon="11.7483902"><ele>462.0</ele><time>2026-04-25T14:59:31.468Z</time></trkpt><trkpt lat="45.9879251" lon="11.7484485"><ele>462.0</ele><time>2026-04-25T14:59:32.486Z</time></trkpt><trkpt lat="45.9878508" lon="11.7484935"><ele>462.0</ele><time>2026-04-25T14:59:33.476Z</time></trkpt><trkpt lat="45.9877733" lon="11.7485403"><ele>462.0</ele><time>2026-04-25T14:59:34.481Z</time></trkpt><trkpt lat="45.9877003" lon="11.7485922"><ele>462.0</ele><time>2026-04-25T14:59:35.488Z</time></trkpt><trkpt lat="45.9876213" lon="11.7486478"><ele>462.0</ele><time>2026-04-25T14:59:36.483Z</time></trkpt><trkpt lat="45.9875533" lon="11.7486877"><ele>462.0</ele><time>2026-04-25T14:59:37.493Z</time></trkpt><trkpt lat="45.9874805" lon="11.7487733"><ele>462.0</ele><time>2026-04-25T14:59:39.48Z</time></trkpt><trkpt lat="45.9874216" lon="11.748922"><ele>458.20000000000005</ele><time>2026-04-25T14:59:41.498Z</time></trkpt><trkpt lat="45.987379" lon="11.7490491"><ele>454.40000000000003</ele><time>2026-04-25T14:59:43.484Z</time></trkpt><trkpt lat="45.9873458" lon="11.7491688"><ele>450.59999999999997</ele><time>2026-04-25T14:59:45.48Z</time></trkpt><trkpt lat="45.9873138" lon="11.749263"><ele>446.79999999999995</ele><time>2026-04-25T14:59:50.458Z</time></trkpt><trkpt lat="45.9873725" lon="11.7493896"><ele>443.0</ele><time>2026-04-25T14:59:53.486Z</time></trkpt><trkpt lat="45.9873601" lon="11.749513"><ele>440.99999999999994</ele><time>2026-04-25T14:59:55.482Z</time></trkpt><trkpt lat="45.9872946" lon="11.7496307"><ele>439.0</ele><time>2026-04-25T14:59:57.481Z</time></trkpt><trkpt lat="45.9872407" lon="11.7496861"><ele>437.0</ele><time>2026-04-25T14:59:58.475Z</time></trkpt><trkpt lat="45.9871613" lon="11.7497188"><ele>435.0</ele><time>2026-04-25T14:59:59.463Z</time></trkpt><trkpt lat="45.987064" lon="11.7497336"><ele>432.99999999999994</ele><time>2026-04-25T15:00:00.493Z</time></trkpt><trkpt lat="45.986998" lon="11.7497578"><ele>431.0</ele><time>2026-04-25T15:00:01.472Z</time></trkpt><trkpt lat="45.986913" lon="11.7497793"><ele>431.0</ele><time>2026-04-25T15:00:03.477Z</time></trkpt><trkpt lat="45.9867572" lon="11.7497672"><ele>431.0</ele><time>2026-04-25T15:00:05.488Z</time></trkpt><trkpt lat="45.9866854" lon="11.7497733"><ele>431.0</ele><time>2026-04-25T15:00:06.475Z</time></trkpt><trkpt lat="45.9865644" lon="11.7497716"><ele>431.0</ele><time>2026-04-25T15:00:08.479Z</time></trkpt><trkpt lat="45.9864772" lon="11.74981"><ele>431.0</ele><time>2026-04-25T15:00:10.485Z</time></trkpt><trkpt lat="45.986391" lon="11.7497964"><ele>430.99999999999994</ele><time>2026-04-25T15:00:11.485Z</time></trkpt><trkpt lat="45.9863169" lon="11.7497591"><ele>431.0</ele><time>2026-04-25T15:00:12.506Z</time></trkpt><trkpt lat="45.9862025" lon="11.7497823"><ele>431.0</ele><time>2026-04-25T15:00:14.482Z</time></trkpt><trkpt lat="45.9861317" lon="11.7498493"><ele>431.0</ele><time>2026-04-25T15:00:15.477Z</time></trkpt><trkpt lat="45.9860847" lon="11.749911"><ele>430.99999999999994</ele><time>2026-04-25T15:00:16.492Z</time></trkpt><trkpt lat="45.9860294" lon="11.7499846"><ele>431.0</ele><time>2026-04-25T15:00:18.484Z</time></trkpt><trkpt lat="45.9859668" lon="11.7500205"><ele>428.8</ele><time>2026-04-25T15:00:21.467Z</time></trkpt><trkpt lat="45.9858447" lon="11.7500553"><ele>426.6</ele><time>2026-04-25T15:00:23.478Z</time></trkpt><trkpt lat="45.9857452" lon="11.7500921"><ele>424.4</ele><time>2026-04-25T15:00:24.481Z</time></trkpt><trkpt lat="45.9856379" lon="11.7501186"><ele>422.2</ele><time>2026-04-25T15:00:25.492Z</time></trkpt><trkpt lat="45.9855713" lon="11.7501005"><ele>420.0</ele><time>2026-04-25T15:00:26.489Z</time></trkpt><trkpt lat="45.9854683" lon="11.7500681"><ele>420.0</ele><time>2026-04-25T15:00:28.495Z</time></trkpt><trkpt lat="45.985417" lon="11.7500123"><ele>420.0</ele><time>2026-04-25T15:00:29.483Z</time></trkpt><trkpt lat="45.9853566" lon="11.7499416"><ele>420.0</ele><time>2026-04-25T15:00:30.489Z</time></trkpt><trkpt lat="45.9852923" lon="11.7498922"><ele>420.0</ele><time>2026-04-25T15:00:31.507Z</time></trkpt><trkpt lat="45.9852153" lon="11.7498566"><ele>420.0</ele><time>2026-04-25T15:00:33.477Z</time></trkpt><trkpt lat="45.9851424" lon="11.7497321"><ele>420.0</ele><time>2026-04-25T15:00:35.478Z</time></trkpt><trkpt lat="45.9850829" lon="11.7495833"><ele>420.0</ele><time>2026-04-25T15:00:36.486Z</time></trkpt><trkpt lat="45.9850475" lon="11.7494359"><ele>420.0</ele><time>2026-04-25T15:00:37.484Z</time></trkpt><trkpt lat="45.9850015" lon="11.7493269"><ele>420.0</ele><time>2026-04-25T15:00:38.509Z</time></trkpt><trkpt lat="45.9849952" lon="11.7491373"><ele>420.0</ele><time>2026-04-25T15:00:40.493Z</time></trkpt><trkpt lat="45.9850468" lon="11.7489729"><ele>415.8</ele><time>2026-04-25T15:00:42.48Z</time></trkpt><trkpt lat="45.9849672" lon="11.7489624"><ele>411.6</ele><time>2026-04-25T15:00:47.486Z</time></trkpt><trkpt lat="45.9848717" lon="11.7489912"><ele>407.4</ele><time>2026-04-25T15:00:48.472Z</time></trkpt><trkpt lat="45.9847684" lon="11.7490548"><ele>403.2</ele><time>2026-04-25T15:00:49.461Z</time></trkpt><trkpt lat="45.9846528" lon="11.749137"><ele>399.0</ele><time>2026-04-25T15:00:50.477Z</time></trkpt><trkpt lat="45.9845367" lon="11.7492275"><ele>399.0</ele><time>2026-04-25T15:00:51.479Z</time></trkpt><trkpt lat="45.9844283" lon="11.749323"><ele>399.0</ele><time>2026-04-25T15:00:52.479Z</time></trkpt><trkpt lat="45.9843776" lon="11.7494084"><ele>399.0</ele><time>2026-04-25T15:00:53.521Z</time></trkpt><trkpt lat="45.9843193" lon="11.7494885"><ele>399.0</ele><time>2026-04-25T15:00:54.49Z</time></trkpt><trkpt lat="45.9842577" lon="11.7496044"><ele>399.0</ele><time>2026-04-25T15:00:56.462Z</time></trkpt><trkpt lat="45.9841872" lon="11.7496516"><ele>395.6666666666667</ele><time>2026-04-25T15:00:58.492Z</time></trkpt><trkpt lat="45.9841232" lon="11.7495903"><ele>392.3333333333333</ele><time>2026-04-25T15:01:00.475Z</time></trkpt><trkpt lat="45.984075" lon="11.7494869"><ele>389.0</ele><time>2026-04-25T15:01:01.485Z</time></trkpt><trkpt lat="45.9840417" lon="11.7493634"><ele>385.66666666666663</ele><time>2026-04-25T15:01:02.479Z</time></trkpt><trkpt lat="45.9840624" lon="11.7492438"><ele>382.3333333333333</ele><time>2026-04-25T15:01:03.483Z</time></trkpt><trkpt lat="45.9840499" lon="11.7491391"><ele>379.0</ele><time>2026-04-25T15:01:05.487Z</time></trkpt><trkpt lat="45.9838952" lon="11.7490991"><ele>378.4</ele><time>2026-04-25T15:01:07.477Z</time></trkpt><trkpt lat="45.9837822" lon="11.7490904"><ele>377.79999999999995</ele><time>2026-04-25T15:01:08.49Z</time></trkpt><trkpt lat="45.983674" lon="11.7490716"><ele>377.20000000000005</ele><time>2026-04-25T15:01:09.478Z</time></trkpt><trkpt lat="45.983568" lon="11.7490817"><ele>376.6</ele><time>2026-04-25T15:01:10.489Z</time></trkpt><trkpt lat="45.983487" lon="11.7491053"><ele>376.0</ele><time>2026-04-25T15:01:11.474Z</time></trkpt><trkpt lat="45.9833929" lon="11.749133"><ele>373.8</ele><time>2026-04-25T15:01:12.488Z</time></trkpt><trkpt lat="45.9832928" lon="11.7491718"><ele>371.6</ele><time>2026-04-25T15:01:13.457Z</time></trkpt><trkpt lat="45.9831945" lon="11.749225"><ele>369.4</ele><time>2026-04-25T15:01:14.476Z</time></trkpt><trkpt lat="45.9831162" lon="11.7492937"><ele>367.2</ele><time>2026-04-25T15:01:15.445Z</time></trkpt><trkpt lat="45.9830274" lon="11.7493783"><ele>365.0</ele><time>2026-04-25T15:01:16.483Z</time></trkpt><trkpt lat="45.9829381" lon="11.7494256"><ele>365.0</ele><time>2026-04-25T15:01:17.467Z</time></trkpt><trkpt lat="45.9828681" lon="11.7494517"><ele>365.0</ele><time>2026-04-25T15:01:18.486Z</time></trkpt><trkpt lat="45.9828294" lon="11.7495453"><ele>365.0</ele><time>2026-04-25T15:01:20.49Z</time></trkpt><trkpt lat="45.982765" lon="11.7496424"><ele>365.0</ele><time>2026-04-25T15:01:21.487Z</time></trkpt><trkpt lat="45.9826914" lon="11.749695"><ele>365.0</ele><time>2026-04-25T15:01:22.449Z</time></trkpt><trkpt lat="45.9826143" lon="11.7497093"><ele>365.0</ele><time>2026-04-25T15:01:23.445Z</time></trkpt><trkpt lat="45.9825297" lon="11.7496846"><ele>363.0</ele><time>2026-04-25T15:01:24.474Z</time></trkpt><trkpt lat="45.9824447" lon="11.749623"><ele>361.0</ele><time>2026-04-25T15:01:25.463Z</time></trkpt><trkpt lat="45.9823446" lon="11.7495544"><ele>359.0</ele><time>2026-04-25T15:01:27.48Z</time></trkpt><trkpt lat="45.9822112" lon="11.7495902"><ele>357.0</ele><time>2026-04-25T15:01:29.488Z</time></trkpt><trkpt lat="45.9821445" lon="11.7495988"><ele>355.0</ele><time>2026-04-25T15:01:31.487Z</time></trkpt><trkpt lat="45.9821924" lon="11.7495154"><ele>355.0</ele><time>2026-04-25T15:01:38.491Z</time></trkpt><trkpt lat="45.9822629" lon="11.7493848"><ele>355.0</ele><time>2026-04-25T15:01:40.45Z</time></trkpt><trkpt lat="45.982303" lon="11.7492555"><ele>355.0</ele><time>2026-04-25T15:01:41.469Z</time></trkpt><trkpt lat="45.9823438" lon="11.7491312"><ele>355.0</ele><time>2026-04-25T15:01:42.474Z</time></trkpt><trkpt lat="45.9823829" lon="11.7490575"><ele>355.0</ele><time>2026-04-25T15:01:43.491Z</time></trkpt><trkpt lat="45.9823976" lon="11.7489431"><ele>353.5</ele><time>2026-04-25T15:01:46.48Z</time></trkpt><trkpt lat="45.9823343" lon="11.7488789"><ele>352.0</ele><time>2026-04-25T15:01:48.489Z</time></trkpt><trkpt lat="45.9822528" lon="11.7489218"><ele>350.5</ele><time>2026-04-25T15:01:51.489Z</time></trkpt><trkpt lat="45.9821763" lon="11.7488734"><ele>349.0</ele><time>2026-04-25T15:01:53.479Z</time></trkpt><trkpt lat="45.9821125" lon="11.7487509"><ele>347.5</ele><time>2026-04-25T15:01:55.483Z</time></trkpt><trkpt lat="45.9820812" lon="11.7486392"><ele>346.0</ele><time>2026-04-25T15:01:56.478Z</time></trkpt><trkpt lat="45.9820579" lon="11.7485289"><ele>343.20000000000005</ele><time>2026-04-25T15:01:57.475Z</time></trkpt><trkpt lat="45.9820355" lon="11.7484428"><ele>340.40000000000003</ele><time>2026-04-25T15:01:58.458Z</time></trkpt><trkpt lat="45.9819936" lon="11.7483405"><ele>337.6</ele><time>2026-04-25T15:02:00.487Z</time></trkpt><trkpt lat="45.981958" lon="11.7482091"><ele>334.8</ele><time>2026-04-25T15:02:03.461Z</time></trkpt><trkpt lat="45.9819442" lon="11.7480578"><ele>332.0</ele><time>2026-04-25T15:02:05.481Z</time></trkpt><trkpt lat="45.9819816" lon="11.7478784"><ele>332.0</ele><time>2026-04-25T15:02:07.472Z</time></trkpt><trkpt lat="45.9819925" lon="11.7477772"><ele>332.0</ele><time>2026-04-25T15:02:08.492Z</time></trkpt><trkpt lat="45.9820084" lon="11.7476738"><ele>332.0</ele><time>2026-04-25T15:02:09.488Z</time></trkpt><trkpt lat="45.9820224" lon="11.7475692"><ele>332.0</ele><time>2026-04-25T15:02:10.492Z</time></trkpt><trkpt lat="45.9820322" lon="11.7474628"><ele>332.0</ele><time>2026-04-25T15:02:11.485Z</time></trkpt><trkpt lat="45.9820461" lon="11.7473506"><ele>332.0</ele><time>2026-04-25T15:02:12.48Z</time></trkpt><trkpt lat="45.9820526" lon="11.7472268"><ele>331.83333333333337</ele><time>2026-04-25T15:02:13.486Z</time></trkpt><trkpt lat="45.9820556" lon="11.7471056"><ele>331.6666666666667</ele><time>2026-04-25T15:02:14.482Z</time></trkpt><trkpt lat="45.9820567" lon="11.7469852"><ele>331.5</ele><time>2026-04-25T15:02:15.473Z</time></trkpt><trkpt lat="45.9820537" lon="11.7468707"><ele>331.3333333333333</ele><time>2026-04-25T15:02:16.453Z</time></trkpt><trkpt lat="45.9820519" lon="11.746749"><ele>331.16666666666663</ele><time>2026-04-25T15:02:17.495Z</time></trkpt><trkpt lat="45.9820526" lon="11.7466413"><ele>331.0</ele><time>2026-04-25T15:02:18.489Z</time></trkpt><trkpt lat="45.9820781" lon="11.7464789"><ele>331.0</ele><time>2026-04-25T15:02:20.481Z</time></trkpt><trkpt lat="45.9821128" lon="11.7463811"><ele>331.0</ele><time>2026-04-25T15:02:22.476Z</time></trkpt><trkpt lat="45.9820885" lon="11.7462477"><ele>331.0</ele><time>2026-04-25T15:02:25.475Z</time></trkpt><trkpt lat="45.982053" lon="11.7461633"><ele>331.0</ele><time>2026-04-25T15:02:26.465Z</time></trkpt><trkpt lat="45.9820151" lon="11.7460605"><ele>331.0</ele><time>2026-04-25T15:02:27.48Z</time></trkpt><trkpt lat="45.9819827" lon="11.7459807"><ele>331.0</ele><time>2026-04-25T15:02:28.491Z</time></trkpt><trkpt lat="45.9819608" lon="11.7458899"><ele>332.16666666666663</ele><time>2026-04-25T15:02:29.478Z</time></trkpt><trkpt lat="45.9819432" lon="11.7457718"><ele>333.3333333333333</ele><time>2026-04-25T15:02:30.489Z</time></trkpt><trkpt lat="45.981922" lon="11.7456489"><ele>334.5</ele><time>2026-04-25T15:02:31.486Z</time></trkpt><trkpt lat="45.9819135" lon="11.7455024"><ele>335.6666666666667</ele><time>2026-04-25T15:02:33.473Z</time></trkpt><trkpt lat="45.981888" lon="11.7456114"><ele>336.83333333333337</ele><time>2026-04-25T15:02:37.493Z</time></trkpt><trkpt lat="45.9818341" lon="11.7456592"><ele>338.0</ele><time>2026-04-25T15:02:39.486Z</time></trkpt><trkpt lat="45.9817475" lon="11.745731"><ele>340.79999999999995</ele><time>2026-04-25T15:02:41.481Z</time></trkpt><trkpt lat="45.9816648" lon="11.7457738"><ele>343.6</ele><time>2026-04-25T15:02:43.485Z</time></trkpt><trkpt lat="45.9815826" lon="11.7457426"><ele>346.4</ele><time>2026-04-25T15:02:46.496Z</time></trkpt><trkpt lat="45.9814908" lon="11.7457052"><ele>349.20000000000005</ele><time>2026-04-25T15:02:49.475Z</time></trkpt><trkpt lat="45.9814089" lon="11.7457565"><ele>352.0</ele><time>2026-04-25T15:02:52.485Z</time></trkpt><trkpt lat="45.9813175" lon="11.7458377"><ele>352.0</ele><time>2026-04-25T15:02:54.483Z</time></trkpt><trkpt lat="45.9812103" lon="11.7458776"><ele>352.0</ele><time>2026-04-25T15:02:55.485Z</time></trkpt><trkpt lat="45.9811079" lon="11.7459347"><ele>352.0</ele><time>2026-04-25T15:02:56.486Z</time></trkpt><trkpt lat="45.9809645" lon="11.7460283"><ele>352.0</ele><time>2026-04-25T15:02:57.487Z</time></trkpt><trkpt lat="45.9808418" lon="11.7461124"><ele>352.0</ele><time>2026-04-25T15:02:58.443Z</time></trkpt><trkpt lat="45.9807254" lon="11.7461895"><ele>352.0</ele><time>2026-04-25T15:02:59.486Z</time></trkpt><trkpt lat="45.9806243" lon="11.7462445"><ele>352.0</ele><time>2026-04-25T15:03:00.474Z</time></trkpt><trkpt lat="45.9805509" lon="11.7462858"><ele>352.0</ele><time>2026-04-25T15:03:01.463Z</time></trkpt><trkpt lat="45.9804376" lon="11.7463363"><ele>352.0</ele><time>2026-04-25T15:03:03.469Z</time></trkpt><trkpt lat="45.9805463" lon="11.746053"><ele>355.20000000000005</ele><time>2026-04-25T15:03:09.476Z</time></trkpt><trkpt lat="45.980576" lon="11.7459606"><ele>358.4</ele><time>2026-04-25T15:03:10.478Z</time></trkpt><trkpt lat="45.9806076" lon="11.745852"><ele>361.6</ele><time>2026-04-25T15:03:11.457Z</time></trkpt><trkpt lat="45.9806468" lon="11.7457105"><ele>364.79999999999995</ele><time>2026-04-25T15:03:12.501Z</time></trkpt><trkpt lat="45.9806787" lon="11.7455839"><ele>368.0</ele><time>2026-04-25T15:03:13.486Z</time></trkpt><trkpt lat="45.9807153" lon="11.7454481"><ele>368.0</ele><time>2026-04-25T15:03:14.478Z</time></trkpt><trkpt lat="45.9807443" lon="11.745312"><ele>368.0</ele><time>2026-04-25T15:03:15.481Z</time></trkpt><trkpt lat="45.9807722" lon="11.7451831"><ele>368.0</ele><time>2026-04-25T15:03:16.483Z</time></trkpt><trkpt lat="45.9807948" lon="11.7450622"><ele>368.0</ele><time>2026-04-25T15:03:17.476Z</time></trkpt><trkpt lat="45.9808091" lon="11.7449444"><ele>368.0</ele><time>2026-04-25T15:03:18.449Z</time></trkpt><trkpt lat="45.9808295" lon="11.7448417"><ele>368.0</ele><time>2026-04-25T15:03:19.48Z</time></trkpt><trkpt lat="45.9808483" lon="11.744745"><ele>368.33333333333337</ele><time>2026-04-25T15:03:20.476Z</time></trkpt><trkpt lat="45.9808637" lon="11.7446455"><ele>368.6666666666667</ele><time>2026-04-25T15:03:21.45Z</time></trkpt><trkpt lat="45.9808844" lon="11.7445448"><ele>369.0</ele><time>2026-04-25T15:03:22.473Z</time></trkpt><trkpt lat="45.9809152" lon="11.7444517"><ele>369.3333333333333</ele><time>2026-04-25T15:03:23.492Z</time></trkpt><trkpt lat="45.9809821" lon="11.7443026"><ele>369.66666666666663</ele><time>2026-04-25T15:03:25.477Z</time></trkpt><trkpt lat="45.9810079" lon="11.7441735"><ele>370.0</ele><time>2026-04-25T15:03:27.478Z</time></trkpt><trkpt lat="45.9810365" lon="11.7440728"><ele>373.5</ele><time>2026-04-25T15:03:30.479Z</time></trkpt><trkpt lat="45.9809283" lon="11.7441382"><ele>377.0</ele><time>2026-04-25T15:03:34.484Z</time></trkpt><trkpt lat="45.9808606" lon="11.7441718"><ele>380.5</ele><time>2026-04-25T15:03:36.463Z</time></trkpt><trkpt lat="45.9809256" lon="11.7442238"><ele>384.0</ele><time>2026-04-25T15:03:40.501Z</time></trkpt><trkpt lat="45.9808601" lon="11.7442303"><ele>387.50000000000006</ele><time>2026-04-25T15:03:48.476Z</time></trkpt><trkpt lat="45.9807586" lon="11.7442928"><ele>391.0</ele><time>2026-04-25T15:03:52.475Z</time></trkpt><trkpt lat="45.9806359" lon="11.7443758"><ele>391.6</ele><time>2026-04-25T15:03:54.471Z</time></trkpt><trkpt lat="45.9805542" lon="11.74443"><ele>392.20000000000005</ele><time>2026-04-25T15:03:55.471Z</time></trkpt><trkpt lat="45.9804719" lon="11.744496"><ele>392.79999999999995</ele><time>2026-04-25T15:03:56.475Z</time></trkpt><trkpt lat="45.9803926" lon="11.7445688"><ele>393.4</ele><time>2026-04-25T15:03:57.498Z</time></trkpt><trkpt lat="45.9802908" lon="11.7446367"><ele>394.0</ele><time>2026-04-25T15:03:59.489Z</time></trkpt><trkpt lat="45.9802326" lon="11.7446944"><ele>394.0</ele><time>2026-04-25T15:04:00.485Z</time></trkpt><trkpt lat="45.9801701" lon="11.7447873"><ele>394.0</ele><time>2026-04-25T15:04:02.476Z</time></trkpt><trkpt lat="45.9800891" lon="11.7448122"><ele>394.0</ele><time>2026-04-25T15:04:04.47Z</time></trkpt><trkpt lat="45.980011" lon="11.7448475"><ele>394.0</ele><time>2026-04-25T15:04:05.479Z</time></trkpt><trkpt lat="45.9798924" lon="11.74487"><ele>394.0</ele><time>2026-04-25T15:04:06.491Z</time></trkpt><trkpt lat="45.979793" lon="11.7448752"><ele>402.25</ele><time>2026-04-25T15:04:07.478Z</time></trkpt><trkpt lat="45.9796901" lon="11.7448715"><ele>410.5</ele><time>2026-04-25T15:04:08.455Z</time></trkpt><trkpt lat="45.9795423" lon="11.7448999"><ele>418.75</ele><time>2026-04-25T15:04:09.462Z</time></trkpt><trkpt lat="45.9793814" lon="11.7449292"><ele>427.0</ele><time>2026-04-25T15:04:10.49Z</time></trkpt><trkpt lat="45.9792525" lon="11.7449391"><ele>438.33333333333337</ele><time>2026-04-25T15:04:11.479Z</time></trkpt><trkpt lat="45.9790699" lon="11.7449777"><ele>449.66666666666663</ele><time>2026-04-25T15:04:12.486Z</time></trkpt><trkpt lat="45.9788357" lon="11.7450305"><ele>461.0</ele><time>2026-04-25T15:04:13.487Z</time></trkpt><trkpt lat="45.9786367" lon="11.7450806"><ele>461.0</ele><time>2026-04-25T15:04:14.502Z</time></trkpt><trkpt lat="45.9784787" lon="11.7451244"><ele>461.0</ele><time>2026-04-25T15:04:15.479Z</time></trkpt><trkpt lat="45.9783353" lon="11.7451466"><ele>461.0</ele><time>2026-04-25T15:04:16.482Z</time></trkpt><trkpt lat="45.9782072" lon="11.7451557"><ele>461.0</ele><time>2026-04-25T15:04:17.484Z</time></trkpt><trkpt lat="45.9780644" lon="11.7451519"><ele>468.20000000000005</ele><time>2026-04-25T15:04:18.503Z</time></trkpt><trkpt lat="45.9779569" lon="11.7451419"><ele>475.40000000000003</ele><time>2026-04-25T15:04:19.506Z</time></trkpt><trkpt lat="45.9778815" lon="11.7451186"><ele>482.6</ele><time>2026-04-25T15:04:20.517Z</time></trkpt><trkpt lat="45.9777749" lon="11.7450557"><ele>489.8</ele><time>2026-04-25T15:04:22.546Z</time></trkpt><trkpt lat="45.9778246" lon="11.7449355"><ele>497.0</ele><time>2026-04-25T15:04:23.54Z</time></trkpt><trkpt lat="45.9778748" lon="11.7450054"><ele>497.0</ele><time>2026-04-25T15:04:30.548Z</time></trkpt><trkpt lat="45.978015" lon="11.7450001"><ele>497.0</ele><time>2026-04-25T15:04:33.543Z</time></trkpt><trkpt lat="45.9780894" lon="11.7449831"><ele>497.0</ele><time>2026-04-25T15:04:35.549Z</time></trkpt><trkpt lat="45.9782579" lon="11.7450195"><ele>497.0</ele><time>2026-04-25T15:04:47.506Z</time></trkpt><trkpt lat="45.9783785" lon="11.7450438"><ele>491.66666666666663</ele><time>2026-04-25T15:05:12.538Z</time></trkpt><trkpt lat="45.9784771" lon="11.7450185"><ele>486.3333333333333</ele><time>2026-04-25T15:05:19.533Z</time></trkpt><trkpt lat="45.9784753" lon="11.7451143"><ele>481.0</ele><time>2026-04-25T15:05:46.547Z</time></trkpt><trkpt lat="45.9784449" lon="11.7452356"><ele>475.66666666666663</ele><time>2026-04-25T15:05:49.535Z</time></trkpt><trkpt lat="45.978425" lon="11.7453303"><ele>470.3333333333333</ele><time>2026-04-25T15:05:50.539Z</time></trkpt><trkpt lat="45.9783577" lon="11.7454692"><ele>465.0</ele><time>2026-04-25T15:05:52.534Z</time></trkpt><trkpt lat="45.9782879" lon="11.7455226"><ele>465.0</ele><time>2026-04-25T15:05:53.543Z</time></trkpt><trkpt lat="45.9782252" lon="11.7455593"><ele>465.0</ele><time>2026-04-25T15:05:54.529Z</time></trkpt><trkpt lat="45.9781475" lon="11.7456488"><ele>465.0</ele><time>2026-04-25T15:05:56.54Z</time></trkpt><trkpt lat="45.9781036" lon="11.7457193"><ele>465.0</ele><time>2026-04-25T15:05:57.543Z</time></trkpt><trkpt lat="45.9780295" lon="11.745779"><ele>465.0</ele><time>2026-04-25T15:06:01.546Z</time></trkpt><trkpt lat="45.9779605" lon="11.7457621"><ele>465.0</ele><time>2026-04-25T15:06:02.542Z</time></trkpt><trkpt lat="45.9778945" lon="11.7456946"><ele>465.0</ele><time>2026-04-25T15:06:05.552Z</time></trkpt><trkpt lat="45.9778383" lon="11.7458381"><ele>465.0</ele><time>2026-04-25T15:06:10.537Z</time></trkpt><trkpt lat="45.9777905" lon="11.7459552"><ele>465.0</ele><time>2026-04-25T15:06:12.542Z</time></trkpt><trkpt lat="45.9777715" lon="11.746058"><ele>465.0</ele><time>2026-04-25T15:06:14.531Z</time></trkpt><trkpt lat="45.9777683" lon="11.7461712"><ele>465.0</ele><time>2026-04-25T15:06:15.541Z</time></trkpt><trkpt lat="45.9777242" lon="11.7462622"><ele>465.0</ele><time>2026-04-25T15:06:16.521Z</time></trkpt><trkpt lat="45.9776753" lon="11.7463331"><ele>465.6</ele><time>2026-04-25T15:06:17.544Z</time></trkpt><trkpt lat="45.977606" lon="11.7463914"><ele>466.2</ele><time>2026-04-25T15:06:18.544Z</time></trkpt><trkpt lat="45.977496" lon="11.7464814"><ele>466.79999999999995</ele><time>2026-04-25T15:06:19.565Z</time></trkpt><trkpt lat="45.9774025" lon="11.7465076"><ele>467.4</ele><time>2026-04-25T15:06:21.54Z</time></trkpt><trkpt lat="45.9773155" lon="11.7464345"><ele>468.0</ele><time>2026-04-25T15:06:23.548Z</time></trkpt><trkpt lat="45.9772572" lon="11.7463718"><ele>468.0</ele><time>2026-04-25T15:06:24.519Z</time></trkpt><trkpt lat="45.9771845" lon="11.7462908"><ele>467.99999999999994</ele><time>2026-04-25T15:06:25.533Z</time></trkpt><trkpt lat="45.9771137" lon="11.7461837"><ele>467.99999999999994</ele><time>2026-04-25T15:06:26.551Z</time></trkpt><trkpt lat="45.9770441" lon="11.7460417"><ele>468.0</ele><time>2026-04-25T15:06:27.543Z</time></trkpt><trkpt lat="45.9770021" lon="11.7459061"><ele>468.0</ele><time>2026-04-25T15:06:28.499Z</time></trkpt><trkpt lat="45.9770164" lon="11.7457799"><ele>474.3333333333333</ele><time>2026-04-25T15:06:30.505Z</time></trkpt><trkpt lat="45.9770403" lon="11.7456921"><ele>480.66666666666663</ele><time>2026-04-25T15:06:31.538Z</time></trkpt><trkpt lat="45.977097" lon="11.7456254"><ele>487.0</ele><time>2026-04-25T15:06:32.543Z</time></trkpt><trkpt lat="45.9771475" lon="11.7455279"><ele>493.3333333333333</ele><time>2026-04-25T15:06:33.524Z</time></trkpt><trkpt lat="45.977195" lon="11.7454245"><ele>499.66666666666663</ele><time>2026-04-25T15:06:34.526Z</time></trkpt><trkpt lat="45.9772574" lon="11.7452733"><ele>506.0</ele><time>2026-04-25T15:06:35.536Z</time></trkpt><trkpt lat="45.9773103" lon="11.7451519"><ele>509.8333333333333</ele><time>2026-04-25T15:06:36.572Z</time></trkpt><trkpt lat="45.9773313" lon="11.7449977"><ele>513.6666666666666</ele><time>2026-04-25T15:06:38.503Z</time></trkpt><trkpt lat="45.9773528" lon="11.7448995"><ele>517.5</ele><time>2026-04-25T15:06:39.539Z</time></trkpt><trkpt lat="45.9773832" lon="11.7447875"><ele>521.3333333333334</ele><time>2026-04-25T15:06:40.546Z</time></trkpt><trkpt lat="45.9773969" lon="11.7446939"><ele>525.1666666666667</ele><time>2026-04-25T15:06:41.542Z</time></trkpt><trkpt lat="45.9774234" lon="11.7445678"><ele>529.0</ele><time>2026-04-25T15:06:43.536Z</time></trkpt><trkpt lat="45.9774313" lon="11.744445"><ele>529.0</ele><time>2026-04-25T15:06:45.505Z</time></trkpt><trkpt lat="45.9774455" lon="11.7443174"><ele>529.0</ele><time>2026-04-25T15:06:47.537Z</time></trkpt><trkpt lat="45.977459" lon="11.7442267"><ele>529.0</ele><time>2026-04-25T15:06:48.535Z</time></trkpt><trkpt lat="45.9774948" lon="11.7440773"><ele>529.0</ele><time>2026-04-25T15:06:49.528Z</time></trkpt><trkpt lat="45.9775237" lon="11.743967"><ele>529.0</ele><time>2026-04-25T15:06:50.538Z</time></trkpt><trkpt lat="45.9775623" lon="11.7438092"><ele>529.0</ele><time>2026-04-25T15:06:51.525Z</time></trkpt><trkpt lat="45.9775822" lon="11.7436874"><ele>529.0</ele><time>2026-04-25T15:06:52.542Z</time></trkpt><trkpt lat="45.977608" lon="11.7435796"><ele>529.0</ele><time>2026-04-25T15:06:54.553Z</time></trkpt><trkpt lat="45.9776219" lon="11.7434569"><ele>529.0</ele><time>2026-04-25T15:06:57.536Z</time></trkpt><trkpt lat="45.9776348" lon="11.7433641"><ele>529.0</ele><time>2026-04-25T15:06:59.531Z</time></trkpt><trkpt lat="45.97763" lon="11.7432284"><ele>529.0</ele><time>2026-04-25T15:07:02.536Z</time></trkpt><trkpt lat="45.977632" lon="11.7431206"><ele>531.8333333333334</ele><time>2026-04-25T15:07:04.543Z</time></trkpt><trkpt lat="45.9776354" lon="11.7430076"><ele>534.6666666666667</ele><time>2026-04-25T15:07:06.515Z</time></trkpt><trkpt lat="45.9776289" lon="11.7428401"><ele>537.5</ele><time>2026-04-25T15:07:08.553Z</time></trkpt><trkpt lat="45.9776133" lon="11.7427445"><ele>540.3333333333334</ele><time>2026-04-25T15:07:09.542Z</time></trkpt><trkpt lat="45.977603" lon="11.7425968"><ele>543.1666666666666</ele><time>2026-04-25T15:07:10.536Z</time></trkpt><trkpt lat="45.9776011" lon="11.7424972"><ele>546.0</ele><time>2026-04-25T15:07:11.541Z</time></trkpt><trkpt lat="45.9775948" lon="11.7424025"><ele>550.0</ele><time>2026-04-25T15:07:12.535Z</time></trkpt><trkpt lat="45.977577" lon="11.7422641"><ele>554.0</ele><time>2026-04-25T15:07:14.526Z</time></trkpt><trkpt lat="45.9775655" lon="11.742047"><ele>558.0</ele><time>2026-04-25T15:07:16.546Z</time></trkpt><trkpt lat="45.9774812" lon="11.7418484"><ele>562.0</ele><time>2026-04-25T15:07:18.547Z</time></trkpt><trkpt lat="45.9773747" lon="11.7416156"><ele>563.6</ele><time>2026-04-25T15:07:20.552Z</time></trkpt><trkpt lat="45.9773773" lon="11.74147"><ele>565.2</ele><time>2026-04-25T15:07:22.539Z</time></trkpt><trkpt lat="45.977403" lon="11.74135"><ele>566.8</ele><time>2026-04-25T15:07:24.542Z</time></trkpt><trkpt lat="45.977445" lon="11.7412309"><ele>568.4</ele><time>2026-04-25T15:07:26.532Z</time></trkpt><trkpt lat="45.9775976" lon="11.7412083"><ele>570.0</ele><time>2026-04-25T15:07:29.514Z</time></trkpt><trkpt lat="45.9776768" lon="11.7411867"><ele>570.0</ele><time>2026-04-25T15:07:31.545Z</time></trkpt><trkpt lat="45.9776157" lon="11.741283"><ele>570.0</ele><time>2026-04-25T15:07:36.55Z</time></trkpt><trkpt lat="45.9775483" lon="11.7413892"><ele>570.0</ele><time>2026-04-25T15:07:37.538Z</time></trkpt><trkpt lat="45.9777322" lon="11.7413644"><ele>570.0</ele><time>2026-04-25T15:07:46.545Z</time></trkpt><trkpt lat="45.9776434" lon="11.7412838"><ele>570.0</ele><time>2026-04-25T15:07:55.539Z</time></trkpt><trkpt lat="45.9775918" lon="11.7411865"><ele>570.0</ele><time>2026-04-25T15:07:57.503Z</time></trkpt><trkpt lat="45.9775601" lon="11.7410711"><ele>570.0</ele><time>2026-04-25T15:07:59.54Z</time></trkpt><trkpt lat="45.9775251" lon="11.7409686"><ele>570.0</ele><time>2026-04-25T15:08:01.552Z</time></trkpt><trkpt lat="45.9774749" lon="11.7408554"><ele>570.0</ele><time>2026-04-25T15:08:04.531Z</time></trkpt><trkpt lat="45.9774307" lon="11.7407554"><ele>570.0</ele><time>2026-04-25T15:08:06.531Z</time></trkpt><trkpt lat="45.977427" lon="11.7406135"><ele>570.8333333333334</ele><time>2026-04-25T15:08:08.543Z</time></trkpt><trkpt lat="45.9775038" lon="11.7404866"><ele>571.6666666666666</ele><time>2026-04-25T15:08:10.539Z</time></trkpt><trkpt lat="45.9775512" lon="11.7404015"><ele>572.5</ele><time>2026-04-25T15:08:11.54Z</time></trkpt><trkpt lat="45.9775932" lon="11.7403231"><ele>573.3333333333333</ele><time>2026-04-25T15:08:12.545Z</time></trkpt><trkpt lat="45.9776647" lon="11.7402197"><ele>574.1666666666666</ele><time>2026-04-25T15:08:14.547Z</time></trkpt><trkpt lat="45.9777224" lon="11.7401666"><ele>575.0</ele><time>2026-04-25T15:08:15.535Z</time></trkpt><trkpt lat="45.9777995" lon="11.7401317"><ele>577.2</ele><time>2026-04-25T15:08:16.554Z</time></trkpt><trkpt lat="45.9778756" lon="11.7401043"><ele>579.4</ele><time>2026-04-25T15:08:17.554Z</time></trkpt><trkpt lat="45.9779354" lon="11.7400592"><ele>581.6</ele><time>2026-04-25T15:08:18.551Z</time></trkpt><trkpt lat="45.978001" lon="11.7399875"><ele>583.8</ele><time>2026-04-25T15:08:19.522Z</time></trkpt><trkpt lat="45.9780949" lon="11.739911"><ele>586.0</ele><time>2026-04-25T15:08:20.54Z</time></trkpt><trkpt lat="45.9782018" lon="11.7398268"><ele>586.0</ele><time>2026-04-25T15:08:21.529Z</time></trkpt><trkpt lat="45.9782933" lon="11.7397499"><ele>586.0</ele><time>2026-04-25T15:08:22.542Z</time></trkpt><trkpt lat="45.9783716" lon="11.7396854"><ele>586.0</ele><time>2026-04-25T15:08:23.537Z</time></trkpt><trkpt lat="45.9784379" lon="11.7396305"><ele>586.0</ele><time>2026-04-25T15:08:24.551Z</time></trkpt><trkpt lat="45.9784561" lon="11.7395088"><ele>586.0</ele><time>2026-04-25T15:08:26.544Z</time></trkpt><trkpt lat="45.9783791" lon="11.7393849"><ele>587.1666666666667</ele><time>2026-04-25T15:08:28.541Z</time></trkpt><trkpt lat="45.9782962" lon="11.7392971"><ele>588.3333333333334</ele><time>2026-04-25T15:08:29.535Z</time></trkpt><trkpt lat="45.9782751" lon="11.7392032"><ele>589.5</ele><time>2026-04-25T15:08:30.504Z</time></trkpt><trkpt lat="45.9782588" lon="11.7390622"><ele>590.6666666666666</ele><time>2026-04-25T15:08:31.544Z</time></trkpt><trkpt lat="45.9782339" lon="11.7389636"><ele>591.8333333333333</ele><time>2026-04-25T15:08:32.558Z</time></trkpt><trkpt lat="45.9782027" lon="11.7388237"><ele>593.0</ele><time>2026-04-25T15:08:33.539Z</time></trkpt><trkpt lat="45.9781428" lon="11.738627"><ele>593.6</ele><time>2026-04-25T15:08:34.532Z</time></trkpt><trkpt lat="45.978087" lon="11.7384373"><ele>594.1999999999999</ele><time>2026-04-25T15:08:35.53Z</time></trkpt><trkpt lat="45.9780676" lon="11.7383338"><ele>594.8</ele><time>2026-04-25T15:08:36.549Z</time></trkpt><trkpt lat="45.9780603" lon="11.7382352"><ele>595.4</ele><time>2026-04-25T15:08:37.541Z</time></trkpt><trkpt lat="45.9780958" lon="11.7381184"><ele>596.0</ele><time>2026-04-25T15:08:39.54Z</time></trkpt><trkpt lat="45.9781269" lon="11.738021"><ele>596.0</ele><time>2026-04-25T15:08:40.558Z</time></trkpt><trkpt lat="45.9782051" lon="11.7379869"><ele>596.0</ele><time>2026-04-25T15:08:42.543Z</time></trkpt><trkpt lat="45.9783134" lon="11.7378861"><ele>596.0</ele><time>2026-04-25T15:08:44.531Z</time></trkpt><trkpt lat="45.9784072" lon="11.7378368"><ele>596.0</ele><time>2026-04-25T15:08:46.549Z</time></trkpt><trkpt lat="45.9784751" lon="11.7377935"><ele>596.0</ele><time>2026-04-25T15:08:47.536Z</time></trkpt><trkpt lat="45.9785288" lon="11.7377417"><ele>596.0</ele><time>2026-04-25T15:08:48.527Z</time></trkpt><trkpt lat="45.9785837" lon="11.7376926"><ele>598.0</ele><time>2026-04-25T15:08:49.54Z</time></trkpt><trkpt lat="45.978675" lon="11.7376161"><ele>600.0</ele><time>2026-04-25T15:08:51.533Z</time></trkpt><trkpt lat="45.9787648" lon="11.737548"><ele>602.0</ele><time>2026-04-25T15:08:53.532Z</time></trkpt><trkpt lat="45.978837" lon="11.7375094"><ele>604.0</ele><time>2026-04-25T15:08:55.542Z</time></trkpt><trkpt lat="45.9789018" lon="11.737468"><ele>606.0</ele><time>2026-04-25T15:08:57.545Z</time></trkpt><trkpt lat="45.9789998" lon="11.7374242"><ele>606.0</ele><time>2026-04-25T15:08:59.544Z</time></trkpt><trkpt lat="45.979074" lon="11.7373839"><ele>606.0</ele><time>2026-04-25T15:09:01.539Z</time></trkpt><trkpt lat="45.9791923" lon="11.7373621"><ele>606.0</ele><time>2026-04-25T15:09:03.539Z</time></trkpt><trkpt lat="45.9792549" lon="11.7373183"><ele>606.0</ele><time>2026-04-25T15:09:05.533Z</time></trkpt><trkpt lat="45.9793131" lon="11.7372793"><ele>606.0</ele><time>2026-04-25T15:09:07.512Z</time></trkpt><trkpt lat="45.9793771" lon="11.7371842"><ele>606.0</ele><time>2026-04-25T15:09:09.568Z</time></trkpt><trkpt lat="45.9794549" lon="11.7371475"><ele>602.25</ele><time>2026-04-25T15:09:12.537Z</time></trkpt><trkpt lat="45.9795348" lon="11.73707"><ele>598.5</ele><time>2026-04-25T15:09:14.522Z</time></trkpt><trkpt lat="45.979592" lon="11.7369582"><ele>594.75</ele><time>2026-04-25T15:09:15.542Z</time></trkpt><trkpt lat="45.979663" lon="11.7367845"><ele>591.0</ele><time>2026-04-25T15:09:16.539Z</time></trkpt><trkpt lat="45.979697" lon="11.7366127"><ele>591.0</ele><time>2026-04-25T15:09:17.542Z</time></trkpt><trkpt lat="45.9797005" lon="11.7364557"><ele>591.0</ele><time>2026-04-25T15:09:18.537Z</time></trkpt><trkpt lat="45.9796903" lon="11.736353"><ele>591.0</ele><time>2026-04-25T15:09:19.541Z</time></trkpt><trkpt lat="45.9797095" lon="11.7362204"><ele>591.0</ele><time>2026-04-25T15:09:20.537Z</time></trkpt><trkpt lat="45.9797265" lon="11.7360972"><ele>591.0</ele><time>2026-04-25T15:09:21.531Z</time></trkpt><trkpt lat="45.9797272" lon="11.735974"><ele>591.0</ele><time>2026-04-25T15:09:22.545Z</time></trkpt><trkpt lat="45.9797137" lon="11.7358811"><ele>591.8333333333334</ele><time>2026-04-25T15:09:23.537Z</time></trkpt><trkpt lat="45.9796649" lon="11.7357674"><ele>592.6666666666666</ele><time>2026-04-25T15:09:25.511Z</time></trkpt><trkpt lat="45.9795975" lon="11.73573"><ele>593.5</ele><time>2026-04-25T15:09:27.522Z</time></trkpt><trkpt lat="45.979549" lon="11.7356488"><ele>594.3333333333333</ele><time>2026-04-25T15:09:29.541Z</time></trkpt><trkpt lat="45.9794921" lon="11.7355466"><ele>595.1666666666666</ele><time>2026-04-25T15:09:31.559Z</time></trkpt><trkpt lat="45.9794542" lon="11.7354126"><ele>596.0</ele><time>2026-04-25T15:09:35.547Z</time></trkpt><trkpt lat="45.9793881" lon="11.7352711"><ele>598.4</ele><time>2026-04-25T15:09:37.522Z</time></trkpt><trkpt lat="45.9793235" lon="11.7351763"><ele>600.8</ele><time>2026-04-25T15:09:38.541Z</time></trkpt><trkpt lat="45.9792355" lon="11.7351188"><ele>603.1999999999999</ele><time>2026-04-25T15:09:41.51Z</time></trkpt><trkpt lat="45.9792361" lon="11.7349618"><ele>605.6</ele><time>2026-04-25T15:09:43.567Z</time></trkpt><trkpt lat="45.9792439" lon="11.7348257"><ele>608.0</ele><time>2026-04-25T15:09:45.55Z</time></trkpt><trkpt lat="45.9791882" lon="11.734711"><ele>608.5</ele><time>2026-04-25T15:09:47.514Z</time></trkpt><trkpt lat="45.979149" lon="11.734627"><ele>609.0</ele><time>2026-04-25T15:09:48.546Z</time></trkpt><trkpt lat="45.9791121" lon="11.7345454"><ele>609.5</ele><time>2026-04-25T15:09:49.561Z</time></trkpt><trkpt lat="45.979044" lon="11.734535"><ele>610.0</ele><time>2026-04-25T15:09:51.541Z</time></trkpt><trkpt lat="45.9789775" lon="11.7344274"><ele>610.5</ele><time>2026-04-25T15:09:53.546Z</time></trkpt><trkpt lat="45.9788943" lon="11.7343984"><ele>611.0</ele><time>2026-04-25T15:09:54.546Z</time></trkpt><trkpt lat="45.9788499" lon="11.7343059"><ele>613.3333333333333</ele><time>2026-04-25T15:09:57.511Z</time></trkpt><trkpt lat="45.9788268" lon="11.734182"><ele>615.6666666666666</ele><time>2026-04-25T15:09:59.512Z</time></trkpt><trkpt lat="45.978801" lon="11.7340717"><ele>618.0</ele><time>2026-04-25T15:10:02.542Z</time></trkpt><trkpt lat="45.9787413" lon="11.7339814"><ele>620.3333333333334</ele><time>2026-04-25T15:10:06.539Z</time></trkpt><trkpt lat="45.9786882" lon="11.7339057"><ele>622.6666666666667</ele><time>2026-04-25T15:10:08.548Z</time></trkpt><trkpt lat="45.9786337" lon="11.7338443"><ele>625.0</ele><time>2026-04-25T15:10:10.539Z</time></trkpt><trkpt lat="45.9785544" lon="11.7337327"><ele>625.0</ele><time>2026-04-25T15:10:12.541Z</time></trkpt><trkpt lat="45.9785091" lon="11.7336185"><ele>625.0</ele><time>2026-04-25T15:10:17.544Z</time></trkpt><trkpt lat="45.978559" lon="11.7334548"><ele>625.0</ele><time>2026-04-25T15:10:21.558Z</time></trkpt><trkpt lat="45.9785907" lon="11.7333274"><ele>625.0</ele><time>2026-04-25T15:10:22.554Z</time></trkpt><trkpt lat="45.9786289" lon="11.7332064"><ele>625.0</ele><time>2026-04-25T15:10:23.546Z</time></trkpt><trkpt lat="45.9786318" lon="11.7330405"><ele>626.3333333333334</ele><time>2026-04-25T15:10:25.544Z</time></trkpt><trkpt lat="45.9785808" lon="11.7329834"><ele>627.6666666666667</ele><time>2026-04-25T15:10:27.535Z</time></trkpt><trkpt lat="45.9785104" lon="11.7329014"><ele>629.0</ele><time>2026-04-25T15:10:28.539Z</time></trkpt><trkpt lat="45.9784855" lon="11.7328105"><ele>630.3333333333334</ele><time>2026-04-25T15:10:30.549Z</time></trkpt><trkpt lat="45.9784531" lon="11.7327118"><ele>631.6666666666666</ele><time>2026-04-25T15:10:32.556Z</time></trkpt><trkpt lat="45.9783893" lon="11.7326018"><ele>633.0</ele><time>2026-04-25T15:10:35.498Z</time></trkpt><trkpt lat="45.9783321" lon="11.7325312"><ele>634.8</ele><time>2026-04-25T15:10:37.547Z</time></trkpt><trkpt lat="45.9782524" lon="11.7324358"><ele>636.5999999999999</ele><time>2026-04-25T15:10:40.501Z</time></trkpt><trkpt lat="45.9782039" lon="11.7323576"><ele>638.4000000000001</ele><time>2026-04-25T15:10:42.555Z</time></trkpt><trkpt lat="45.9781162" lon="11.7322654"><ele>640.2</ele><time>2026-04-25T15:10:44.551Z</time></trkpt><trkpt lat="45.9780344" lon="11.7322033"><ele>642.0</ele><time>2026-04-25T15:10:47.539Z</time></trkpt><trkpt lat="45.9779209" lon="11.7321391"><ele>642.0</ele><time>2026-04-25T15:10:50.584Z</time></trkpt><trkpt lat="45.977835" lon="11.7320733"><ele>642.0</ele><time>2026-04-25T15:10:52.542Z</time></trkpt><trkpt lat="45.9777419" lon="11.73201"><ele>642.0</ele><time>2026-04-25T15:10:54.54Z</time></trkpt><trkpt lat="45.977656" lon="11.7318931"><ele>642.0</ele><time>2026-04-25T15:10:56.553Z</time></trkpt><trkpt lat="45.9776001" lon="11.7318193"><ele>642.0</ele><time>2026-04-25T15:10:57.555Z</time></trkpt><trkpt lat="45.9775272" lon="11.7317555"><ele>642.8333333333334</ele><time>2026-04-25T15:10:59.549Z</time></trkpt><trkpt lat="45.9774613" lon="11.7316734"><ele>643.6666666666666</ele><time>2026-04-25T15:11:03.553Z</time></trkpt><trkpt lat="45.9773852" lon="11.731617"><ele>644.5</ele><time>2026-04-25T15:11:05.523Z</time></trkpt><trkpt lat="45.9773023" lon="11.7315706"><ele>645.3333333333333</ele><time>2026-04-25T15:11:07.55Z</time></trkpt><trkpt lat="45.9772344" lon="11.7315697"><ele>646.1666666666666</ele><time>2026-04-25T15:11:18.538Z</time></trkpt><trkpt lat="45.9771894" lon="11.7314917"><ele>647.0</ele><time>2026-04-25T15:11:38.547Z</time></trkpt><trkpt lat="45.9771893" lon="11.7313387"><ele>647.0</ele><time>2026-04-25T15:11:41.523Z</time></trkpt><trkpt lat="45.9771983" lon="11.7312466"><ele>647.0</ele><time>2026-04-25T15:11:42.546Z</time></trkpt><trkpt lat="45.9772202" lon="11.7310874"><ele>647.0</ele><time>2026-04-25T15:11:43.558Z</time></trkpt><trkpt lat="45.9772139" lon="11.7309921"><ele>647.0</ele><time>2026-04-25T15:11:44.554Z</time></trkpt><trkpt lat="45.9771886" lon="11.730863"><ele>647.0</ele><time>2026-04-25T15:11:45.543Z</time></trkpt><trkpt lat="45.9771527" lon="11.7307651"><ele>647.0</ele><time>2026-04-25T15:11:46.523Z</time></trkpt><trkpt lat="45.9771178" lon="11.7306567"><ele>646.5</ele><time>2026-04-25T15:11:47.549Z</time></trkpt><trkpt lat="45.9770908" lon="11.7305506"><ele>646.0</ele><time>2026-04-25T15:11:48.551Z</time></trkpt><trkpt lat="45.9770475" lon="11.7304379"><ele>645.5</ele><time>2026-04-25T15:11:49.544Z</time></trkpt><trkpt lat="45.977004" lon="11.7303201"><ele>645.0</ele><time>2026-04-25T15:11:50.549Z</time></trkpt><trkpt lat="45.9769603" lon="11.7302003"><ele>644.5</ele><time>2026-04-25T15:11:51.555Z</time></trkpt><trkpt lat="45.9769219" lon="11.7300807"><ele>644.0</ele><time>2026-04-25T15:11:52.566Z</time></trkpt><trkpt lat="45.9768689" lon="11.7299706"><ele>643.8333333333333</ele><time>2026-04-25T15:11:53.53Z</time></trkpt><trkpt lat="45.9768213" lon="11.7298604"><ele>643.6666666666666</ele><time>2026-04-25T15:11:54.55Z</time></trkpt><trkpt lat="45.9767803" lon="11.7297659"><ele>643.5</ele><time>2026-04-25T15:11:55.514Z</time></trkpt><trkpt lat="45.9767301" lon="11.7296791"><ele>643.3333333333334</ele><time>2026-04-25T15:11:56.555Z</time></trkpt><trkpt lat="45.9766797" lon="11.7296058"><ele>643.1666666666667</ele><time>2026-04-25T15:11:57.542Z</time></trkpt><trkpt lat="45.9766156" lon="11.7295447"><ele>643.0</ele><time>2026-04-25T15:11:58.561Z</time></trkpt><trkpt lat="45.9765325" lon="11.729474"><ele>643.8333333333334</ele><time>2026-04-25T15:12:00.539Z</time></trkpt><trkpt lat="45.9764495" lon="11.7294353"><ele>644.6666666666667</ele><time>2026-04-25T15:12:02.546Z</time></trkpt><trkpt lat="45.9763965" lon="11.7293526"><ele>645.5</ele><time>2026-04-25T15:12:04.549Z</time></trkpt><trkpt lat="45.9763533" lon="11.7292026"><ele>646.3333333333334</ele><time>2026-04-25T15:12:06.565Z</time></trkpt><trkpt lat="45.9763395" lon="11.729087"><ele>647.1666666666666</ele><time>2026-04-25T15:12:08.562Z</time></trkpt><trkpt lat="45.9763753" lon="11.7290072"><ele>648.0</ele><time>2026-04-25T15:12:10.545Z</time></trkpt><trkpt lat="45.9764639" lon="11.7290018"><ele>648.0</ele><time>2026-04-25T15:12:12.544Z</time></trkpt><trkpt lat="45.9765767" lon="11.7290165"><ele>648.0</ele><time>2026-04-25T15:12:14.56Z</time></trkpt><trkpt lat="45.9766631" lon="11.729031"><ele>648.0</ele><time>2026-04-25T15:12:16.531Z</time></trkpt><trkpt lat="45.9767481" lon="11.7289703"><ele>648.0</ele><time>2026-04-25T15:12:18.561Z</time></trkpt><trkpt lat="45.9768338" lon="11.7288775"><ele>648.0</ele><time>2026-04-25T15:12:20.553Z</time></trkpt><trkpt lat="45.9769113" lon="11.7287975"><ele>648.0</ele><time>2026-04-25T15:12:22.52Z</time></trkpt><trkpt lat="45.9769689" lon="11.7287295"><ele>648.0</ele><time>2026-04-25T15:12:25.518Z</time></trkpt><trkpt lat="45.9769028" lon="11.7286841"><ele>648.0</ele><time>2026-04-25T15:12:29.56Z</time></trkpt><trkpt lat="45.9767807" lon="11.7286734"><ele>648.0</ele><time>2026-04-25T15:12:31.541Z</time></trkpt><trkpt lat="45.9766816" lon="11.728711"><ele>648.0</ele><time>2026-04-25T15:12:33.501Z</time></trkpt><trkpt lat="45.9766145" lon="11.7286876"><ele>648.0</ele><time>2026-04-25T15:12:38.548Z</time></trkpt><trkpt lat="45.9765733" lon="11.7286108"><ele>644.5</ele><time>2026-04-25T15:12:47.54Z</time></trkpt><trkpt lat="45.9765044" lon="11.7285514"><ele>641.0</ele><time>2026-04-25T15:12:51.542Z</time></trkpt><trkpt lat="45.9764122" lon="11.728542"><ele>637.5</ele><time>2026-04-25T15:12:53.516Z</time></trkpt><trkpt lat="45.976323" lon="11.7285326"><ele>634.0</ele><time>2026-04-25T15:12:54.541Z</time></trkpt><trkpt lat="45.9762396" lon="11.7284893"><ele>630.5</ele><time>2026-04-25T15:12:56.558Z</time></trkpt><trkpt lat="45.9761772" lon="11.7284381"><ele>627.0</ele><time>2026-04-25T15:12:59.558Z</time></trkpt><trkpt lat="45.9761326" lon="11.7283581"><ele>627.0</ele><time>2026-04-25T15:13:05.51Z</time></trkpt><trkpt lat="45.97605" lon="11.7283009"><ele>627.0</ele><time>2026-04-25T15:13:10.54Z</time></trkpt><trkpt lat="45.9759773" lon="11.7282232"><ele>627.0</ele><time>2026-04-25T15:13:12.548Z</time></trkpt><trkpt lat="45.9759134" lon="11.7281691"><ele>627.0</ele><time>2026-04-25T15:13:14.557Z</time></trkpt><trkpt lat="45.9758206" lon="11.72815"><ele>627.0</ele><time>2026-04-25T15:13:17.557Z</time></trkpt><trkpt lat="45.9757462" lon="11.7281531"><ele>627.0</ele><time>2026-04-25T15:13:20.551Z</time></trkpt><trkpt lat="45.9756623" lon="11.7281454"><ele>627.1428571428571</ele><time>2026-04-25T15:13:23.58Z</time></trkpt><trkpt lat="45.9755947" lon="11.7281485"><ele>627.2857142857142</ele><time>2026-04-25T15:13:34.536Z</time></trkpt><trkpt lat="45.975554" lon="11.7280768"><ele>627.4285714285713</ele><time>2026-04-25T15:13:38.559Z</time></trkpt><trkpt lat="45.9756022" lon="11.7279931"><ele>627.5714285714286</ele><time>2026-04-25T15:13:42.541Z</time></trkpt><trkpt lat="45.9756645" lon="11.7279488"><ele>627.7142857142857</ele><time>2026-04-25T15:13:45.506Z</time></trkpt><trkpt lat="45.975738" lon="11.7279388"><ele>627.8571428571428</ele><time>2026-04-25T15:13:49.553Z</time></trkpt><trkpt lat="45.9756913" lon="11.7280068"><ele>628.0</ele><time>2026-04-25T15:14:06.551Z</time></trkpt><trkpt lat="45.9755985" lon="11.7279665"><ele>628.0</ele><time>2026-04-25T15:14:08.543Z</time></trkpt><trkpt lat="45.9755207" lon="11.7279437"><ele>628.0</ele><time>2026-04-25T15:14:10.551Z</time></trkpt><trkpt lat="45.9754485" lon="11.7279604"><ele>628.0</ele><time>2026-04-25T15:14:13.527Z</time></trkpt><trkpt lat="45.9753679" lon="11.7279311"><ele>628.0</ele><time>2026-04-25T15:14:17.535Z</time></trkpt><trkpt lat="45.9752735" lon="11.7278704"><ele>628.0</ele><time>2026-04-25T15:14:20.542Z</time></trkpt><trkpt lat="45.9752158" lon="11.7278306"><ele>628.0</ele><time>2026-04-25T15:14:21.547Z</time></trkpt><trkpt lat="45.9751544" lon="11.7277912"><ele>628.0</ele><time>2026-04-25T15:14:22.549Z</time></trkpt><trkpt lat="45.9750743" lon="11.7277383"><ele>628.0</ele><time>2026-04-25T15:14:24.552Z</time></trkpt><trkpt lat="45.9750305" lon="11.7276368"><ele>628.0</ele><time>2026-04-25T15:14:27.552Z</time></trkpt><trkpt lat="45.9749869" lon="11.7275513"><ele>628.0</ele><time>2026-04-25T15:14:31.522Z</time></trkpt><trkpt lat="45.9749457" lon="11.7274438"><ele>628.0</ele><time>2026-04-25T15:14:33.517Z</time></trkpt><trkpt lat="45.9748455" lon="11.7273769"><ele>628.0</ele><time>2026-04-25T15:14:35.535Z</time></trkpt><trkpt lat="45.9747608" lon="11.7273409"><ele>625.4285714285713</ele><time>2026-04-25T15:14:37.54Z</time></trkpt><trkpt lat="45.9747083" lon="11.727278"><ele>622.8571428571429</ele><time>2026-04-25T15:14:39.541Z</time></trkpt><trkpt lat="45.9746459" lon="11.7272286"><ele>620.2857142857142</ele><time>2026-04-25T15:14:44.562Z</time></trkpt><trkpt lat="45.97458" lon="11.7271698"><ele>617.7142857142857</ele><time>2026-04-25T15:14:46.542Z</time></trkpt><trkpt lat="45.9745237" lon="11.7271052"><ele>615.1428571428571</ele><time>2026-04-25T15:14:48.55Z</time></trkpt><trkpt lat="45.9744689" lon="11.7270364"><ele>612.5714285714286</ele><time>2026-04-25T15:14:50.546Z</time></trkpt><trkpt lat="45.9743915" lon="11.7269815"><ele>610.0</ele><time>2026-04-25T15:14:53.55Z</time></trkpt><trkpt lat="45.9743372" lon="11.7269222"><ele>610.0</ele><time>2026-04-25T15:14:56.547Z</time></trkpt><trkpt lat="45.9742657" lon="11.72692"><ele>610.0</ele><time>2026-04-25T15:15:02.516Z</time></trkpt><trkpt lat="45.9742868" lon="11.7267886"><ele>610.0</ele><time>2026-04-25T15:15:09.543Z</time></trkpt><trkpt lat="45.9743432" lon="11.7267422"><ele>610.0</ele><time>2026-04-25T15:15:11.543Z</time></trkpt><trkpt lat="45.9744294" lon="11.7267064"><ele>610.0</ele><time>2026-04-25T15:15:14.556Z</time></trkpt><trkpt lat="45.9745023" lon="11.7266613"><ele>610.0</ele><time>2026-04-25T15:15:17.529Z</time></trkpt><trkpt lat="45.9745923" lon="11.7266185"><ele>605.6666666666667</ele><time>2026-04-25T15:15:20.513Z</time></trkpt><trkpt lat="45.9746735" lon="11.7265674"><ele>601.3333333333334</ele><time>2026-04-25T15:15:22.539Z</time></trkpt><trkpt lat="45.9747554" lon="11.7265385"><ele>597.0</ele><time>2026-04-25T15:15:24.555Z</time></trkpt><trkpt lat="45.974849" lon="11.726487"><ele>592.6666666666666</ele><time>2026-04-25T15:15:26.555Z</time></trkpt><trkpt lat="45.9749308" lon="11.7264665"><ele>588.3333333333333</ele><time>2026-04-25T15:15:28.557Z</time></trkpt><trkpt lat="45.9749779" lon="11.7263515"><ele>584.0</ele><time>2026-04-25T15:15:32.557Z</time></trkpt><trkpt lat="45.9749963" lon="11.7262347"><ele>584.0</ele><time>2026-04-25T15:15:35.56Z</time></trkpt><trkpt lat="45.9749916" lon="11.7261359"><ele>584.0</ele><time>2026-04-25T15:15:37.553Z</time></trkpt><trkpt lat="45.9749325" lon="11.7260703"><ele>584.0</ele><time>2026-04-25T15:15:40.514Z</time></trkpt><trkpt lat="45.9748627" lon="11.7260237"><ele>584.0</ele><time>2026-04-25T15:15:51.536Z</time></trkpt><trkpt lat="45.9748876" lon="11.7261231"><ele>584.0</ele><time>2026-04-25T15:15:56.521Z</time></trkpt><trkpt lat="45.974819" lon="11.7260793"><ele>584.0</ele><time>2026-04-25T15:16:01.542Z</time></trkpt><trkpt lat="45.9747728" lon="11.7259795"><ele>578.1666666666666</ele><time>2026-04-25T15:16:04.55Z</time></trkpt><trkpt lat="45.9747572" lon="11.7258599"><ele>572.3333333333333</ele><time>2026-04-25T15:16:07.535Z</time></trkpt><trkpt lat="45.9747554" lon="11.7257554"><ele>566.5</ele><time>2026-04-25T15:16:09.557Z</time></trkpt><trkpt lat="45.9747445" lon="11.7255912"><ele>560.6666666666666</ele><time>2026-04-25T15:16:11.541Z</time></trkpt><trkpt lat="45.9747373" lon="11.7254723"><ele>554.8333333333334</ele><time>2026-04-25T15:16:12.555Z</time></trkpt><trkpt lat="45.9747262" lon="11.7253773"><ele>549.0</ele><time>2026-04-25T15:16:13.545Z</time></trkpt><trkpt lat="45.9747284" lon="11.7252415"><ele>545.7142857142857</ele><time>2026-04-25T15:16:15.535Z</time></trkpt><trkpt lat="45.9747411" lon="11.7251421"><ele>542.4285714285714</ele><time>2026-04-25T15:16:17.539Z</time></trkpt><trkpt lat="45.97469" lon="11.7250835"><ele>539.1428571428571</ele><time>2026-04-25T15:16:20.556Z</time></trkpt><trkpt lat="45.9746368" lon="11.725016"><ele>535.8571428571429</ele><time>2026-04-25T15:16:23.54Z</time></trkpt><trkpt lat="45.9745841" lon="11.7249532"><ele>532.5714285714286</ele><time>2026-04-25T15:16:26.543Z</time></trkpt><trkpt lat="45.9745058" lon="11.7248967"><ele>529.2857142857142</ele><time>2026-04-25T15:16:28.507Z</time></trkpt><trkpt lat="45.9744567" lon="11.7248366"><ele>526.0</ele><time>2026-04-25T15:16:30.536Z</time></trkpt><trkpt lat="45.9743738" lon="11.724764"><ele>526.0</ele><time>2026-04-25T15:16:33.554Z</time></trkpt><trkpt lat="45.9742921" lon="11.7247687"><ele>526.0</ele><time>2026-04-25T15:16:36.555Z</time></trkpt><trkpt lat="45.9741823" lon="11.724781"><ele>526.0</ele><time>2026-04-25T15:16:38.546Z</time></trkpt><trkpt lat="45.9740951" lon="11.724785"><ele>526.0</ele><time>2026-04-25T15:16:41.517Z</time></trkpt><trkpt lat="45.9740268" lon="11.7247193"><ele>526.0</ele><time>2026-04-25T15:16:44.547Z</time></trkpt><trkpt lat="45.9739825" lon="11.7246344"><ele>526.0</ele><time>2026-04-25T15:16:48.543Z</time></trkpt><trkpt lat="45.9739863" lon="11.7245095"><ele>525.8333333333334</ele><time>2026-04-25T15:16:53.51Z</time></trkpt><trkpt lat="45.9740163" lon="11.7244098"><ele>525.6666666666667</ele><time>2026-04-25T15:16:57.56Z</time></trkpt><trkpt lat="45.9740459" lon="11.7242614"><ele>525.5</ele><time>2026-04-25T15:16:59.528Z</time></trkpt><trkpt lat="45.974057" lon="11.7241223"><ele>525.3333333333334</ele><time>2026-04-25T15:17:01.549Z</time></trkpt><trkpt lat="45.9739997" lon="11.7240748"><ele>525.1666666666666</ele><time>2026-04-25T15:17:04.557Z</time></trkpt><trkpt lat="45.9739699" lon="11.7239839"><ele>525.0</ele><time>2026-04-25T15:17:07.559Z</time></trkpt><trkpt lat="45.9739204" lon="11.7239033"><ele>521.0</ele><time>2026-04-25T15:17:10.556Z</time></trkpt><trkpt lat="45.9738421" lon="11.7238567"><ele>517.0</ele><time>2026-04-25T15:17:12.552Z</time></trkpt><trkpt lat="45.9737495" lon="11.7237997"><ele>513.0</ele><time>2026-04-25T15:17:16.554Z</time></trkpt><trkpt lat="45.9736459" lon="11.723789"><ele>509.0</ele><time>2026-04-25T15:17:18.552Z</time></trkpt><trkpt lat="45.9735663" lon="11.7237889"><ele>505.0</ele><time>2026-04-25T15:17:19.552Z</time></trkpt><trkpt lat="45.973499" lon="11.723779"><ele>501.0</ele><time>2026-04-25T15:17:21.571Z</time></trkpt><trkpt lat="45.9734242" lon="11.7236989"><ele>501.0</ele><time>2026-04-25T15:17:30.553Z</time></trkpt><trkpt lat="45.9733581" lon="11.7236438"><ele>501.0</ele><time>2026-04-25T15:17:33.547Z</time></trkpt><trkpt lat="45.9732861" lon="11.7236075"><ele>501.0</ele><time>2026-04-25T15:17:35.552Z</time></trkpt><trkpt lat="45.9732278" lon="11.7235633"><ele>501.0</ele><time>2026-04-25T15:17:38.552Z</time></trkpt><trkpt lat="45.9731653" lon="11.7235017"><ele>501.0</ele><time>2026-04-25T15:17:41.547Z</time></trkpt><trkpt lat="45.973103" lon="11.7234878"><ele>501.0</ele><time>2026-04-25T15:17:42.552Z</time></trkpt><trkpt lat="45.9730132" lon="11.7234641"><ele>501.0</ele><time>2026-04-25T15:17:44.555Z</time></trkpt><trkpt lat="45.9729075" lon="11.7234481"><ele>494.1666666666667</ele><time>2026-04-25T15:17:46.545Z</time></trkpt><trkpt lat="45.9728402" lon="11.7234355"><ele>487.33333333333337</ele><time>2026-04-25T15:17:47.522Z</time></trkpt><trkpt lat="45.9727589" lon="11.7234363"><ele>480.5</ele><time>2026-04-25T15:17:48.49Z</time></trkpt><trkpt lat="45.9726502" lon="11.7234166"><ele>473.6666666666667</ele><time>2026-04-25T15:17:50.486Z</time></trkpt><trkpt lat="45.972562" lon="11.7234231"><ele>466.83333333333337</ele><time>2026-04-25T15:17:52.501Z</time></trkpt><trkpt lat="45.9724678" lon="11.7234526"><ele>460.0</ele><time>2026-04-25T15:17:54.49Z</time></trkpt><trkpt lat="45.9724251" lon="11.7233824"><ele>457.50000000000006</ele><time>2026-04-25T15:18:04.494Z</time></trkpt><trkpt lat="45.9724491" lon="11.7232582"><ele>455.0</ele><time>2026-04-25T15:18:09.477Z</time></trkpt><trkpt lat="45.9723764" lon="11.7232731"><ele>452.5</ele><time>2026-04-25T15:18:14.506Z</time></trkpt><trkpt lat="45.9722778" lon="11.7232455"><ele>450.0</ele><time>2026-04-25T15:18:18.505Z</time></trkpt><trkpt lat="45.972194" lon="11.7232562"><ele>447.50000000000006</ele><time>2026-04-25T15:18:26.481Z</time></trkpt><trkpt lat="45.9721399" lon="11.7232093"><ele>445.0</ele><time>2026-04-25T15:18:33.497Z</time></trkpt><trkpt lat="45.9721608" lon="11.7230858"><ele>445.0</ele><time>2026-04-25T15:18:53.5Z</time></trkpt><trkpt lat="45.9721648" lon="11.7229951"><ele>445.0</ele><time>2026-04-25T15:18:58.495Z</time></trkpt><trkpt lat="45.9721229" lon="11.7229268"><ele>445.0</ele><time>2026-04-25T15:19:00.497Z</time></trkpt><trkpt lat="45.9720629" lon="11.7228707"><ele>445.0</ele><time>2026-04-25T15:19:02.506Z</time></trkpt><trkpt lat="45.9719909" lon="11.7228303"><ele>445.0</ele><time>2026-04-25T15:19:04.501Z</time></trkpt><trkpt lat="45.9719136" lon="11.7229028"><ele>445.0</ele><time>2026-04-25T15:19:09.491Z</time></trkpt><trkpt lat="45.971837" lon="11.7228787"><ele>445.0</ele><time>2026-04-25T15:19:11.486Z</time></trkpt><trkpt lat="45.9717723" lon="11.7227936"><ele>440.8571428571429</ele><time>2026-04-25T15:19:13.495Z</time></trkpt><trkpt lat="45.9717604" lon="11.722695"><ele>436.71428571428567</ele><time>2026-04-25T15:19:15.51Z</time></trkpt><trkpt lat="45.9717522" lon="11.7225971"><ele>432.57142857142856</ele><time>2026-04-25T15:19:17.494Z</time></trkpt><trkpt lat="45.9717496" lon="11.7224866"><ele>428.42857142857144</ele><time>2026-04-25T15:19:19.511Z</time></trkpt><trkpt lat="45.9717406" lon="11.7223945"><ele>424.28571428571433</ele><time>2026-04-25T15:19:21.506Z</time></trkpt><trkpt lat="45.9717363" lon="11.7222907"><ele>420.1428571428571</ele><time>2026-04-25T15:19:24.496Z</time></trkpt><trkpt lat="45.9717197" lon="11.7222033"><ele>416.0</ele><time>2026-04-25T15:19:27.516Z</time></trkpt><trkpt lat="45.9717053" lon="11.722111"><ele>416.3333333333333</ele><time>2026-04-25T15:19:31.495Z</time></trkpt><trkpt lat="45.9716604" lon="11.7220448"><ele>416.66666666666663</ele><time>2026-04-25T15:19:34.472Z</time></trkpt><trkpt lat="45.9716077" lon="11.7219952"><ele>417.0</ele><time>2026-04-25T15:19:36.479Z</time></trkpt><trkpt lat="45.9715503" lon="11.7218766"><ele>417.33333333333337</ele><time>2026-04-25T15:19:38.488Z</time></trkpt><trkpt lat="45.9714885" lon="11.721775"><ele>417.6666666666667</ele><time>2026-04-25T15:19:40.492Z</time></trkpt><trkpt lat="45.9715865" lon="11.7217095"><ele>418.0</ele><time>2026-04-25T15:19:41.497Z</time></trkpt><trkpt lat="45.9715702" lon="11.7216215"><ele>415.33333333333337</ele><time>2026-04-25T15:19:44.523Z</time></trkpt><trkpt lat="45.9715066" lon="11.7215396"><ele>412.6666666666667</ele><time>2026-04-25T15:19:46.503Z</time></trkpt><trkpt lat="45.9714305" lon="11.721483"><ele>410.0</ele><time>2026-04-25T15:19:48.507Z</time></trkpt><trkpt lat="45.9713725" lon="11.721425"><ele>407.33333333333337</ele><time>2026-04-25T15:19:50.5Z</time></trkpt><trkpt lat="45.9713705" lon="11.7213152"><ele>404.6666666666667</ele><time>2026-04-25T15:19:53.484Z</time></trkpt><trkpt lat="45.9713781" lon="11.7212011"><ele>402.0</ele><time>2026-04-25T15:19:56.531Z</time></trkpt><trkpt lat="45.9712508" lon="11.7211524"><ele>402.0</ele><time>2026-04-25T15:19:59.511Z</time></trkpt><trkpt lat="45.9711906" lon="11.7211006"><ele>402.0</ele><time>2026-04-25T15:20:01.497Z</time></trkpt><trkpt lat="45.9711201" lon="11.7211171"><ele>402.0</ele><time>2026-04-25T15:21:43.507Z</time></trkpt><trkpt lat="45.9710176" lon="11.7211891"><ele>402.0</ele><time>2026-04-25T15:21:45.483Z</time></trkpt><trkpt lat="45.970932" lon="11.7212625"><ele>402.0</ele><time>2026-04-25T15:21:47.505Z</time></trkpt><trkpt lat="45.9708537" lon="11.7213173"><ele>402.0</ele><time>2026-04-25T15:21:49.497Z</time></trkpt><trkpt lat="45.9707684" lon="11.7214324"><ele>402.20000000000005</ele><time>2026-04-25T15:21:51.504Z</time></trkpt><trkpt lat="45.9707014" lon="11.7214974"><ele>402.4</ele><time>2026-04-25T15:21:52.493Z</time></trkpt><trkpt lat="45.9706231" lon="11.7215544"><ele>402.6</ele><time>2026-04-25T15:21:53.502Z</time></trkpt><trkpt lat="45.9705256" lon="11.7216222"><ele>402.79999999999995</ele><time>2026-04-25T15:21:54.496Z</time></trkpt><trkpt lat="45.9703972" lon="11.7217251"><ele>403.0</ele><time>2026-04-25T15:21:55.524Z</time></trkpt><trkpt lat="45.9702763" lon="11.7218341"><ele>407.0</ele><time>2026-04-25T15:21:56.497Z</time></trkpt><trkpt lat="45.9701936" lon="11.7219057"><ele>411.0</ele><time>2026-04-25T15:21:57.501Z</time></trkpt><trkpt lat="45.9701328" lon="11.7219577"><ele>415.0</ele><time>2026-04-25T15:21:59.522Z</time></trkpt><trkpt lat="45.9701651" lon="11.7220553"><ele>419.0</ele><time>2026-04-25T15:22:01.512Z</time></trkpt><trkpt lat="45.9702514" lon="11.7222129"><ele>423.0</ele><time>2026-04-25T15:22:03.503Z</time></trkpt><trkpt lat="45.9702793" lon="11.7223313"><ele>423.0</ele><time>2026-04-25T15:22:04.524Z</time></trkpt><trkpt lat="45.9702963" lon="11.7224568"><ele>423.0</ele><time>2026-04-25T15:22:05.499Z</time></trkpt><trkpt lat="45.9702877" lon="11.722606"><ele>423.0</ele><time>2026-04-25T15:22:06.497Z</time></trkpt><trkpt lat="45.9702663" lon="11.7227167"><ele>423.0</ele><time>2026-04-25T15:22:07.518Z</time></trkpt><trkpt lat="45.9701696" lon="11.7227426"><ele>423.0</ele><time>2026-04-25T15:22:11.504Z</time></trkpt><trkpt lat="45.9701029" lon="11.7227235"><ele>423.0</ele><time>2026-04-25T15:22:12.506Z</time></trkpt><trkpt lat="45.9700048" lon="11.72268"><ele>423.0</ele><time>2026-04-25T15:22:13.498Z</time></trkpt><trkpt lat="45.9698975" lon="11.7226823"><ele>423.0</ele><time>2026-04-25T15:22:14.506Z</time></trkpt><trkpt lat="45.9698253" lon="11.7226922"><ele>423.0</ele><time>2026-04-25T15:22:15.505Z</time></trkpt><trkpt lat="45.9697294" lon="11.7227135"><ele>423.0</ele><time>2026-04-25T15:22:16.515Z</time></trkpt><trkpt lat="45.9696465" lon="11.7227415"><ele>423.0</ele><time>2026-04-25T15:22:17.485Z</time></trkpt><trkpt lat="45.9695442" lon="11.7227655"><ele>427.79999999999995</ele><time>2026-04-25T15:22:18.486Z</time></trkpt><trkpt lat="45.9694466" lon="11.7228162"><ele>432.6</ele><time>2026-04-25T15:22:19.502Z</time></trkpt><trkpt lat="45.9693479" lon="11.7228638"><ele>437.40000000000003</ele><time>2026-04-25T15:22:20.506Z</time></trkpt><trkpt lat="45.9692532" lon="11.722883"><ele>442.20000000000005</ele><time>2026-04-25T15:22:21.493Z</time></trkpt><trkpt lat="45.969164" lon="11.7229032"><ele>447.0</ele><time>2026-04-25T15:22:22.502Z</time></trkpt><trkpt lat="45.9690995" lon="11.7228916"><ele>446.5</ele><time>2026-04-25T15:22:23.488Z</time></trkpt><trkpt lat="45.9689958" lon="11.7228032"><ele>446.0</ele><time>2026-04-25T15:22:25.509Z</time></trkpt><trkpt lat="45.9689294" lon="11.7228051"><ele>445.5</ele><time>2026-04-25T15:22:27.497Z</time></trkpt><trkpt lat="45.9688644" lon="11.7227863"><ele>445.0</ele><time>2026-04-25T15:22:28.484Z</time></trkpt><trkpt lat="45.9688062" lon="11.7227185"><ele>444.5</ele><time>2026-04-25T15:22:29.487Z</time></trkpt><trkpt lat="45.9687666" lon="11.7226346"><ele>444.0</ele><time>2026-04-25T15:22:30.492Z</time></trkpt><trkpt lat="45.9687047" lon="11.7225981"><ele>444.0</ele><time>2026-04-25T15:22:31.502Z</time></trkpt><trkpt lat="45.9685808" lon="11.722521"><ele>444.0</ele><time>2026-04-25T15:22:33.508Z</time></trkpt><trkpt lat="45.9685662" lon="11.7224044"><ele>444.0</ele><time>2026-04-25T15:22:35.504Z</time></trkpt><trkpt lat="45.9685148" lon="11.7223339"><ele>444.0</ele><time>2026-04-25T15:22:36.51Z</time></trkpt><trkpt lat="45.9682604" lon="11.7222907"><ele>445.66666666666663</ele><time>2026-04-25T15:22:37.505Z</time></trkpt><trkpt lat="45.9681178" lon="11.722288"><ele>447.3333333333333</ele><time>2026-04-25T15:22:38.515Z</time></trkpt><trkpt lat="45.9679678" lon="11.722296"><ele>449.0</ele><time>2026-04-25T15:22:39.472Z</time></trkpt><trkpt lat="45.9678687" lon="11.7217434"><ele>449.0</ele><time>2026-04-25T15:22:40.498Z</time></trkpt><trkpt lat="45.9677396" lon="11.7217114"><ele>449.0</ele><time>2026-04-25T15:22:41.503Z</time></trkpt><trkpt lat="45.9676257" lon="11.7216766"><ele>449.0</ele><time>2026-04-25T15:22:42.509Z</time></trkpt><trkpt lat="45.9675584" lon="11.7216314"><ele>449.0</ele><time>2026-04-25T15:22:43.503Z</time></trkpt><trkpt lat="45.9674862" lon="11.7215922"><ele>449.0</ele><time>2026-04-25T15:22:44.492Z</time></trkpt><trkpt lat="45.9674091" lon="11.7215738"><ele>453.49999999999994</ele><time>2026-04-25T15:22:45.494Z</time></trkpt><trkpt lat="45.9673467" lon="11.7215158"><ele>458.0</ele><time>2026-04-25T15:22:46.496Z</time></trkpt><trkpt lat="45.9672901" lon="11.7214681"><ele>462.5</ele><time>2026-04-25T15:22:47.515Z</time></trkpt><trkpt lat="45.9672308" lon="11.7214365"><ele>467.0</ele><time>2026-04-25T15:22:48.497Z</time></trkpt><trkpt lat="45.9671459" lon="11.7213248"><ele>471.49999999999994</ele><time>2026-04-25T15:22:50.499Z</time></trkpt><trkpt lat="45.9670607" lon="11.7212831"><ele>476.0</ele><time>2026-04-25T15:22:51.497Z</time></trkpt><trkpt lat="45.9669698" lon="11.7212389"><ele>476.0</ele><time>2026-04-25T15:22:52.456Z</time></trkpt><trkpt lat="45.9669086" lon="11.7212145"><ele>476.0</ele><time>2026-04-25T15:22:53.495Z</time></trkpt><trkpt lat="45.9668303" lon="11.7211861"><ele>476.0</ele><time>2026-04-25T15:22:54.51Z</time></trkpt><trkpt lat="45.9667539" lon="11.721149"><ele>476.0</ele><time>2026-04-25T15:22:55.507Z</time></trkpt><trkpt lat="45.9666331" lon="11.7210692"><ele>476.0</ele><time>2026-04-25T15:22:57.508Z</time></trkpt><trkpt lat="45.9665379" lon="11.7209861"><ele>475.20000000000005</ele><time>2026-04-25T15:22:59.496Z</time></trkpt><trkpt lat="45.9664588" lon="11.7209736"><ele>474.40000000000003</ele><time>2026-04-25T15:23:00.508Z</time></trkpt><trkpt lat="45.9663451" lon="11.720952"><ele>473.6</ele><time>2026-04-25T15:23:02.468Z</time></trkpt><trkpt lat="45.9662079" lon="11.7208733"><ele>472.8</ele><time>2026-04-25T15:23:04.502Z</time></trkpt><trkpt lat="45.9661294" lon="11.7208466"><ele>472.0</ele><time>2026-04-25T15:23:05.503Z</time></trkpt><trkpt lat="45.9660295" lon="11.7208235"><ele>472.0</ele><time>2026-04-25T15:23:06.49Z</time></trkpt><trkpt lat="45.9659238" lon="11.720792"><ele>472.0</ele><time>2026-04-25T15:23:07.51Z</time></trkpt><trkpt lat="45.9657946" lon="11.7207382"><ele>472.0</ele><time>2026-04-25T15:23:08.512Z</time></trkpt><trkpt lat="45.965675" lon="11.7206968"><ele>472.0</ele><time>2026-04-25T15:23:09.5Z</time></trkpt><trkpt lat="45.9655561" lon="11.7206555"><ele>478.75</ele><time>2026-04-25T15:23:10.499Z</time></trkpt><trkpt lat="45.9654375" lon="11.7205936"><ele>485.5</ele><time>2026-04-25T15:23:11.5Z</time></trkpt><trkpt lat="45.9653235" lon="11.7205035"><ele>492.25</ele><time>2026-04-25T15:23:12.54Z</time></trkpt><trkpt lat="45.9652377" lon="11.7204131"><ele>499.0</ele><time>2026-04-25T15:23:13.503Z</time></trkpt><trkpt lat="45.96516" lon="11.7203285"><ele>499.00000000000006</ele><time>2026-04-25T15:23:14.51Z</time></trkpt><trkpt lat="45.9650873" lon="11.7202909"><ele>499.0</ele><time>2026-04-25T15:23:16.502Z</time></trkpt><trkpt lat="45.9650225" lon="11.7202735"><ele>499.0</ele><time>2026-04-25T15:23:18.505Z</time></trkpt><trkpt lat="45.9649419" lon="11.7201936"><ele>499.0</ele><time>2026-04-25T15:23:20.508Z</time></trkpt><trkpt lat="45.964912" lon="11.7201117"><ele>499.00000000000006</ele><time>2026-04-25T15:23:23.49Z</time></trkpt><trkpt lat="45.9648436" lon="11.7200534"><ele>499.0</ele><time>2026-04-25T15:23:27.515Z</time></trkpt><trkpt lat="45.9647708" lon="11.7200072"><ele>500.33333333333337</ele><time>2026-04-25T15:23:30.518Z</time></trkpt><trkpt lat="45.9646999" lon="11.7199869"><ele>501.6666666666667</ele><time>2026-04-25T15:23:31.494Z</time></trkpt><trkpt lat="45.9646282" lon="11.7199715"><ele>503.0</ele><time>2026-04-25T15:23:32.515Z</time></trkpt><trkpt lat="45.9645215" lon="11.7199851"><ele>504.33333333333337</ele><time>2026-04-25T15:23:34.51Z</time></trkpt><trkpt lat="45.964454" lon="11.7199697"><ele>505.6666666666667</ele><time>2026-04-25T15:23:35.504Z</time></trkpt><trkpt lat="45.9643919" lon="11.7199467"><ele>507.0</ele><time>2026-04-25T15:23:36.54Z</time></trkpt><trkpt lat="45.9642799" lon="11.7199078"><ele>511.6</ele><time>2026-04-25T15:23:37.51Z</time></trkpt><trkpt lat="45.9641897" lon="11.7198498"><ele>516.2</ele><time>2026-04-25T15:23:38.506Z</time></trkpt><trkpt lat="45.9640801" lon="11.7198022"><ele>520.8</ele><time>2026-04-25T15:23:39.503Z</time></trkpt><trkpt lat="45.9639855" lon="11.7197867"><ele>525.4</ele><time>2026-04-25T15:23:40.503Z</time></trkpt><trkpt lat="45.9639" lon="11.719743"><ele>530.0</ele><time>2026-04-25T15:23:42.503Z</time></trkpt><trkpt lat="45.9637896" lon="11.7197527"><ele>530.0</ele><time>2026-04-25T15:23:44.507Z</time></trkpt><trkpt lat="45.9636754" lon="11.7197341"><ele>530.0</ele><time>2026-04-25T15:23:45.477Z</time></trkpt><trkpt lat="45.9635993" lon="11.7197385"><ele>530.0</ele><time>2026-04-25T15:23:46.507Z</time></trkpt><trkpt lat="45.963495" lon="11.7197293"><ele>530.0</ele><time>2026-04-25T15:23:48.495Z</time></trkpt><trkpt lat="45.9634077" lon="11.7196953"><ele>530.0</ele><time>2026-04-25T15:23:50.466Z</time></trkpt><trkpt lat="45.9633397" lon="11.7196859"><ele>529.6</ele><time>2026-04-25T15:23:58.517Z</time></trkpt><trkpt lat="45.9632815" lon="11.7196292"><ele>529.2</ele><time>2026-04-25T15:24:00.494Z</time></trkpt><trkpt lat="45.9632125" lon="11.7195507"><ele>528.8</ele><time>2026-04-25T15:24:02.491Z</time></trkpt><trkpt lat="45.9631494" lon="11.719551"><ele>528.4</ele><time>2026-04-25T15:24:04.506Z</time></trkpt><trkpt lat="45.9631031" lon="11.7194856"><ele>528.0</ele><time>2026-04-25T15:24:06.48Z</time></trkpt><trkpt lat="45.9629247" lon="11.7193125"><ele>528.0</ele><time>2026-04-25T15:24:09.517Z</time></trkpt><trkpt lat="45.9628349" lon="11.719258"><ele>528.0</ele><time>2026-04-25T15:24:10.559Z</time></trkpt><trkpt lat="45.9627688" lon="11.719209"><ele>528.0</ele><time>2026-04-25T15:24:11.553Z</time></trkpt><trkpt lat="45.9626929" lon="11.7191638"><ele>528.0</ele><time>2026-04-25T15:24:12.563Z</time></trkpt><trkpt lat="45.9626102" lon="11.7191191"><ele>528.0</ele><time>2026-04-25T15:24:13.568Z</time></trkpt><trkpt lat="45.9625342" lon="11.719076"><ele>528.0</ele><time>2026-04-25T15:24:14.551Z</time></trkpt><trkpt lat="45.9624734" lon="11.7190442"><ele>529.1999999999999</ele><time>2026-04-25T15:24:15.569Z</time></trkpt><trkpt lat="45.9624012" lon="11.7190171"><ele>530.4</ele><time>2026-04-25T15:24:16.559Z</time></trkpt><trkpt lat="45.9623233" lon="11.7189831"><ele>531.5999999999999</ele><time>2026-04-25T15:24:17.559Z</time></trkpt><trkpt lat="45.9622039" lon="11.7189229"><ele>532.8</ele><time>2026-04-25T15:24:19.569Z</time></trkpt><trkpt lat="45.9620832" lon="11.7188534"><ele>534.0</ele><time>2026-04-25T15:24:21.567Z</time></trkpt><trkpt lat="45.962024" lon="11.7188042"><ele>534.0</ele><time>2026-04-25T15:24:22.563Z</time></trkpt><trkpt lat="45.9619693" lon="11.7187489"><ele>534.0</ele><time>2026-04-25T15:24:23.561Z</time></trkpt><trkpt lat="45.9619035" lon="11.7186221"><ele>534.0</ele><time>2026-04-25T15:24:25.564Z</time></trkpt><trkpt lat="45.9618745" lon="11.7184839"><ele>534.0</ele><time>2026-04-25T15:24:27.571Z</time></trkpt><trkpt lat="45.9618839" lon="11.7183802"><ele>534.0</ele><time>2026-04-25T15:24:29.529Z</time></trkpt><trkpt lat="45.9618225" lon="11.7183497"><ele>534.0</ele><time>2026-04-25T15:24:33.513Z</time></trkpt><trkpt lat="45.9617926" lon="11.7184364"><ele>534.0</ele><time>2026-04-25T15:24:34.506Z</time></trkpt><trkpt lat="45.9617773" lon="11.7185582"><ele>534.0</ele><time>2026-04-25T15:24:35.517Z</time></trkpt><trkpt lat="45.9617556" lon="11.7186976"><ele>534.0</ele><time>2026-04-25T15:24:36.851Z</time></trkpt><trkpt lat="45.9617485" lon="11.7188546"><ele>534.0</ele><time>2026-04-25T15:24:38.566Z</time></trkpt><trkpt lat="45.9617608" lon="11.718947"><ele>534.0</ele><time>2026-04-25T15:24:40.57Z</time></trkpt><trkpt lat="45.961822" lon="11.7190461"><ele>534.0</ele><time>2026-04-25T15:24:42.558Z</time></trkpt><trkpt lat="45.9618781" lon="11.7191384"><ele>534.0</ele><time>2026-04-25T15:24:43.559Z</time></trkpt><trkpt lat="45.961914" lon="11.7192154"><ele>534.0</ele><time>2026-04-25T15:24:44.575Z</time></trkpt><trkpt lat="45.9619579" lon="11.7193232"><ele>534.0</ele><time>2026-04-25T15:24:46.523Z</time></trkpt><trkpt lat="45.9620163" lon="11.7194392"><ele>534.0</ele><time>2026-04-25T15:24:48.553Z</time></trkpt><trkpt lat="45.9620752" lon="11.7195184"><ele>534.0</ele><time>2026-04-25T15:24:50.55Z</time></trkpt><trkpt lat="45.9621341" lon="11.7196423"><ele>538.3333333333334</ele><time>2026-04-25T15:24:53.564Z</time></trkpt><trkpt lat="45.9620964" lon="11.7197265"><ele>542.6666666666666</ele><time>2026-04-25T15:24:57.568Z</time></trkpt><trkpt lat="45.9620183" lon="11.7197896"><ele>547.0</ele><time>2026-04-25T15:25:00.543Z</time></trkpt><trkpt lat="45.9619765" lon="11.7198647"><ele>551.3333333333333</ele><time>2026-04-25T15:25:05.515Z</time></trkpt><trkpt lat="45.9619016" lon="11.7199822"><ele>555.6666666666666</ele><time>2026-04-25T15:25:08.49Z</time></trkpt><trkpt lat="45.9618507" lon="11.7201047"><ele>560.0</ele><time>2026-04-25T15:25:11.526Z</time></trkpt><trkpt lat="45.9618594" lon="11.7202681"><ele>565.2</ele><time>2026-04-25T15:25:13.503Z</time></trkpt><trkpt lat="45.9618719" lon="11.7203621"><ele>570.4</ele><time>2026-04-25T15:25:14.505Z</time></trkpt><trkpt lat="45.961884" lon="11.7204584"><ele>575.6</ele><time>2026-04-25T15:25:15.517Z</time></trkpt><trkpt lat="45.9619606" lon="11.720544"><ele>580.8</ele><time>2026-04-25T15:25:18.466Z</time></trkpt><trkpt lat="45.9621163" lon="11.7206269"><ele>586.0</ele><time>2026-04-25T15:25:20.471Z</time></trkpt><trkpt lat="45.9622174" lon="11.7206555"><ele>586.0</ele><time>2026-04-25T15:25:21.492Z</time></trkpt><trkpt lat="45.962301" lon="11.7206606"><ele>586.0</ele><time>2026-04-25T15:25:22.508Z</time></trkpt><trkpt lat="45.9624171" lon="11.7206793"><ele>586.0</ele><time>2026-04-25T15:25:24.509Z</time></trkpt><trkpt lat="45.9624848" lon="11.7207144"><ele>586.0</ele><time>2026-04-25T15:25:25.501Z</time></trkpt><trkpt lat="45.9625318" lon="11.7207835"><ele>586.0</ele><time>2026-04-25T15:25:26.486Z</time></trkpt><trkpt lat="45.9625836" lon="11.7208694"><ele>586.0</ele><time>2026-04-25T15:25:27.521Z</time></trkpt><trkpt lat="45.9626892" lon="11.7210067"><ele>589.4</ele><time>2026-04-25T15:25:29.502Z</time></trkpt><trkpt lat="45.9627772" lon="11.7210692"><ele>592.8</ele><time>2026-04-25T15:25:31.5Z</time></trkpt><trkpt lat="45.9628394" lon="11.7211733"><ele>596.1999999999999</ele><time>2026-04-25T15:25:33.512Z</time></trkpt><trkpt lat="45.962894" lon="11.7212831"><ele>599.6</ele><time>2026-04-25T15:25:36.5Z</time></trkpt><trkpt lat="45.9628977" lon="11.7213801"><ele>603.0</ele><time>2026-04-25T15:25:38.518Z</time></trkpt><trkpt lat="45.962967" lon="11.721573"><ele>603.0</ele><time>2026-04-25T15:25:40.507Z</time></trkpt><trkpt lat="45.9630218" lon="11.7216745"><ele>603.0</ele><time>2026-04-25T15:25:41.495Z</time></trkpt><trkpt lat="45.9630833" lon="11.7217681"><ele>603.0</ele><time>2026-04-25T15:25:42.51Z</time></trkpt><trkpt lat="45.9630805" lon="11.7218655"><ele>603.0</ele><time>2026-04-25T15:25:45.497Z</time></trkpt><trkpt lat="45.9630187" lon="11.7219605"><ele>603.0</ele><time>2026-04-25T15:25:47.502Z</time></trkpt><trkpt lat="45.9630214" lon="11.7221348"><ele>606.6</ele><time>2026-04-25T15:25:49.5Z</time></trkpt><trkpt lat="45.9630346" lon="11.7222339"><ele>610.1999999999999</ele><time>2026-04-25T15:25:50.502Z</time></trkpt><trkpt lat="45.9631829" lon="11.7223023"><ele>613.8</ele><time>2026-04-25T15:25:56.512Z</time></trkpt><trkpt lat="45.9632435" lon="11.7223755"><ele>617.4</ele><time>2026-04-25T15:25:58.487Z</time></trkpt><trkpt lat="45.9633163" lon="11.7224195"><ele>621.0</ele><time>2026-04-25T15:26:00.509Z</time></trkpt><trkpt lat="45.9633874" lon="11.7224602"><ele>621.0</ele><time>2026-04-25T15:26:02.481Z</time></trkpt><trkpt lat="45.9634955" lon="11.7224129"><ele>621.0</ele><time>2026-04-25T15:26:13.501Z</time></trkpt><trkpt lat="45.9634357" lon="11.7224603"><ele>621.0</ele><time>2026-04-25T15:26:25.505Z</time></trkpt><trkpt lat="45.9634847" lon="11.7225546"><ele>621.0</ele><time>2026-04-25T15:26:32.543Z</time></trkpt><trkpt lat="45.9635252" lon="11.7224759"><ele>621.0</ele><time>2026-04-25T15:26:36.477Z</time></trkpt><trkpt lat="45.9636834" lon="11.722562"><ele>621.0</ele><time>2026-04-25T15:31:14.47Z</time></trkpt><trkpt lat="45.9637773" lon="11.7226249"><ele>621.0</ele><time>2026-04-25T15:31:15.487Z</time></trkpt><trkpt lat="45.9639029" lon="11.7227138"><ele>621.0</ele><time>2026-04-25T15:31:16.514Z</time></trkpt><trkpt lat="45.9640006" lon="11.7227931"><ele>621.0</ele><time>2026-04-25T15:31:17.508Z</time></trkpt><trkpt lat="45.9640871" lon="11.7228657"><ele>621.8</ele><time>2026-04-25T15:31:18.501Z</time></trkpt><trkpt lat="45.9641693" lon="11.7229313"><ele>622.6</ele><time>2026-04-25T15:31:19.511Z</time></trkpt><trkpt lat="45.9642558" lon="11.7229992"><ele>623.4</ele><time>2026-04-25T15:31:20.509Z</time></trkpt><trkpt lat="45.9643415" lon="11.7230637"><ele>624.2</ele><time>2026-04-25T15:31:21.504Z</time></trkpt><trkpt lat="45.9644219" lon="11.723119"><ele>625.0</ele><time>2026-04-25T15:31:22.48Z</time></trkpt><trkpt lat="45.9645004" lon="11.7231705"><ele>625.0</ele><time>2026-04-25T15:31:23.498Z</time></trkpt><trkpt lat="45.9645746" lon="11.7232201"><ele>625.0</ele><time>2026-04-25T15:31:24.509Z</time></trkpt><trkpt lat="45.9646456" lon="11.7232796"><ele>625.0</ele><time>2026-04-25T15:31:25.512Z</time></trkpt><trkpt lat="45.9647157" lon="11.7233429"><ele>625.0</ele><time>2026-04-25T15:31:26.512Z</time></trkpt><trkpt lat="45.96478" lon="11.7234134"><ele>625.0</ele><time>2026-04-25T15:31:27.507Z</time></trkpt><trkpt lat="45.9648377" lon="11.723495"><ele>625.0</ele><time>2026-04-25T15:31:28.471Z</time></trkpt><trkpt lat="45.964896" lon="11.7235964"><ele>623.6</ele><time>2026-04-25T15:31:29.479Z</time></trkpt><trkpt lat="45.9649503" lon="11.723712"><ele>622.2</ele><time>2026-04-25T15:31:30.473Z</time></trkpt><trkpt lat="45.9650097" lon="11.7238375"><ele>620.8</ele><time>2026-04-25T15:31:31.508Z</time></trkpt><trkpt lat="45.965067" lon="11.7239602"><ele>619.4</ele><time>2026-04-25T15:31:32.53Z</time></trkpt><trkpt lat="45.9651258" lon="11.7240761"><ele>618.0</ele><time>2026-04-25T15:31:33.485Z</time></trkpt><trkpt lat="45.9651926" lon="11.7241965"><ele>618.0</ele><time>2026-04-25T15:31:34.518Z</time></trkpt><trkpt lat="45.9652605" lon="11.7242936"><ele>618.0</ele><time>2026-04-25T15:31:35.507Z</time></trkpt><trkpt lat="45.9653341" lon="11.7243796"><ele>618.0</ele><time>2026-04-25T15:31:36.515Z</time></trkpt><trkpt lat="45.9654049" lon="11.7244581"><ele>618.0</ele><time>2026-04-25T15:31:37.494Z</time></trkpt><trkpt lat="45.9654807" lon="11.724534"><ele>618.0</ele><time>2026-04-25T15:31:38.522Z</time></trkpt><trkpt lat="45.9655589" lon="11.7246063"><ele>616.0</ele><time>2026-04-25T15:31:39.512Z</time></trkpt><trkpt lat="45.9656377" lon="11.7246774"><ele>614.0</ele><time>2026-04-25T15:31:40.481Z</time></trkpt><trkpt lat="45.9657215" lon="11.7247531"><ele>612.0</ele><time>2026-04-25T15:31:41.501Z</time></trkpt><trkpt lat="45.9658038" lon="11.7248312"><ele>610.0</ele><time>2026-04-25T15:31:42.514Z</time></trkpt><trkpt lat="45.9658825" lon="11.7249056"><ele>608.0</ele><time>2026-04-25T15:31:43.514Z</time></trkpt><trkpt lat="45.9659542" lon="11.7249841"><ele>608.0</ele><time>2026-04-25T15:31:44.481Z</time></trkpt><trkpt lat="45.9660273" lon="11.725072"><ele>608.0</ele><time>2026-04-25T15:31:45.473Z</time></trkpt><trkpt lat="45.9660978" lon="11.7251676"><ele>608.0</ele><time>2026-04-25T15:31:46.504Z</time></trkpt><trkpt lat="45.9661568" lon="11.7252673"><ele>608.0</ele><time>2026-04-25T15:31:47.515Z</time></trkpt><trkpt lat="45.9662073" lon="11.7253731"><ele>608.0</ele><time>2026-04-25T15:31:48.503Z</time></trkpt><trkpt lat="45.9662492" lon="11.7254889"><ele>614.8</ele><time>2026-04-25T15:31:49.483Z</time></trkpt><trkpt lat="45.9662895" lon="11.7256161"><ele>621.5999999999999</ele><time>2026-04-25T15:31:50.484Z</time></trkpt><trkpt lat="45.9663272" lon="11.725755"><ele>628.4000000000001</ele><time>2026-04-25T15:31:51.506Z</time></trkpt><trkpt lat="45.9663675" lon="11.7258999"><ele>635.2</ele><time>2026-04-25T15:31:52.523Z</time></trkpt><trkpt lat="45.966405" lon="11.7260397"><ele>642.0</ele><time>2026-04-25T15:31:53.515Z</time></trkpt><trkpt lat="45.966446" lon="11.7261778"><ele>646.6</ele><time>2026-04-25T15:31:54.503Z</time></trkpt><trkpt lat="45.9664919" lon="11.7263205"><ele>651.2</ele><time>2026-04-25T15:31:55.538Z</time></trkpt><trkpt lat="45.9665395" lon="11.7264548"><ele>655.8</ele><time>2026-04-25T15:31:56.559Z</time></trkpt><trkpt lat="45.9665875" lon="11.7265758"><ele>660.4</ele><time>2026-04-25T15:31:57.518Z</time></trkpt><trkpt lat="45.9666411" lon="11.7267032"><ele>665.0</ele><time>2026-04-25T15:31:58.531Z</time></trkpt><trkpt lat="45.966691" lon="11.7268311"><ele>661.6</ele><time>2026-04-25T15:31:59.508Z</time></trkpt><trkpt lat="45.9667402" lon="11.7269742"><ele>658.2</ele><time>2026-04-25T15:32:00.507Z</time></trkpt><trkpt lat="45.9667843" lon="11.727124"><ele>654.8</ele><time>2026-04-25T15:32:01.507Z</time></trkpt><trkpt lat="45.9668212" lon="11.727273"><ele>651.4</ele><time>2026-04-25T15:32:02.502Z</time></trkpt><trkpt lat="45.9668485" lon="11.7274235"><ele>648.0</ele><time>2026-04-25T15:32:03.522Z</time></trkpt><trkpt lat="45.9668646" lon="11.7275648"><ele>648.0</ele><time>2026-04-25T15:32:04.495Z</time></trkpt><trkpt lat="45.9668766" lon="11.727705"><ele>648.0</ele><time>2026-04-25T15:32:05.545Z</time></trkpt><trkpt lat="45.9668854" lon="11.7278218"><ele>648.0</ele><time>2026-04-25T15:32:06.511Z</time></trkpt><trkpt lat="45.9668972" lon="11.7279328"><ele>648.0</ele><time>2026-04-25T15:32:07.508Z</time></trkpt><trkpt lat="45.9669118" lon="11.7280459"><ele>648.0</ele><time>2026-04-25T15:32:08.515Z</time></trkpt><trkpt lat="45.9669252" lon="11.7281627"><ele>648.0</ele><time>2026-04-25T15:32:09.525Z</time></trkpt><trkpt lat="45.9669321" lon="11.7282755"><ele>649.6666666666666</ele><time>2026-04-25T15:32:10.477Z</time></trkpt><trkpt lat="45.966936" lon="11.7283964"><ele>651.3333333333334</ele><time>2026-04-25T15:32:11.522Z</time></trkpt><trkpt lat="45.9669327" lon="11.7285034"><ele>653.0</ele><time>2026-04-25T15:32:12.508Z</time></trkpt><trkpt lat="45.9669266" lon="11.7286145"><ele>654.6666666666667</ele><time>2026-04-25T15:32:13.504Z</time></trkpt><trkpt lat="45.9669144" lon="11.7287225"><ele>656.3333333333334</ele><time>2026-04-25T15:32:14.507Z</time></trkpt><trkpt lat="45.9668961" lon="11.7288265"><ele>658.0</ele><time>2026-04-25T15:32:15.521Z</time></trkpt><trkpt lat="45.9668739" lon="11.7289265"><ele>659.8</ele><time>2026-04-25T15:32:16.494Z</time></trkpt><trkpt lat="45.9668445" lon="11.7290384"><ele>661.5999999999999</ele><time>2026-04-25T15:32:17.506Z</time></trkpt><trkpt lat="45.9667993" lon="11.7291501"><ele>663.4000000000001</ele><time>2026-04-25T15:32:18.515Z</time></trkpt><trkpt lat="45.966746" lon="11.7292615"><ele>665.2</ele><time>2026-04-25T15:32:19.497Z</time></trkpt><trkpt lat="45.9666862" lon="11.7293753"><ele>667.0</ele><time>2026-04-25T15:32:20.515Z</time></trkpt><trkpt lat="45.9666245" lon="11.7294838"><ele>668.0</ele><time>2026-04-25T15:32:21.515Z</time></trkpt><trkpt lat="45.9665622" lon="11.7295887"><ele>669.0</ele><time>2026-04-25T15:32:22.494Z</time></trkpt><trkpt lat="45.9665023" lon="11.7296982"><ele>670.0</ele><time>2026-04-25T15:32:23.526Z</time></trkpt><trkpt lat="45.9664509" lon="11.7297988"><ele>671.0</ele><time>2026-04-25T15:32:24.515Z</time></trkpt><trkpt lat="45.9664076" lon="11.7298943"><ele>672.0</ele><time>2026-04-25T15:32:25.518Z</time></trkpt><trkpt lat="45.9663728" lon="11.7299736"><ele>673.0</ele><time>2026-04-25T15:32:26.516Z</time></trkpt><trkpt lat="45.9663107" lon="11.7301076"><ele>674.0</ele><time>2026-04-25T15:32:28.516Z</time></trkpt><trkpt lat="45.9662442" lon="11.7302352"><ele>675.0</ele><time>2026-04-25T15:32:30.504Z</time></trkpt><trkpt lat="45.9661706" lon="11.7303201"><ele>676.0</ele><time>2026-04-25T15:32:32.507Z</time></trkpt><trkpt lat="45.9660867" lon="11.7303487"><ele>677.0</ele><time>2026-04-25T15:32:34.517Z</time></trkpt><trkpt lat="45.9659953" lon="11.7303662"><ele>678.0</ele><time>2026-04-25T15:32:36.525Z</time></trkpt><trkpt lat="45.965922" lon="11.7303553"><ele>678.0</ele><time>2026-04-25T15:32:39.498Z</time></trkpt><trkpt lat="45.9658668" lon="11.7302975"><ele>678.0</ele><time>2026-04-25T15:32:41.499Z</time></trkpt><trkpt lat="45.9657982" lon="11.7302183"><ele>678.0</ele><time>2026-04-25T15:32:43.472Z</time></trkpt><trkpt lat="45.9657358" lon="11.7301675"><ele>678.0</ele><time>2026-04-25T15:32:45.504Z</time></trkpt><trkpt lat="45.9657005" lon="11.730259"><ele>678.0</ele><time>2026-04-25T15:32:49.475Z</time></trkpt><trkpt lat="45.9656039" lon="11.7303074"><ele>678.0</ele><time>2026-04-25T15:32:52.506Z</time></trkpt><trkpt lat="45.9655079" lon="11.7303403"><ele>680.0</ele><time>2026-04-25T15:32:53.509Z</time></trkpt><trkpt lat="45.9654092" lon="11.7303728"><ele>682.0</ele><time>2026-04-25T15:32:54.505Z</time></trkpt><trkpt lat="45.9653084" lon="11.730415"><ele>684.0</ele><time>2026-04-25T15:32:55.505Z</time></trkpt><trkpt lat="45.9652351" lon="11.7304486"><ele>686.0</ele><time>2026-04-25T15:32:56.528Z</time></trkpt><trkpt lat="45.9651585" lon="11.7304911"><ele>688.0</ele><time>2026-04-25T15:32:57.5Z</time></trkpt><trkpt lat="45.9650764" lon="11.7305695"><ele>697.5</ele><time>2026-04-25T15:32:59.498Z</time></trkpt><trkpt lat="45.9649961" lon="11.7306426"><ele>707.0</ele><time>2026-04-25T15:33:01.524Z</time></trkpt><trkpt lat="45.9648961" lon="11.7307903"><ele>716.5</ele><time>2026-04-25T15:33:03.513Z</time></trkpt><trkpt lat="45.9648316" lon="11.7309158"><ele>726.0</ele><time>2026-04-25T15:33:04.548Z</time></trkpt><trkpt lat="45.9647745" lon="11.7310401"><ele>723.4</ele><time>2026-04-25T15:33:05.544Z</time></trkpt><trkpt lat="45.9647279" lon="11.7311678"><ele>720.8</ele><time>2026-04-25T15:33:06.513Z</time></trkpt><trkpt lat="45.9647195" lon="11.7313316"><ele>718.1999999999999</ele><time>2026-04-25T15:33:07.517Z</time></trkpt><trkpt lat="45.9646981" lon="11.7314882"><ele>715.5999999999999</ele><time>2026-04-25T15:33:08.506Z</time></trkpt><trkpt lat="45.9646703" lon="11.7316373"><ele>713.0</ele><time>2026-04-25T15:33:09.495Z</time></trkpt><trkpt lat="45.9646417" lon="11.7317819"><ele>710.5999999999999</ele><time>2026-04-25T15:33:10.507Z</time></trkpt><trkpt lat="45.9646059" lon="11.7319225"><ele>708.1999999999999</ele><time>2026-04-25T15:33:11.535Z</time></trkpt><trkpt lat="45.9645639" lon="11.7320476"><ele>705.8</ele><time>2026-04-25T15:33:12.508Z</time></trkpt><trkpt lat="45.9645209" lon="11.7321816"><ele>703.4</ele><time>2026-04-25T15:33:13.508Z</time></trkpt><trkpt lat="45.9644808" lon="11.7323134"><ele>701.0</ele><time>2026-04-25T15:33:14.528Z</time></trkpt><trkpt lat="45.9644225" lon="11.7324304"><ele>701.0</ele><time>2026-04-25T15:33:15.51Z</time></trkpt><trkpt lat="45.9643687" lon="11.7325412"><ele>701.0</ele><time>2026-04-25T15:33:16.492Z</time></trkpt><trkpt lat="45.9643106" lon="11.7326547"><ele>701.0</ele><time>2026-04-25T15:33:17.557Z</time></trkpt><trkpt lat="45.9642355" lon="11.7327438"><ele>701.0</ele><time>2026-04-25T15:33:18.512Z</time></trkpt><trkpt lat="45.9641568" lon="11.7328566"><ele>701.0</ele><time>2026-04-25T15:33:19.534Z</time></trkpt><trkpt lat="45.9640249" lon="11.7330921"><ele>702.4</ele><time>2026-04-25T15:33:21.56Z</time></trkpt><trkpt lat="45.9639526" lon="11.7332033"><ele>703.8</ele><time>2026-04-25T15:33:22.556Z</time></trkpt><trkpt lat="45.9638742" lon="11.733317"><ele>705.1999999999999</ele><time>2026-04-25T15:33:23.57Z</time></trkpt><trkpt lat="45.9637983" lon="11.7334284"><ele>706.5999999999999</ele><time>2026-04-25T15:33:24.529Z</time></trkpt><trkpt lat="45.9637252" lon="11.7335374"><ele>708.0</ele><time>2026-04-25T15:33:25.555Z</time></trkpt><trkpt lat="45.9636723" lon="11.733614"><ele>708.0</ele><time>2026-04-25T15:33:26.512Z</time></trkpt><trkpt lat="45.963619" lon="11.7336653"><ele>708.0</ele><time>2026-04-25T15:33:27.569Z</time></trkpt><trkpt lat="45.963563" lon="11.7337092"><ele>708.0</ele><time>2026-04-25T15:33:28.565Z</time></trkpt><trkpt lat="45.9634996" lon="11.7337469"><ele>708.0</ele><time>2026-04-25T15:33:29.57Z</time></trkpt><trkpt lat="45.9633983" lon="11.7337781"><ele>708.0</ele><time>2026-04-25T15:33:31.558Z</time></trkpt><trkpt lat="45.9633275" lon="11.7337814"><ele>708.0</ele><time>2026-04-25T15:33:34.577Z</time></trkpt><trkpt lat="45.9633166" lon="11.7339003"><ele>708.0</ele><time>2026-04-25T15:33:39.565Z</time></trkpt><trkpt lat="45.9632385" lon="11.734011"><ele>708.0</ele><time>2026-04-25T15:33:41.557Z</time></trkpt><trkpt lat="45.9631725" lon="11.734068"><ele>708.0</ele><time>2026-04-25T15:33:42.592Z</time></trkpt><trkpt lat="45.9631286" lon="11.7342083"><ele>708.0</ele><time>2026-04-25T15:33:45.56Z</time></trkpt><trkpt lat="45.9630627" lon="11.7343213"><ele>708.0</ele><time>2026-04-25T15:33:48.559Z</time></trkpt><trkpt lat="45.963028" lon="11.7344492"><ele>708.0</ele><time>2026-04-25T15:33:50.542Z</time></trkpt><trkpt lat="45.9629927" lon="11.7345622"><ele>708.0</ele><time>2026-04-25T15:33:51.564Z</time></trkpt><trkpt lat="45.9629261" lon="11.7346902"><ele>708.0</ele><time>2026-04-25T15:33:53.548Z</time></trkpt><trkpt lat="45.9628861" lon="11.7347877"><ele>708.0</ele><time>2026-04-25T15:34:01.568Z</time></trkpt><trkpt lat="45.9627852" lon="11.7348702"><ele>708.0</ele><time>2026-04-25T15:34:03.553Z</time></trkpt><trkpt lat="45.9627211" lon="11.7349406"><ele>708.0</ele><time>2026-04-25T15:34:04.582Z</time></trkpt><trkpt lat="45.9626611" lon="11.7350632"><ele>708.0</ele><time>2026-04-25T15:34:06.549Z</time></trkpt><trkpt lat="45.9625897" lon="11.7352093"><ele>708.0</ele><time>2026-04-25T15:34:08.556Z</time></trkpt><trkpt lat="45.9625474" lon="11.7353042"><ele>708.0</ele><time>2026-04-25T15:34:09.562Z</time></trkpt><trkpt lat="45.9624897" lon="11.7353528"><ele>708.0</ele><time>2026-04-25T15:34:10.575Z</time></trkpt><trkpt lat="45.9624321" lon="11.7354041"><ele>708.0</ele><time>2026-04-25T15:34:12.557Z</time></trkpt><trkpt lat="45.9623048" lon="11.735412"><ele>706.2</ele><time>2026-04-25T15:34:15.561Z</time></trkpt><trkpt lat="45.9622085" lon="11.7354297"><ele>704.4</ele><time>2026-04-25T15:34:16.543Z</time></trkpt><trkpt lat="45.9621149" lon="11.7354685"><ele>702.6</ele><time>2026-04-25T15:34:17.564Z</time></trkpt><trkpt lat="45.9620697" lon="11.735624"><ele>700.8000000000001</ele><time>2026-04-25T15:34:20.558Z</time></trkpt><trkpt lat="45.9620319" lon="11.7357777"><ele>699.0</ele><time>2026-04-25T15:34:22.556Z</time></trkpt><trkpt lat="45.9619947" lon="11.7358658"><ele>699.0</ele><time>2026-04-25T15:34:23.566Z</time></trkpt><trkpt lat="45.961889" lon="11.7359738"><ele>699.0</ele><time>2026-04-25T15:34:25.564Z</time></trkpt><trkpt lat="45.9618339" lon="11.7360923"><ele>699.0</ele><time>2026-04-25T15:34:27.535Z</time></trkpt><trkpt lat="45.9618456" lon="11.7361976"><ele>699.0</ele><time>2026-04-25T15:34:30.566Z</time></trkpt><trkpt lat="45.9618361" lon="11.7363279"><ele>699.0</ele><time>2026-04-25T15:34:32.572Z</time></trkpt><trkpt lat="45.9618858" lon="11.736405"><ele>693.8333333333334</ele><time>2026-04-25T15:34:35.572Z</time></trkpt><trkpt lat="45.9619458" lon="11.7364328"><ele>688.6666666666666</ele><time>2026-04-25T15:34:36.601Z</time></trkpt><trkpt lat="45.9620206" lon="11.7364375"><ele>683.5</ele><time>2026-04-25T15:34:38.562Z</time></trkpt><trkpt lat="45.9621151" lon="11.7364307"><ele>678.3333333333333</ele><time>2026-04-25T15:34:43.524Z</time></trkpt><trkpt lat="45.9622115" lon="11.7364204"><ele>673.1666666666666</ele><time>2026-04-25T15:34:45.536Z</time></trkpt><trkpt lat="45.9622031" lon="11.7365422"><ele>668.0</ele><time>2026-04-25T15:34:50.565Z</time></trkpt><trkpt lat="45.9621641" lon="11.7366647"><ele>668.0</ele><time>2026-04-25T15:34:51.554Z</time></trkpt><trkpt lat="45.9621252" lon="11.736833"><ele>668.0</ele><time>2026-04-25T15:34:53.578Z</time></trkpt><trkpt lat="45.9620962" lon="11.7369474"><ele>668.0</ele><time>2026-04-25T15:34:55.578Z</time></trkpt><trkpt lat="45.9620282" lon="11.7370949"><ele>668.0</ele><time>2026-04-25T15:34:57.544Z</time></trkpt><trkpt lat="45.9620183" lon="11.737197"><ele>668.0</ele><time>2026-04-25T15:34:58.538Z</time></trkpt><trkpt lat="45.9619485" lon="11.7372957"><ele>665.2</ele><time>2026-04-25T15:35:01.569Z</time></trkpt><trkpt lat="45.9618803" lon="11.7374229"><ele>662.4</ele><time>2026-04-25T15:35:03.567Z</time></trkpt><trkpt lat="45.9618144" lon="11.7375228"><ele>659.6</ele><time>2026-04-25T15:35:05.558Z</time></trkpt><trkpt lat="45.9617403" lon="11.7376374"><ele>656.8000000000001</ele><time>2026-04-25T15:35:07.575Z</time></trkpt><trkpt lat="45.9616908" lon="11.7377347"><ele>654.0</ele><time>2026-04-25T15:35:08.571Z</time></trkpt><trkpt lat="45.9616563" lon="11.7378935"><ele>654.0</ele><time>2026-04-25T15:35:10.578Z</time></trkpt><trkpt lat="45.9615933" lon="11.7379498"><ele>654.0</ele><time>2026-04-25T15:35:11.571Z</time></trkpt><trkpt lat="45.9616417" lon="11.7380705"><ele>654.0</ele><time>2026-04-25T15:35:14.561Z</time></trkpt><trkpt lat="45.9617309" lon="11.738161"><ele>654.0</ele><time>2026-04-25T15:35:16.566Z</time></trkpt><trkpt lat="45.9617988" lon="11.7382056"><ele>654.0</ele><time>2026-04-25T15:35:18.566Z</time></trkpt><trkpt lat="45.9618564" lon="11.7382737"><ele>654.0</ele><time>2026-04-25T15:35:19.562Z</time></trkpt><trkpt lat="45.9619157" lon="11.7383116"><ele>647.8333333333334</ele><time>2026-04-25T15:35:20.58Z</time></trkpt><trkpt lat="45.9619718" lon="11.7384346"><ele>641.6666666666666</ele><time>2026-04-25T15:35:22.524Z</time></trkpt><trkpt lat="45.9619698" lon="11.7385387"><ele>635.5</ele><time>2026-04-25T15:35:24.566Z</time></trkpt><trkpt lat="45.9620079" lon="11.7386273"><ele>629.3333333333333</ele><time>2026-04-25T15:35:26.579Z</time></trkpt><trkpt lat="45.9620839" lon="11.7386419"><ele>623.1666666666666</ele><time>2026-04-25T15:35:29.547Z</time></trkpt><trkpt lat="45.9621115" lon="11.7387272"><ele>617.0</ele><time>2026-04-25T15:35:31.534Z</time></trkpt><trkpt lat="45.9621198" lon="11.7388305"><ele>615.25</ele><time>2026-04-25T15:35:33.568Z</time></trkpt><trkpt lat="45.9621866" lon="11.7388953"><ele>613.5</ele><time>2026-04-25T15:35:35.559Z</time></trkpt><trkpt lat="45.9622933" lon="11.7387837"><ele>611.75</ele><time>2026-04-25T15:35:37.565Z</time></trkpt><trkpt lat="45.9624103" lon="11.7387414"><ele>610.0</ele><time>2026-04-25T15:35:39.56Z</time></trkpt><trkpt lat="45.9625277" lon="11.7387081"><ele>610.0</ele><time>2026-04-25T15:35:41.551Z</time></trkpt><trkpt lat="45.9625896" lon="11.7386635"><ele>610.0</ele><time>2026-04-25T15:35:42.573Z</time></trkpt><trkpt lat="45.9625751" lon="11.7387799"><ele>610.0</ele><time>2026-04-25T15:35:46.575Z</time></trkpt><trkpt lat="45.9625071" lon="11.73889"><ele>610.0</ele><time>2026-04-25T15:35:48.579Z</time></trkpt><trkpt lat="45.9624389" lon="11.7390141"><ele>610.0</ele><time>2026-04-25T15:35:50.536Z</time></trkpt><trkpt lat="45.962365" lon="11.739136"><ele>610.0</ele><time>2026-04-25T15:35:52.57Z</time></trkpt><trkpt lat="45.9622969" lon="11.73924"><ele>610.0</ele><time>2026-04-25T15:35:54.577Z</time></trkpt><trkpt lat="45.962242" lon="11.7393559"><ele>610.0</ele><time>2026-04-25T15:35:56.559Z</time></trkpt><trkpt lat="45.9622118" lon="11.7394538"><ele>610.0</ele><time>2026-04-25T15:35:57.585Z</time></trkpt><trkpt lat="45.9621655" lon="11.7395427"><ele>610.0</ele><time>2026-04-25T15:35:58.569Z</time></trkpt><trkpt lat="45.9620969" lon="11.739645"><ele>610.0</ele><time>2026-04-25T15:35:59.573Z</time></trkpt><trkpt lat="45.9620285" lon="11.739742"><ele>612.5</ele><time>2026-04-25T15:36:00.564Z</time></trkpt><trkpt lat="45.9619559" lon="11.7398336"><ele>615.0</ele><time>2026-04-25T15:36:01.583Z</time></trkpt><trkpt lat="45.9618787" lon="11.7399971"><ele>617.5</ele><time>2026-04-25T15:36:03.554Z</time></trkpt><trkpt lat="45.9618233" lon="11.7400631"><ele>620.0</ele><time>2026-04-25T15:36:04.58Z</time></trkpt><trkpt lat="45.9617134" lon="11.7402229"><ele>610.0</ele><time>2026-04-25T15:36:06.579Z</time></trkpt><trkpt lat="45.9616687" lon="11.740339"><ele>600.0</ele><time>2026-04-25T15:36:07.565Z</time></trkpt><trkpt lat="45.9616483" lon="11.7404797"><ele>590.0</ele><time>2026-04-25T15:36:08.589Z</time></trkpt><trkpt lat="45.9616093" lon="11.7406471"><ele>580.0</ele><time>2026-04-25T15:36:09.579Z</time></trkpt><trkpt lat="45.9615534" lon="11.7408328"><ele>580.0</ele><time>2026-04-25T15:36:10.567Z</time></trkpt><trkpt lat="45.9615407" lon="11.7409451"><ele>580.0</ele><time>2026-04-25T15:36:11.541Z</time></trkpt><trkpt lat="45.9614901" lon="11.7410473"><ele>580.0</ele><time>2026-04-25T15:36:12.545Z</time></trkpt><trkpt lat="45.9614353" lon="11.7411604"><ele>580.0</ele><time>2026-04-25T15:36:13.541Z</time></trkpt><trkpt lat="45.9613746" lon="11.7412971"><ele>580.0</ele><time>2026-04-25T15:36:14.568Z</time></trkpt><trkpt lat="45.9613124" lon="11.7413835"><ele>580.4</ele><time>2026-04-25T15:36:15.552Z</time></trkpt><trkpt lat="45.9612712" lon="11.7414626"><ele>580.8</ele><time>2026-04-25T15:36:16.525Z</time></trkpt><trkpt lat="45.9612054" lon="11.7415344"><ele>581.2</ele><time>2026-04-25T15:36:17.578Z</time></trkpt><trkpt lat="45.961149" lon="11.7415977"><ele>581.6</ele><time>2026-04-25T15:36:18.563Z</time></trkpt><trkpt lat="45.9610791" lon="11.741739"><ele>582.0</ele><time>2026-04-25T15:36:20.565Z</time></trkpt><trkpt lat="45.9610398" lon="11.7419038"><ele>580.75</ele><time>2026-04-25T15:36:22.556Z</time></trkpt><trkpt lat="45.9610372" lon="11.7420024"><ele>579.5</ele><time>2026-04-25T15:36:25.555Z</time></trkpt><trkpt lat="45.9610013" lon="11.7422904"><ele>578.25</ele><time>2026-04-25T15:36:32.569Z</time></trkpt><trkpt lat="45.9610099" lon="11.7424691"><ele>577.0</ele><time>2026-04-25T15:36:33.53Z</time></trkpt><trkpt lat="45.9610025" lon="11.7426162"><ele>576.0</ele><time>2026-04-25T15:36:34.57Z</time></trkpt><trkpt lat="45.9609977" lon="11.742785"><ele>575.0</ele><time>2026-04-25T15:36:35.561Z</time></trkpt><trkpt lat="45.9609925" lon="11.74295"><ele>574.0</ele><time>2026-04-25T15:36:36.556Z</time></trkpt><trkpt lat="45.9609557" lon="11.7430399"><ele>573.0</ele><time>2026-04-25T15:36:37.594Z</time></trkpt><trkpt lat="45.9609397" lon="11.7432202"><ele>572.0</ele><time>2026-04-25T15:36:39.562Z</time></trkpt><trkpt lat="45.960935" lon="11.7433697"><ele>570.5</ele><time>2026-04-25T15:36:40.559Z</time></trkpt><trkpt lat="45.9609163" lon="11.7435974"><ele>569.0</ele><time>2026-04-25T15:36:42.548Z</time></trkpt><trkpt lat="45.9609542" lon="11.7437701"><ele>567.5</ele><time>2026-04-25T15:36:43.553Z</time></trkpt><trkpt lat="45.9609688" lon="11.7438827"><ele>566.0</ele><time>2026-04-25T15:36:44.567Z</time></trkpt><trkpt lat="45.9609946" lon="11.7440057"><ele>566.0</ele><time>2026-04-25T15:36:45.555Z</time></trkpt><trkpt lat="45.9610046" lon="11.7441184"><ele>566.0</ele><time>2026-04-25T15:36:46.556Z</time></trkpt><trkpt lat="45.9610278" lon="11.7442028"><ele>566.0</ele><time>2026-04-25T15:36:47.547Z</time></trkpt><trkpt lat="45.9610361" lon="11.7444065"><ele>566.0</ele><time>2026-04-25T15:36:49.58Z</time></trkpt><trkpt lat="45.961024" lon="11.744534"><ele>566.0</ele><time>2026-04-25T15:36:50.558Z</time></trkpt><trkpt lat="45.9609832" lon="11.7446569"><ele>565.0</ele><time>2026-04-25T15:36:51.562Z</time></trkpt><trkpt lat="45.9609394" lon="11.7447867"><ele>564.0</ele><time>2026-04-25T15:36:52.565Z</time></trkpt><trkpt lat="45.9609136" lon="11.7448909"><ele>563.0</ele><time>2026-04-25T15:36:53.543Z</time></trkpt><trkpt lat="45.9608592" lon="11.7450575"><ele>562.0</ele><time>2026-04-25T15:36:55.583Z</time></trkpt><trkpt lat="45.9608144" lon="11.7451338"><ele>561.0</ele><time>2026-04-25T15:36:56.54Z</time></trkpt><trkpt lat="45.9607858" lon="11.7452433"><ele>552.5</ele><time>2026-04-25T15:36:57.57Z</time></trkpt><trkpt lat="45.9607605" lon="11.7453435"><ele>544.0</ele><time>2026-04-25T15:36:58.556Z</time></trkpt><trkpt lat="45.9607471" lon="11.7454369"><ele>535.5</ele><time>2026-04-25T15:36:59.575Z</time></trkpt><trkpt lat="45.9606867" lon="11.7455336"><ele>527.0</ele><time>2026-04-25T15:37:01.58Z</time></trkpt><trkpt lat="45.9606116" lon="11.7455519"><ele>518.5</ele><time>2026-04-25T15:37:02.527Z</time></trkpt><trkpt lat="45.9605581" lon="11.7456379"><ele>510.0</ele><time>2026-04-25T15:37:03.555Z</time></trkpt><trkpt lat="45.9605217" lon="11.7457266"><ele>510.0</ele><time>2026-04-25T15:37:04.546Z</time></trkpt><trkpt lat="45.9605035" lon="11.7458619"><ele>510.0</ele><time>2026-04-25T15:37:05.546Z</time></trkpt><trkpt lat="45.9605181" lon="11.7460234"><ele>510.0</ele><time>2026-04-25T15:37:06.563Z</time></trkpt><trkpt lat="45.9605038" lon="11.7461669"><ele>510.0</ele><time>2026-04-25T15:37:08.585Z</time></trkpt><trkpt lat="45.9604778" lon="11.7463258"><ele>510.0</ele><time>2026-04-25T15:37:10.567Z</time></trkpt><trkpt lat="45.9604319" lon="11.7464485"><ele>510.0</ele><time>2026-04-25T15:37:12.571Z</time></trkpt><trkpt lat="45.9603361" lon="11.7465253"><ele>510.0</ele><time>2026-04-25T15:37:15.563Z</time></trkpt><trkpt lat="45.9602731" lon="11.7465703"><ele>510.0</ele><time>2026-04-25T15:37:16.57Z</time></trkpt><trkpt lat="45.9602023" lon="11.7466597"><ele>510.0</ele><time>2026-04-25T15:37:18.568Z</time></trkpt><trkpt lat="45.9601733" lon="11.7467569"><ele>510.0</ele><time>2026-04-25T15:37:20.549Z</time></trkpt><trkpt lat="45.9601385" lon="11.7468529"><ele>510.0</ele><time>2026-04-25T15:37:22.555Z</time></trkpt><trkpt lat="45.9600794" lon="11.7469001"><ele>504.1666666666667</ele><time>2026-04-25T15:37:23.55Z</time></trkpt><trkpt lat="45.9600333" lon="11.7470147"><ele>498.33333333333337</ele><time>2026-04-25T15:37:25.564Z</time></trkpt><trkpt lat="45.9600311" lon="11.747208"><ele>492.5</ele><time>2026-04-25T15:37:27.559Z</time></trkpt><trkpt lat="45.9600311" lon="11.7473157"><ele>486.6666666666667</ele><time>2026-04-25T15:37:28.575Z</time></trkpt><trkpt lat="45.9600117" lon="11.7474105"><ele>480.83333333333337</ele><time>2026-04-25T15:37:29.552Z</time></trkpt><trkpt lat="45.9600034" lon="11.747512"><ele>475.0</ele><time>2026-04-25T15:37:30.556Z</time></trkpt><trkpt lat="45.959996" lon="11.7476268"><ele>471.1666666666667</ele><time>2026-04-25T15:37:31.574Z</time></trkpt><trkpt lat="45.9599874" lon="11.7477461"><ele>467.33333333333337</ele><time>2026-04-25T15:37:32.576Z</time></trkpt><trkpt lat="45.9599681" lon="11.7478529"><ele>463.5</ele><time>2026-04-25T15:37:33.552Z</time></trkpt><trkpt lat="45.9599369" lon="11.7479325"><ele>459.66666666666663</ele><time>2026-04-25T15:37:34.567Z</time></trkpt><trkpt lat="45.9599391" lon="11.7480535"><ele>455.8333333333333</ele><time>2026-04-25T15:37:35.553Z</time></trkpt><trkpt lat="45.9599336" lon="11.7481638"><ele>452.0</ele><time>2026-04-25T15:37:36.575Z</time></trkpt><trkpt lat="45.9599204" lon="11.7483332"><ele>452.0</ele><time>2026-04-25T15:37:38.606Z</time></trkpt><trkpt lat="45.9599173" lon="11.7485026"><ele>452.00000000000006</ele><time>2026-04-25T15:37:40.58Z</time></trkpt><trkpt lat="45.9599084" lon="11.7486341"><ele>452.00000000000006</ele><time>2026-04-25T15:37:41.523Z</time></trkpt><trkpt lat="45.959894" lon="11.7487693"><ele>452.0</ele><time>2026-04-25T15:37:42.555Z</time></trkpt><trkpt lat="45.959854" lon="11.7488583"><ele>452.0</ele><time>2026-04-25T15:37:43.572Z</time></trkpt><trkpt lat="45.9598073" lon="11.7489847"><ele>451.6</ele><time>2026-04-25T15:37:45.564Z</time></trkpt><trkpt lat="45.9597581" lon="11.7490868"><ele>451.20000000000005</ele><time>2026-04-25T15:37:47.578Z</time></trkpt><trkpt lat="45.9597097" lon="11.7492324"><ele>450.8</ele><time>2026-04-25T15:37:49.566Z</time></trkpt><trkpt lat="45.9596323" lon="11.7492581"><ele>450.4</ele><time>2026-04-25T15:37:52.575Z</time></trkpt><trkpt lat="45.9595451" lon="11.749321"><ele>450.0</ele><time>2026-04-25T15:37:55.535Z</time></trkpt><trkpt lat="45.9594757" lon="11.7495164"><ele>448.1666666666667</ele><time>2026-04-25T15:37:57.574Z</time></trkpt><trkpt lat="45.9594681" lon="11.7496285"><ele>446.33333333333337</ele><time>2026-04-25T15:37:59.565Z</time></trkpt><trkpt lat="45.9595339" lon="11.7496819"><ele>444.5</ele><time>2026-04-25T15:38:02.575Z</time></trkpt><trkpt lat="45.9595064" lon="11.749771"><ele>442.6666666666667</ele><time>2026-04-25T15:38:05.571Z</time></trkpt><trkpt lat="45.9594344" lon="11.7498527"><ele>440.83333333333337</ele><time>2026-04-25T15:38:07.572Z</time></trkpt><trkpt lat="45.9594278" lon="11.7499791"><ele>439.0</ele><time>2026-04-25T15:38:09.583Z</time></trkpt><trkpt lat="45.9594744" lon="11.750107"><ele>433.2</ele><time>2026-04-25T15:38:11.554Z</time></trkpt><trkpt lat="45.9595049" lon="11.7502539"><ele>427.4</ele><time>2026-04-25T15:38:13.584Z</time></trkpt><trkpt lat="45.959514" lon="11.7503483"><ele>421.6</ele><time>2026-04-25T15:38:14.552Z</time></trkpt><trkpt lat="45.9595426" lon="11.7505279"><ele>415.8</ele><time>2026-04-25T15:38:16.583Z</time></trkpt><trkpt lat="45.9595636" lon="11.7506726"><ele>410.0</ele><time>2026-04-25T15:38:18.577Z</time></trkpt><trkpt lat="45.959589" lon="11.7508292"><ele>409.99999999999994</ele><time>2026-04-25T15:38:20.525Z</time></trkpt><trkpt lat="45.9596043" lon="11.7509186"><ele>410.0</ele><time>2026-04-25T15:38:21.529Z</time></trkpt><trkpt lat="45.9596239" lon="11.7510256"><ele>410.0</ele><time>2026-04-25T15:38:22.531Z</time></trkpt><trkpt lat="45.9596446" lon="11.7511216"><ele>410.0</ele><time>2026-04-25T15:38:23.535Z</time></trkpt><trkpt lat="45.9596644" lon="11.7512129"><ele>409.99999999999994</ele><time>2026-04-25T15:38:24.582Z</time></trkpt><trkpt lat="45.9596858" lon="11.7512994"><ele>410.0</ele><time>2026-04-25T15:38:25.581Z</time></trkpt><trkpt lat="45.9597454" lon="11.7514643"><ele>403.66666666666663</ele><time>2026-04-25T15:38:27.572Z</time></trkpt><trkpt lat="45.9597689" lon="11.7515787"><ele>397.3333333333333</ele><time>2026-04-25T15:38:28.57Z</time></trkpt><trkpt lat="45.9597906" lon="11.7516837"><ele>391.0</ele><time>2026-04-25T15:38:29.558Z</time></trkpt><trkpt lat="45.9598062" lon="11.7517723"><ele>384.66666666666663</ele><time>2026-04-25T15:38:30.524Z</time></trkpt><trkpt lat="45.9598371" lon="11.7519189"><ele>378.3333333333333</ele><time>2026-04-25T15:38:31.565Z</time></trkpt><trkpt lat="45.9598687" lon="11.7520612"><ele>372.0</ele><time>2026-04-25T15:38:32.588Z</time></trkpt><trkpt lat="45.9598934" lon="11.7522287"><ele>366.6</ele><time>2026-04-25T15:38:34.57Z</time></trkpt><trkpt lat="45.9599095" lon="11.7523362"><ele>361.20000000000005</ele><time>2026-04-25T15:38:54.568Z</time></trkpt><trkpt lat="45.9599547" lon="11.7525138"><ele>355.8</ele><time>2026-04-25T15:38:56.572Z</time></trkpt><trkpt lat="45.9600163" lon="11.7526754"><ele>350.4</ele><time>2026-04-25T15:38:58.583Z</time></trkpt><trkpt lat="45.9600452" lon="11.7527616"><ele>345.0</ele><time>2026-04-25T15:38:59.57Z</time></trkpt><trkpt lat="45.9600912" lon="11.7528643"><ele>345.0</ele><time>2026-04-25T15:39:01.555Z</time></trkpt><trkpt lat="45.9601462" lon="11.7529378"><ele>345.0</ele><time>2026-04-25T15:39:13.584Z</time></trkpt><trkpt lat="45.9601697" lon="11.7530872"><ele>345.0</ele><time>2026-04-25T15:39:17.522Z</time></trkpt><trkpt lat="45.960201" lon="11.7532064"><ele>345.0</ele><time>2026-04-25T15:39:18.532Z</time></trkpt><trkpt lat="45.9602293" lon="11.7533126"><ele>345.0</ele><time>2026-04-25T15:39:19.568Z</time></trkpt><trkpt lat="45.9602584" lon="11.7534083"><ele>345.0</ele><time>2026-04-25T15:39:20.561Z</time></trkpt><trkpt lat="45.9602888" lon="11.7535061"><ele>340.0</ele><time>2026-04-25T15:39:21.575Z</time></trkpt><trkpt lat="45.9603164" lon="11.7535914"><ele>335.0</ele><time>2026-04-25T15:39:22.569Z</time></trkpt><trkpt lat="45.9603438" lon="11.7536883"><ele>330.0</ele><time>2026-04-25T15:39:23.56Z</time></trkpt><trkpt lat="45.960379" lon="11.7537783"><ele>325.0</ele><time>2026-04-25T15:39:24.576Z</time></trkpt><trkpt lat="45.9604309" lon="11.7539172"><ele>320.0</ele><time>2026-04-25T15:39:26.584Z</time></trkpt><trkpt lat="45.9604734" lon="11.7540842"><ele>315.0</ele><time>2026-04-25T15:39:28.52Z</time></trkpt><trkpt lat="45.9605237" lon="11.7542541"><ele>308.6</ele><time>2026-04-25T15:39:30.501Z</time></trkpt><trkpt lat="45.9605722" lon="11.75439"><ele>302.2</ele><time>2026-04-25T15:39:31.514Z</time></trkpt><trkpt lat="45.9606369" lon="11.7545137"><ele>295.8</ele><time>2026-04-25T15:39:32.506Z</time></trkpt><trkpt lat="45.960694" lon="11.7546249"><ele>289.4</ele><time>2026-04-25T15:39:33.519Z</time></trkpt><trkpt lat="45.9607485" lon="11.754727"><ele>283.0</ele><time>2026-04-25T15:39:34.514Z</time></trkpt><trkpt lat="45.9607931" lon="11.7548249"><ele>283.0</ele><time>2026-04-25T15:39:35.52Z</time></trkpt><trkpt lat="45.960827" lon="11.7549054"><ele>283.0</ele><time>2026-04-25T15:39:36.503Z</time></trkpt><trkpt lat="45.960899" lon="11.7550559"><ele>283.0</ele><time>2026-04-25T15:39:38.511Z</time></trkpt><trkpt lat="45.9609649" lon="11.7551754"><ele>283.0</ele><time>2026-04-25T15:39:40.51Z</time></trkpt><trkpt lat="45.9610284" lon="11.7552411"><ele>283.0</ele><time>2026-04-25T15:39:41.507Z</time></trkpt><trkpt lat="45.9610895" lon="11.7553115"><ele>281.8333333333333</ele><time>2026-04-25T15:39:42.536Z</time></trkpt><trkpt lat="45.9611487" lon="11.7553937"><ele>280.66666666666663</ele><time>2026-04-25T15:39:43.524Z</time></trkpt><trkpt lat="45.9612038" lon="11.7555048"><ele>279.5</ele><time>2026-04-25T15:39:44.493Z</time></trkpt><trkpt lat="45.9612469" lon="11.755613"><ele>278.3333333333333</ele><time>2026-04-25T15:39:45.523Z</time></trkpt><trkpt lat="45.9612873" lon="11.755705"><ele>277.1666666666667</ele><time>2026-04-25T15:39:46.518Z</time></trkpt><trkpt lat="45.9613246" lon="11.7557893"><ele>276.0</ele><time>2026-04-25T15:39:47.49Z</time></trkpt><trkpt lat="45.9613714" lon="11.7558879"><ele>276.0</ele><time>2026-04-25T15:39:49.507Z</time></trkpt><trkpt lat="45.9614345" lon="11.7558697"><ele>276.0</ele><time>2026-04-25T15:40:01.494Z</time></trkpt><trkpt lat="45.961407" lon="11.7559861"><ele>276.0</ele><time>2026-04-25T15:40:06.502Z</time></trkpt><trkpt lat="45.9613363" lon="11.7560237"><ele>276.0</ele><time>2026-04-25T15:40:07.507Z</time></trkpt><trkpt lat="45.9612292" lon="11.7560123"><ele>276.0</ele><time>2026-04-25T15:40:08.507Z</time></trkpt><trkpt lat="45.9611256" lon="11.7559476"><ele>276.0</ele><time>2026-04-25T15:40:09.5Z</time></trkpt><trkpt lat="45.961003" lon="11.7558904"><ele>276.0</ele><time>2026-04-25T15:40:10.515Z</time></trkpt><trkpt lat="45.9608905" lon="11.7558103"><ele>276.0</ele><time>2026-04-25T15:40:11.474Z</time></trkpt><trkpt lat="45.9608061" lon="11.7556985"><ele>276.0</ele><time>2026-04-25T15:40:12.47Z</time></trkpt><trkpt lat="45.9607192" lon="11.7555972"><ele>276.0</ele><time>2026-04-25T15:40:13.513Z</time></trkpt><trkpt lat="45.9606509" lon="11.7554374"><ele>274.0</ele><time>2026-04-25T15:40:14.516Z</time></trkpt><trkpt lat="45.960565" lon="11.7552643"><ele>272.0</ele><time>2026-04-25T15:40:15.505Z</time></trkpt><trkpt lat="45.9604605" lon="11.7550761"><ele>270.0</ele><time>2026-04-25T15:40:16.493Z</time></trkpt><trkpt lat="45.9603528" lon="11.7548813"><ele>269.8333333333333</ele><time>2026-04-25T15:40:17.516Z</time></trkpt><trkpt lat="45.960288" lon="11.7547549"><ele>269.6666666666667</ele><time>2026-04-25T15:40:18.52Z</time></trkpt><trkpt lat="45.960245" lon="11.7546695"><ele>269.5</ele><time>2026-04-25T15:40:19.549Z</time></trkpt><trkpt lat="45.9601704" lon="11.754573"><ele>269.33333333333337</ele><time>2026-04-25T15:40:21.531Z</time></trkpt><trkpt lat="45.9601118" lon="11.7545327"><ele>269.1666666666667</ele><time>2026-04-25T15:40:23.51Z</time></trkpt><trkpt lat="45.9600289" lon="11.7544917"><ele>269.0</ele><time>2026-04-25T15:40:26.499Z</time></trkpt><trkpt lat="45.959967" lon="11.7544618"><ele>269.0</ele><time>2026-04-25T15:40:28.5Z</time></trkpt><trkpt lat="45.9598751" lon="11.754445"><ele>269.0</ele><time>2026-04-25T15:40:30.517Z</time></trkpt><trkpt lat="45.9597518" lon="11.7544323"><ele>269.0</ele><time>2026-04-25T15:40:32.552Z</time></trkpt><trkpt lat="45.9596748" lon="11.7544647"><ele>269.0</ele><time>2026-04-25T15:40:34.518Z</time></trkpt><trkpt lat="45.9596049" lon="11.7545126"><ele>269.0</ele><time>2026-04-25T15:40:37.489Z</time></trkpt><trkpt lat="45.9595575" lon="11.7544529"><ele>269.0</ele><time>2026-04-25T15:40:41.519Z</time></trkpt><trkpt lat="45.9595809" lon="11.7543558"><ele>271.0</ele><time>2026-04-25T15:40:43.515Z</time></trkpt><trkpt lat="45.9595782" lon="11.7542652"><ele>273.0</ele><time>2026-04-25T15:40:44.502Z</time></trkpt><trkpt lat="45.9595367" lon="11.7541133"><ele>275.0</ele><time>2026-04-25T15:40:46.523Z</time></trkpt><trkpt lat="45.9595484" lon="11.753973"><ele>277.0</ele><time>2026-04-25T15:40:48.519Z</time></trkpt><trkpt lat="45.9596402" lon="11.7539284"><ele>279.0</ele><time>2026-04-25T15:40:51.52Z</time></trkpt><trkpt lat="45.9597173" lon="11.7539419"><ele>281.0</ele><time>2026-04-25T15:40:53.522Z</time></trkpt><trkpt lat="45.9598201" lon="11.7539815"><ele>281.0</ele><time>2026-04-25T15:40:55.512Z</time></trkpt><trkpt lat="45.9598891" lon="11.7539656"><ele>281.0</ele><time>2026-04-25T15:40:56.525Z</time></trkpt><trkpt lat="45.9599627" lon="11.754062"><ele>281.0</ele><time>2026-04-25T15:40:58.486Z</time></trkpt><trkpt lat="45.9599975" lon="11.7541592"><ele>281.0</ele><time>2026-04-25T15:40:59.523Z</time></trkpt><trkpt lat="45.9600623" lon="11.7542643"><ele>281.0</ele><time>2026-04-25T15:41:00.495Z</time></trkpt><trkpt lat="45.9601299" lon="11.7543834"><ele>281.40000000000003</ele><time>2026-04-25T15:41:01.517Z</time></trkpt><trkpt lat="45.9601842" lon="11.7544813"><ele>281.8</ele><time>2026-04-25T15:41:02.529Z</time></trkpt><trkpt lat="45.9602327" lon="11.7545808"><ele>282.20000000000005</ele><time>2026-04-25T15:41:03.518Z</time></trkpt><trkpt lat="45.9602776" lon="11.7546547"><ele>282.6</ele><time>2026-04-25T15:41:04.517Z</time></trkpt><trkpt lat="45.9603216" lon="11.7547682"><ele>283.0</ele><time>2026-04-25T15:41:06.52Z</time></trkpt><trkpt lat="45.9604463" lon="11.7549724"><ele>283.0</ele><time>2026-04-25T15:41:10.511Z</time></trkpt><trkpt lat="45.9605073" lon="11.7550529"><ele>283.0</ele><time>2026-04-25T15:41:11.516Z</time></trkpt><trkpt lat="45.9605492" lon="11.7551217"><ele>283.0</ele><time>2026-04-25T15:41:12.511Z</time></trkpt><trkpt lat="45.9606142" lon="11.7552251"><ele>283.0</ele><time>2026-04-25T15:41:15.53Z</time></trkpt><trkpt lat="45.9606647" lon="11.7553067"><ele>283.0</ele><time>2026-04-25T15:41:16.51Z</time></trkpt><trkpt lat="45.9607265" lon="11.7553863"><ele>283.0</ele><time>2026-04-25T15:41:17.522Z</time></trkpt><trkpt lat="45.9607968" lon="11.7554463"><ele>281.8333333333333</ele><time>2026-04-25T15:41:18.498Z</time></trkpt><trkpt lat="45.9608688" lon="11.7554943"><ele>280.66666666666663</ele><time>2026-04-25T15:41:19.527Z</time></trkpt><trkpt lat="45.9609428" lon="11.7555211"><ele>279.5</ele><time>2026-04-25T15:41:20.513Z</time></trkpt><trkpt lat="45.9610203" lon="11.7555491"><ele>278.3333333333333</ele><time>2026-04-25T15:41:21.524Z</time></trkpt><trkpt lat="45.9610953" lon="11.7555668"><ele>277.1666666666667</ele><time>2026-04-25T15:41:22.518Z</time></trkpt><trkpt lat="45.9611713" lon="11.7555841"><ele>276.0</ele><time>2026-04-25T15:41:23.513Z</time></trkpt><trkpt lat="45.9612484" lon="11.7556029"><ele>276.0</ele><time>2026-04-25T15:41:24.514Z</time></trkpt><trkpt lat="45.9613222" lon="11.7556208"><ele>276.0</ele><time>2026-04-25T15:41:25.519Z</time></trkpt><trkpt lat="45.9613982" lon="11.7556399"><ele>276.0</ele><time>2026-04-25T15:41:26.531Z</time></trkpt><trkpt lat="45.9614745" lon="11.7556552"><ele>276.0</ele><time>2026-04-25T15:41:27.514Z</time></trkpt><trkpt lat="45.961555" lon="11.7556705"><ele>276.0</ele><time>2026-04-25T15:41:28.524Z</time></trkpt><trkpt lat="45.9616253" lon="11.7556873"><ele>276.0</ele><time>2026-04-25T15:41:29.485Z</time></trkpt><trkpt lat="45.9617033" lon="11.7557127"><ele>278.1666666666667</ele><time>2026-04-25T15:41:30.531Z</time></trkpt><trkpt lat="45.9617594" lon="11.7557561"><ele>280.3333333333333</ele><time>2026-04-25T15:41:31.527Z</time></trkpt><trkpt lat="45.9618221" lon="11.7558095"><ele>282.5</ele><time>2026-04-25T15:41:32.522Z</time></trkpt><trkpt lat="45.9618935" lon="11.7558629"><ele>284.66666666666663</ele><time>2026-04-25T15:41:33.513Z</time></trkpt><trkpt lat="45.9619619" lon="11.7559191"><ele>286.8333333333333</ele><time>2026-04-25T15:41:34.513Z</time></trkpt><trkpt lat="45.9620348" lon="11.7559741"><ele>289.0</ele><time>2026-04-25T15:41:35.523Z</time></trkpt><trkpt lat="45.9621048" lon="11.75603"><ele>284.8</ele><time>2026-04-25T15:41:36.513Z</time></trkpt><trkpt lat="45.9621998" lon="11.7561144"><ele>280.59999999999997</ele><time>2026-04-25T15:41:38.542Z</time></trkpt><trkpt lat="45.9620658" lon="11.7560921"><ele>276.4</ele><time>2026-04-25T15:41:45.499Z</time></trkpt><trkpt lat="45.9620038" lon="11.7560696"><ele>272.2</ele><time>2026-04-25T15:41:46.493Z</time></trkpt><trkpt lat="45.9619063" lon="11.7561045"><ele>268.0</ele><time>2026-04-25T15:41:49.518Z</time></trkpt><trkpt lat="45.9618316" lon="11.7561801"><ele>268.0</ele><time>2026-04-25T15:41:51.499Z</time></trkpt><trkpt lat="45.9617887" lon="11.7562464"><ele>268.0</ele><time>2026-04-25T15:41:53.529Z</time></trkpt></trkseg><trkseg><trkpt lat="45.9617101" lon="11.7564089"><ele>268.0</ele><time>2026-04-25T16:56:07.504Z</time></trkpt><trkpt lat="45.961775" lon="11.7564019"><ele>268.0</ele><time>2026-04-25T17:00:16.648Z</time></trkpt><trkpt lat="45.9617913" lon="11.7563108"><ele>268.0</ele><time>2026-04-25T17:00:22.644Z</time></trkpt><trkpt lat="45.9618817" lon="11.756182"><ele>268.0</ele><time>2026-04-25T17:01:13.612Z</time></trkpt><trkpt lat="45.9619819" lon="11.7561297"><ele>268.0</ele><time>2026-04-25T17:01:14.627Z</time></trkpt><trkpt lat="45.962049" lon="11.7561557"><ele>268.0</ele><time>2026-04-25T17:01:15.639Z</time></trkpt><trkpt lat="45.9621632" lon="11.7561966"><ele>268.0</ele><time>2026-04-25T17:01:17.632Z</time></trkpt><trkpt lat="45.9622759" lon="11.7562357"><ele>268.0</ele><time>2026-04-25T17:01:19.646Z</time></trkpt><trkpt lat="45.9623389" lon="11.7562347"><ele>268.0</ele><time>2026-04-25T17:01:21.633Z</time></trkpt><trkpt lat="45.9625396" lon="11.7562519"><ele>268.0</ele><time>2026-04-25T17:01:26.631Z</time></trkpt><trkpt lat="45.9626598" lon="11.7562738"><ele>268.4</ele><time>2026-04-25T17:01:28.645Z</time></trkpt><trkpt lat="45.9627859" lon="11.7562994"><ele>268.8</ele><time>2026-04-25T17:01:30.639Z</time></trkpt><trkpt lat="45.9628525" lon="11.7563073"><ele>269.2</ele><time>2026-04-25T17:01:31.648Z</time></trkpt><trkpt lat="45.9629528" lon="11.7563247"><ele>269.6</ele><time>2026-04-25T17:01:33.664Z</time></trkpt><trkpt lat="45.9630168" lon="11.7563195"><ele>270.0</ele><time>2026-04-25T17:01:35.64Z</time></trkpt><trkpt lat="45.9631093" lon="11.7563198"><ele>270.0</ele><time>2026-04-25T17:01:38.639Z</time></trkpt><trkpt lat="45.9632013" lon="11.7563174"><ele>270.0</ele><time>2026-04-25T17:01:59.64Z</time></trkpt><trkpt lat="45.9633179" lon="11.7563145"><ele>270.0</ele><time>2026-04-25T17:02:01.628Z</time></trkpt><trkpt lat="45.9633907" lon="11.756312"><ele>270.0</ele><time>2026-04-25T17:02:02.636Z</time></trkpt><trkpt lat="45.9634672" lon="11.7563083"><ele>270.0</ele><time>2026-04-25T17:02:03.666Z</time></trkpt><trkpt lat="45.9635431" lon="11.7563075"><ele>270.0</ele><time>2026-04-25T17:02:04.649Z</time></trkpt><trkpt lat="45.9636269" lon="11.7563057"><ele>270.0</ele><time>2026-04-25T17:02:05.635Z</time></trkpt><trkpt lat="45.9637077" lon="11.7562889"><ele>270.0</ele><time>2026-04-25T17:02:06.635Z</time></trkpt><trkpt lat="45.963789" lon="11.7562652"><ele>270.0</ele><time>2026-04-25T17:02:07.635Z</time></trkpt><trkpt lat="45.9638684" lon="11.7562491"><ele>270.0</ele><time>2026-04-25T17:02:08.65Z</time></trkpt><trkpt lat="45.9639439" lon="11.7562352"><ele>270.0</ele><time>2026-04-25T17:02:09.614Z</time></trkpt><trkpt lat="45.9640217" lon="11.7562106"><ele>270.0</ele><time>2026-04-25T17:02:10.644Z</time></trkpt><trkpt lat="45.9640969" lon="11.7561799"><ele>270.0</ele><time>2026-04-25T17:02:11.672Z</time></trkpt><trkpt lat="45.9641698" lon="11.756149"><ele>270.0</ele><time>2026-04-25T17:02:12.642Z</time></trkpt><trkpt lat="45.9642439" lon="11.75612"><ele>270.0</ele><time>2026-04-25T17:02:13.631Z</time></trkpt><trkpt lat="45.9643164" lon="11.7560946"><ele>270.0</ele><time>2026-04-25T17:02:14.641Z</time></trkpt><trkpt lat="45.9643887" lon="11.7560697"><ele>270.0</ele><time>2026-04-25T17:02:15.657Z</time></trkpt><trkpt lat="45.9644562" lon="11.7560456"><ele>270.0</ele><time>2026-04-25T17:02:16.64Z</time></trkpt><trkpt lat="45.9645247" lon="11.7560249"><ele>270.0</ele><time>2026-04-25T17:02:17.645Z</time></trkpt><trkpt lat="45.964596" lon="11.7560201"><ele>272.2</ele><time>2026-04-25T17:02:18.643Z</time></trkpt><trkpt lat="45.9647096" lon="11.7560724"><ele>274.4</ele><time>2026-04-25T17:02:19.649Z</time></trkpt><trkpt lat="45.964809" lon="11.7561657"><ele>276.6</ele><time>2026-04-25T17:02:20.638Z</time></trkpt><trkpt lat="45.9648861" lon="11.7562625"><ele>278.8</ele><time>2026-04-25T17:02:21.636Z</time></trkpt><trkpt lat="45.964958" lon="11.756359"><ele>281.0</ele><time>2026-04-25T17:02:22.655Z</time></trkpt><trkpt lat="45.9650316" lon="11.7564577"><ele>282.5</ele><time>2026-04-25T17:02:23.637Z</time></trkpt><trkpt lat="45.9651363" lon="11.7565829"><ele>284.0</ele><time>2026-04-25T17:02:24.656Z</time></trkpt><trkpt lat="45.965241" lon="11.756703"><ele>285.5</ele><time>2026-04-25T17:02:25.631Z</time></trkpt><trkpt lat="45.9653352" lon="11.7568165"><ele>287.0</ele><time>2026-04-25T17:02:26.642Z</time></trkpt><trkpt lat="45.9654199" lon="11.7569179"><ele>287.0</ele><time>2026-04-25T17:02:27.639Z</time></trkpt><trkpt lat="45.9655178" lon="11.7570288"><ele>287.0</ele><time>2026-04-25T17:02:28.645Z</time></trkpt><trkpt lat="45.9656185" lon="11.7571504"><ele>287.0</ele><time>2026-04-25T17:02:29.648Z</time></trkpt><trkpt lat="45.9657252" lon="11.7572734"><ele>287.0</ele><time>2026-04-25T17:02:30.643Z</time></trkpt><trkpt lat="45.9658093" lon="11.7573872"><ele>286.6</ele><time>2026-04-25T17:02:31.644Z</time></trkpt><trkpt lat="45.9658732" lon="11.7574919"><ele>286.2</ele><time>2026-04-25T17:02:32.636Z</time></trkpt><trkpt lat="45.9659402" lon="11.7576144"><ele>285.8</ele><time>2026-04-25T17:02:33.632Z</time></trkpt><trkpt lat="45.966001" lon="11.7577405"><ele>285.4</ele><time>2026-04-25T17:02:34.639Z</time></trkpt><trkpt lat="45.9660614" lon="11.7578171"><ele>285.0</ele><time>2026-04-25T17:02:35.631Z</time></trkpt><trkpt lat="45.9661177" lon="11.7578789"><ele>285.0</ele><time>2026-04-25T17:02:36.626Z</time></trkpt><trkpt lat="45.966184" lon="11.7579174"><ele>285.0</ele><time>2026-04-25T17:02:37.638Z</time></trkpt><trkpt lat="45.9662555" lon="11.7579358"><ele>285.0</ele><time>2026-04-25T17:02:38.628Z</time></trkpt><trkpt lat="45.9663331" lon="11.757948"><ele>285.0</ele><time>2026-04-25T17:02:39.646Z</time></trkpt><trkpt lat="45.9664185" lon="11.7579613"><ele>285.0</ele><time>2026-04-25T17:02:40.651Z</time></trkpt><trkpt lat="45.9665126" lon="11.7579736"><ele>285.0</ele><time>2026-04-25T17:02:41.646Z</time></trkpt><trkpt lat="45.9666134" lon="11.75799"><ele>287.0</ele><time>2026-04-25T17:02:42.66Z</time></trkpt><trkpt lat="45.9667143" lon="11.7580043"><ele>289.0</ele><time>2026-04-25T17:02:43.654Z</time></trkpt><trkpt lat="45.9668103" lon="11.7580262"><ele>291.0</ele><time>2026-04-25T17:02:44.638Z</time></trkpt><trkpt lat="45.9669006" lon="11.7580677"><ele>293.0</ele><time>2026-04-25T17:02:45.635Z</time></trkpt><trkpt lat="45.9669873" lon="11.7581311"><ele>295.0</ele><time>2026-04-25T17:02:46.646Z</time></trkpt><trkpt lat="45.9670711" lon="11.7582052"><ele>295.0</ele><time>2026-04-25T17:02:47.652Z</time></trkpt><trkpt lat="45.9671539" lon="11.7582806"><ele>295.0</ele><time>2026-04-25T17:02:48.642Z</time></trkpt><trkpt lat="45.967237" lon="11.7583568"><ele>295.0</ele><time>2026-04-25T17:02:49.633Z</time></trkpt><trkpt lat="45.9673214" lon="11.7584313"><ele>295.0</ele><time>2026-04-25T17:02:50.631Z</time></trkpt><trkpt lat="45.967402" lon="11.7585013"><ele>295.0</ele><time>2026-04-25T17:02:51.598Z</time></trkpt><trkpt lat="45.9674828" lon="11.7585756"><ele>295.6</ele><time>2026-04-25T17:02:52.583Z</time></trkpt><trkpt lat="45.9675736" lon="11.7586486"><ele>296.2</ele><time>2026-04-25T17:02:53.591Z</time></trkpt><trkpt lat="45.9676577" lon="11.7587225"><ele>296.8</ele><time>2026-04-25T17:02:54.583Z</time></trkpt><trkpt lat="45.9677439" lon="11.7587994"><ele>297.4</ele><time>2026-04-25T17:02:55.595Z</time></trkpt><trkpt lat="45.9678272" lon="11.7588707"><ele>298.0</ele><time>2026-04-25T17:02:56.58Z</time></trkpt><trkpt lat="45.9679072" lon="11.7589428"><ele>298.0</ele><time>2026-04-25T17:02:57.594Z</time></trkpt><trkpt lat="45.9679876" lon="11.7590075"><ele>298.0</ele><time>2026-04-25T17:02:58.585Z</time></trkpt><trkpt lat="45.9680614" lon="11.7590677"><ele>298.0</ele><time>2026-04-25T17:02:59.563Z</time></trkpt><trkpt lat="45.9681474" lon="11.7591186"><ele>298.0</ele><time>2026-04-25T17:03:00.583Z</time></trkpt><trkpt lat="45.9682327" lon="11.7591422"><ele>298.0</ele><time>2026-04-25T17:03:01.588Z</time></trkpt><trkpt lat="45.968323" lon="11.7591487"><ele>298.0</ele><time>2026-04-25T17:03:02.598Z</time></trkpt><trkpt lat="45.9684098" lon="11.7591483"><ele>298.3333333333333</ele><time>2026-04-25T17:03:03.582Z</time></trkpt><trkpt lat="45.9684943" lon="11.7591467"><ele>298.66666666666663</ele><time>2026-04-25T17:03:04.605Z</time></trkpt><trkpt lat="45.9685641" lon="11.7591299"><ele>299.0</ele><time>2026-04-25T17:03:05.57Z</time></trkpt><trkpt lat="45.9686354" lon="11.7590946"><ele>299.3333333333333</ele><time>2026-04-25T17:03:06.573Z</time></trkpt><trkpt lat="45.9687098" lon="11.7590427"><ele>299.6666666666667</ele><time>2026-04-25T17:03:07.58Z</time></trkpt><trkpt lat="45.9687941" lon="11.7589814"><ele>300.0</ele><time>2026-04-25T17:03:08.587Z</time></trkpt><trkpt lat="45.9688859" lon="11.7589143"><ele>300.0</ele><time>2026-04-25T17:03:09.574Z</time></trkpt><trkpt lat="45.9689882" lon="11.7588389"><ele>300.0</ele><time>2026-04-25T17:03:10.586Z</time></trkpt><trkpt lat="45.9690804" lon="11.7587543"><ele>300.0</ele><time>2026-04-25T17:03:11.577Z</time></trkpt><trkpt lat="45.9691642" lon="11.7586747"><ele>300.0</ele><time>2026-04-25T17:03:12.588Z</time></trkpt><trkpt lat="45.9692416" lon="11.7586045"><ele>300.0</ele><time>2026-04-25T17:03:13.577Z</time></trkpt><trkpt lat="45.9693109" lon="11.7585516"><ele>298.8333333333333</ele><time>2026-04-25T17:03:14.538Z</time></trkpt><trkpt lat="45.969384" lon="11.7585109"><ele>297.6666666666667</ele><time>2026-04-25T17:03:15.569Z</time></trkpt><trkpt lat="45.9694467" lon="11.7584843"><ele>296.5</ele><time>2026-04-25T17:03:16.584Z</time></trkpt><trkpt lat="45.9695563" lon="11.7584123"><ele>295.33333333333337</ele><time>2026-04-25T17:03:18.602Z</time></trkpt><trkpt lat="45.9696158" lon="11.7583696"><ele>294.1666666666667</ele><time>2026-04-25T17:03:19.574Z</time></trkpt><trkpt lat="45.9696802" lon="11.7583335"><ele>293.0</ele><time>2026-04-25T17:03:20.582Z</time></trkpt><trkpt lat="45.9697653" lon="11.7583245"><ele>293.0</ele><time>2026-04-25T17:03:21.582Z</time></trkpt><trkpt lat="45.9699011" lon="11.7583551"><ele>293.0</ele><time>2026-04-25T17:03:22.582Z</time></trkpt><trkpt lat="45.9700752" lon="11.7584094"><ele>293.0</ele><time>2026-04-25T17:03:23.585Z</time></trkpt><trkpt lat="45.970202" lon="11.758446"><ele>293.0</ele><time>2026-04-25T17:03:24.586Z</time></trkpt><trkpt lat="45.9702698" lon="11.7584482"><ele>292.33333333333337</ele><time>2026-04-25T17:03:25.582Z</time></trkpt><trkpt lat="45.9703591" lon="11.7584319"><ele>291.6666666666667</ele><time>2026-04-25T17:03:27.58Z</time></trkpt><trkpt lat="45.9703662" lon="11.758309"><ele>291.0</ele><time>2026-04-25T17:03:29.583Z</time></trkpt><trkpt lat="45.9703712" lon="11.7582002"><ele>290.3333333333333</ele><time>2026-04-25T17:03:30.587Z</time></trkpt><trkpt lat="45.9704051" lon="11.7581173"><ele>289.66666666666663</ele><time>2026-04-25T17:03:31.587Z</time></trkpt><trkpt lat="45.9704666" lon="11.7580491"><ele>289.0</ele><time>2026-04-25T17:03:32.585Z</time></trkpt><trkpt lat="45.9705439" lon="11.7579738"><ele>289.0</ele><time>2026-04-25T17:03:33.592Z</time></trkpt><trkpt lat="45.9706358" lon="11.7578699"><ele>289.0</ele><time>2026-04-25T17:03:34.587Z</time></trkpt><trkpt lat="45.9707194" lon="11.7577432"><ele>289.0</ele><time>2026-04-25T17:03:35.639Z</time></trkpt><trkpt lat="45.970767" lon="11.7576564"><ele>289.0</ele><time>2026-04-25T17:03:36.656Z</time></trkpt><trkpt lat="45.9708538" lon="11.7575899"><ele>289.0</ele><time>2026-04-25T17:03:38.564Z</time></trkpt><trkpt lat="45.9709375" lon="11.7575653"><ele>289.3333333333333</ele><time>2026-04-25T17:03:40.581Z</time></trkpt><trkpt lat="45.9710239" lon="11.7576868"><ele>289.6666666666667</ele><time>2026-04-25T17:03:42.571Z</time></trkpt><trkpt lat="45.9711348" lon="11.7577941"><ele>290.0</ele><time>2026-04-25T17:03:43.597Z</time></trkpt><trkpt lat="45.9713281" lon="11.7579871"><ele>290.0</ele><time>2026-04-25T17:03:44.593Z</time></trkpt><trkpt lat="45.971519" lon="11.7581685"><ele>290.0</ele><time>2026-04-25T17:03:45.588Z</time></trkpt><trkpt lat="45.971648" lon="11.7582304"><ele>290.0</ele><time>2026-04-25T17:03:46.58Z</time></trkpt><trkpt lat="45.9717647" lon="11.7582461"><ele>288.75</ele><time>2026-04-25T17:03:47.571Z</time></trkpt><trkpt lat="45.9719058" lon="11.7582981"><ele>287.5</ele><time>2026-04-25T17:03:48.586Z</time></trkpt><trkpt lat="45.9720473" lon="11.7583711"><ele>286.25</ele><time>2026-04-25T17:03:49.579Z</time></trkpt><trkpt lat="45.9721795" lon="11.7584316"><ele>285.0</ele><time>2026-04-25T17:03:50.583Z</time></trkpt><trkpt lat="45.9723141" lon="11.7584651"><ele>285.0</ele><time>2026-04-25T17:03:51.587Z</time></trkpt><trkpt lat="45.9724609" lon="11.7584849"><ele>285.0</ele><time>2026-04-25T17:03:52.595Z</time></trkpt><trkpt lat="45.9726096" lon="11.7585048"><ele>285.0</ele><time>2026-04-25T17:03:53.582Z</time></trkpt><trkpt lat="45.9727488" lon="11.7585246"><ele>285.0</ele><time>2026-04-25T17:03:54.559Z</time></trkpt><trkpt lat="45.9728874" lon="11.7585458"><ele>287.5</ele><time>2026-04-25T17:03:55.593Z</time></trkpt><trkpt lat="45.9730128" lon="11.7585646"><ele>290.0</ele><time>2026-04-25T17:03:56.589Z</time></trkpt><trkpt lat="45.9731403" lon="11.7585794"><ele>292.5</ele><time>2026-04-25T17:03:57.603Z</time></trkpt><trkpt lat="45.9732725" lon="11.7585914"><ele>295.0</ele><time>2026-04-25T17:03:58.58Z</time></trkpt><trkpt lat="45.9734123" lon="11.7586133"><ele>296.66666666666663</ele><time>2026-04-25T17:03:59.591Z</time></trkpt><trkpt lat="45.9735448" lon="11.7586375"><ele>298.3333333333333</ele><time>2026-04-25T17:04:00.577Z</time></trkpt><trkpt lat="45.9736947" lon="11.7586586"><ele>300.0</ele><time>2026-04-25T17:04:01.58Z</time></trkpt><trkpt lat="45.973862" lon="11.758678"><ele>300.0</ele><time>2026-04-25T17:04:02.594Z</time></trkpt><trkpt lat="45.9740135" lon="11.7586986"><ele>300.0</ele><time>2026-04-25T17:04:03.587Z</time></trkpt><trkpt lat="45.97414" lon="11.7587184"><ele>300.0</ele><time>2026-04-25T17:04:04.569Z</time></trkpt><trkpt lat="45.9742521" lon="11.7587318"><ele>300.0</ele><time>2026-04-25T17:04:05.574Z</time></trkpt><trkpt lat="45.9743573" lon="11.7587478"><ele>298.5</ele><time>2026-04-25T17:04:06.582Z</time></trkpt><trkpt lat="45.9744592" lon="11.7587662"><ele>297.0</ele><time>2026-04-25T17:04:07.584Z</time></trkpt><trkpt lat="45.9745683" lon="11.7587866"><ele>295.5</ele><time>2026-04-25T17:04:08.581Z</time></trkpt><trkpt lat="45.9747131" lon="11.7588032"><ele>294.0</ele><time>2026-04-25T17:04:09.585Z</time></trkpt><trkpt lat="45.9748927" lon="11.758828"><ele>293.3333333333333</ele><time>2026-04-25T17:04:10.578Z</time></trkpt><trkpt lat="45.9750991" lon="11.7588578"><ele>292.66666666666663</ele><time>2026-04-25T17:04:11.589Z</time></trkpt><trkpt lat="45.9753054" lon="11.7588954"><ele>292.0</ele><time>2026-04-25T17:04:12.597Z</time></trkpt><trkpt lat="45.9754771" lon="11.7589324"><ele>292.0</ele><time>2026-04-25T17:04:13.59Z</time></trkpt><trkpt lat="45.9756155" lon="11.7589587"><ele>292.0</ele><time>2026-04-25T17:04:14.579Z</time></trkpt><trkpt lat="45.9757368" lon="11.7589794"><ele>292.0</ele><time>2026-04-25T17:04:15.583Z</time></trkpt><trkpt lat="45.9758445" lon="11.7589975"><ele>292.0</ele><time>2026-04-25T17:04:16.598Z</time></trkpt><trkpt lat="45.9759368" lon="11.759013"><ele>292.0</ele><time>2026-04-25T17:04:17.599Z</time></trkpt><trkpt lat="45.9760194" lon="11.7590198"><ele>292.0</ele><time>2026-04-25T17:04:18.558Z</time></trkpt><trkpt lat="45.9761069" lon="11.7590085"><ele>292.0</ele><time>2026-04-25T17:04:19.592Z</time></trkpt><trkpt lat="45.9761924" lon="11.7589787"><ele>292.0</ele><time>2026-04-25T17:04:20.576Z</time></trkpt><trkpt lat="45.9762813" lon="11.7589453"><ele>292.0</ele><time>2026-04-25T17:04:21.592Z</time></trkpt><trkpt lat="45.9763832" lon="11.7588924"><ele>292.0</ele><time>2026-04-25T17:04:22.593Z</time></trkpt><trkpt lat="45.9765005" lon="11.7588374"><ele>292.0</ele><time>2026-04-25T17:04:23.548Z</time></trkpt><trkpt lat="45.9766356" lon="11.7587908"><ele>292.0</ele><time>2026-04-25T17:04:24.597Z</time></trkpt><trkpt lat="45.9767559" lon="11.7587611"><ele>292.0</ele><time>2026-04-25T17:04:25.593Z</time></trkpt><trkpt lat="45.9768724" lon="11.758733"><ele>292.25</ele><time>2026-04-25T17:04:26.594Z</time></trkpt><trkpt lat="45.976998" lon="11.7587001"><ele>292.5</ele><time>2026-04-25T17:04:27.569Z</time></trkpt><trkpt lat="45.9771272" lon="11.7586697"><ele>292.75</ele><time>2026-04-25T17:04:28.586Z</time></trkpt><trkpt lat="45.977264" lon="11.7586578"><ele>293.0</ele><time>2026-04-25T17:04:29.579Z</time></trkpt><trkpt lat="45.9774071" lon="11.7586614"><ele>292.83333333333337</ele><time>2026-04-25T17:04:30.589Z</time></trkpt><trkpt lat="45.9775438" lon="11.7586599"><ele>292.6666666666667</ele><time>2026-04-25T17:04:31.599Z</time></trkpt><trkpt lat="45.9776445" lon="11.7586572"><ele>292.5</ele><time>2026-04-25T17:04:32.587Z</time></trkpt><trkpt lat="45.9777108" lon="11.7586462"><ele>292.3333333333333</ele><time>2026-04-25T17:04:33.575Z</time></trkpt><trkpt lat="45.977776" lon="11.7586291"><ele>292.16666666666663</ele><time>2026-04-25T17:04:35.585Z</time></trkpt><trkpt lat="45.9778384" lon="11.7585777"><ele>292.0</ele><time>2026-04-25T17:04:37.571Z</time></trkpt><trkpt lat="45.9778969" lon="11.7585307"><ele>292.0</ele><time>2026-04-25T17:04:38.578Z</time></trkpt><trkpt lat="45.9779628" lon="11.758471"><ele>292.0</ele><time>2026-04-25T17:04:39.593Z</time></trkpt><trkpt lat="45.9780266" lon="11.758419"><ele>292.0</ele><time>2026-04-25T17:04:40.581Z</time></trkpt><trkpt lat="45.9780922" lon="11.7583716"><ele>292.0</ele><time>2026-04-25T17:04:41.61Z</time></trkpt><trkpt lat="45.9781558" lon="11.7583256"><ele>292.0</ele><time>2026-04-25T17:04:42.591Z</time></trkpt><trkpt lat="45.9782198" lon="11.7582823"><ele>292.0</ele><time>2026-04-25T17:04:43.59Z</time></trkpt><trkpt lat="45.9782979" lon="11.7581693"><ele>292.0</ele><time>2026-04-25T17:04:45.57Z</time></trkpt><trkpt lat="45.9783087" lon="11.7580798"><ele>292.0</ele><time>2026-04-25T17:04:46.59Z</time></trkpt><trkpt lat="45.9783072" lon="11.757987"><ele>292.0</ele><time>2026-04-25T17:04:47.58Z</time></trkpt><trkpt lat="45.9783146" lon="11.7578935"><ele>292.0</ele><time>2026-04-25T17:04:48.569Z</time></trkpt><trkpt lat="45.9783411" lon="11.7578026"><ele>292.0</ele><time>2026-04-25T17:04:49.602Z</time></trkpt><trkpt lat="45.9783839" lon="11.7577299"><ele>292.0</ele><time>2026-04-25T17:04:50.586Z</time></trkpt><trkpt lat="45.9784349" lon="11.757652"><ele>292.0</ele><time>2026-04-25T17:04:51.594Z</time></trkpt><trkpt lat="45.97849" lon="11.757563"><ele>292.0</ele><time>2026-04-25T17:04:52.589Z</time></trkpt><trkpt lat="45.9785465" lon="11.7574745"><ele>292.0</ele><time>2026-04-25T17:04:53.597Z</time></trkpt><trkpt lat="45.9786045" lon="11.7573862"><ele>292.0</ele><time>2026-04-25T17:04:54.586Z</time></trkpt><trkpt lat="45.9786654" lon="11.7572939"><ele>292.0</ele><time>2026-04-25T17:04:55.58Z</time></trkpt><trkpt lat="45.9787348" lon="11.7572067"><ele>292.0</ele><time>2026-04-25T17:04:56.596Z</time></trkpt><trkpt lat="45.9788046" lon="11.7571285"><ele>292.0</ele><time>2026-04-25T17:04:57.582Z</time></trkpt><trkpt lat="45.9788777" lon="11.7570452"><ele>292.0</ele><time>2026-04-25T17:04:58.606Z</time></trkpt><trkpt lat="45.9789469" lon="11.7569654"><ele>292.0</ele><time>2026-04-25T17:04:59.59Z</time></trkpt><trkpt lat="45.9790123" lon="11.7568819"><ele>292.0</ele><time>2026-04-25T17:05:00.607Z</time></trkpt><trkpt lat="45.979074" lon="11.7568062"><ele>292.0</ele><time>2026-04-25T17:05:01.587Z</time></trkpt><trkpt lat="45.979136" lon="11.7567344"><ele>292.0</ele><time>2026-04-25T17:05:02.597Z</time></trkpt><trkpt lat="45.9791979" lon="11.7566604"><ele>292.0</ele><time>2026-04-25T17:05:03.585Z</time></trkpt><trkpt lat="45.9792644" lon="11.756588"><ele>292.8333333333333</ele><time>2026-04-25T17:05:04.58Z</time></trkpt><trkpt lat="45.9793314" lon="11.7565076"><ele>293.66666666666663</ele><time>2026-04-25T17:05:05.567Z</time></trkpt><trkpt lat="45.9793995" lon="11.7564285"><ele>294.5</ele><time>2026-04-25T17:05:06.589Z</time></trkpt><trkpt lat="45.9794672" lon="11.7563494"><ele>295.3333333333333</ele><time>2026-04-25T17:05:07.589Z</time></trkpt><trkpt lat="45.9795382" lon="11.756274"><ele>296.1666666666667</ele><time>2026-04-25T17:05:08.586Z</time></trkpt><trkpt lat="45.9796076" lon="11.7561924"><ele>297.0</ele><time>2026-04-25T17:05:09.58Z</time></trkpt><trkpt lat="45.9796722" lon="11.7561073"><ele>297.0</ele><time>2026-04-25T17:05:10.579Z</time></trkpt><trkpt lat="45.9797371" lon="11.7560237"><ele>297.0</ele><time>2026-04-25T17:05:11.578Z</time></trkpt><trkpt lat="45.9798035" lon="11.7559385"><ele>297.0</ele><time>2026-04-25T17:05:12.582Z</time></trkpt><trkpt lat="45.9798664" lon="11.7558476"><ele>297.0</ele><time>2026-04-25T17:05:13.579Z</time></trkpt><trkpt lat="45.9799217" lon="11.7557627"><ele>297.0</ele><time>2026-04-25T17:05:14.583Z</time></trkpt><trkpt lat="45.979981" lon="11.7556724"><ele>297.0</ele><time>2026-04-25T17:05:15.589Z</time></trkpt><trkpt lat="45.9800438" lon="11.7555772"><ele>297.8</ele><time>2026-04-25T17:05:16.592Z</time></trkpt><trkpt lat="45.9801062" lon="11.7554818"><ele>298.6</ele><time>2026-04-25T17:05:17.582Z</time></trkpt><trkpt lat="45.9801694" lon="11.7553896"><ele>299.40000000000003</ele><time>2026-04-25T17:05:18.578Z</time></trkpt><trkpt lat="45.9802311" lon="11.7552931"><ele>300.2</ele><time>2026-04-25T17:05:19.596Z</time></trkpt><trkpt lat="45.980296" lon="11.7551967"><ele>301.0</ele><time>2026-04-25T17:05:20.598Z</time></trkpt><trkpt lat="45.980361" lon="11.7551068"><ele>301.0</ele><time>2026-04-25T17:05:21.579Z</time></trkpt><trkpt lat="45.9804733" lon="11.7549293"><ele>301.0</ele><time>2026-04-25T17:05:23.426Z</time></trkpt><trkpt lat="45.9805504" lon="11.7548238"><ele>301.0</ele><time>2026-04-25T17:05:24.424Z</time></trkpt><trkpt lat="45.9806213" lon="11.7547408"><ele>301.0</ele><time>2026-04-25T17:05:25.424Z</time></trkpt><trkpt lat="45.9807532" lon="11.7546344"><ele>302.6</ele><time>2026-04-25T17:05:27.597Z</time></trkpt><trkpt lat="45.9808505" lon="11.7545709"><ele>304.20000000000005</ele><time>2026-04-25T17:05:28.585Z</time></trkpt><trkpt lat="45.9809512" lon="11.7544985"><ele>305.79999999999995</ele><time>2026-04-25T17:05:29.589Z</time></trkpt><trkpt lat="45.9810399" lon="11.7544278"><ele>307.4</ele><time>2026-04-25T17:05:30.591Z</time></trkpt><trkpt lat="45.9811282" lon="11.7543578"><ele>309.0</ele><time>2026-04-25T17:05:31.583Z</time></trkpt><trkpt lat="45.9812152" lon="11.7542975"><ele>309.0</ele><time>2026-04-25T17:05:32.599Z</time></trkpt><trkpt lat="45.9812999" lon="11.7542648"><ele>309.0</ele><time>2026-04-25T17:05:33.582Z</time></trkpt><trkpt lat="45.9813932" lon="11.7542533"><ele>309.0</ele><time>2026-04-25T17:05:34.564Z</time></trkpt><trkpt lat="45.9814904" lon="11.7542484"><ele>309.0</ele><time>2026-04-25T17:05:35.579Z</time></trkpt><trkpt lat="45.9815866" lon="11.7542439"><ele>309.0</ele><time>2026-04-25T17:05:36.581Z</time></trkpt><trkpt lat="45.9816841" lon="11.754239"><ele>311.5</ele><time>2026-04-25T17:05:37.597Z</time></trkpt><trkpt lat="45.9817741" lon="11.7542249"><ele>314.0</ele><time>2026-04-25T17:05:38.584Z</time></trkpt><trkpt lat="45.9818626" lon="11.7542006"><ele>316.5</ele><time>2026-04-25T17:05:39.6Z</time></trkpt><trkpt lat="45.9819302" lon="11.7541574"><ele>319.0</ele><time>2026-04-25T17:05:40.601Z</time></trkpt><trkpt lat="45.9819816" lon="11.754085"><ele>321.5</ele><time>2026-04-25T17:05:41.585Z</time></trkpt><trkpt lat="45.982018" lon="11.753982"><ele>324.0</ele><time>2026-04-25T17:05:42.591Z</time></trkpt><trkpt lat="45.9820341" lon="11.7538673"><ele>324.0</ele><time>2026-04-25T17:05:43.603Z</time></trkpt><trkpt lat="45.982026" lon="11.7537547"><ele>324.0</ele><time>2026-04-25T17:05:44.594Z</time></trkpt><trkpt lat="45.9819963" lon="11.7536414"><ele>324.0</ele><time>2026-04-25T17:05:45.586Z</time></trkpt><trkpt lat="45.9819615" lon="11.753526"><ele>324.0</ele><time>2026-04-25T17:05:46.585Z</time></trkpt><trkpt lat="45.9819291" lon="11.7534095"><ele>324.0</ele><time>2026-04-25T17:05:47.588Z</time></trkpt><trkpt lat="45.9819027" lon="11.753289"><ele>324.0</ele><time>2026-04-25T17:05:48.574Z</time></trkpt><trkpt lat="45.9818673" lon="11.7531662"><ele>325.0</ele><time>2026-04-25T17:05:49.589Z</time></trkpt><trkpt lat="45.9818253" lon="11.753034"><ele>326.0</ele><time>2026-04-25T17:05:50.583Z</time></trkpt><trkpt lat="45.9817776" lon="11.7529195"><ele>327.0</ele><time>2026-04-25T17:05:51.592Z</time></trkpt><trkpt lat="45.9817245" lon="11.7527906"><ele>328.0</ele><time>2026-04-25T17:05:52.596Z</time></trkpt><trkpt lat="45.9816718" lon="11.7526886"><ele>329.0</ele><time>2026-04-25T17:05:53.595Z</time></trkpt><trkpt lat="45.9816105" lon="11.7525885"><ele>326.4</ele><time>2026-04-25T17:05:54.596Z</time></trkpt><trkpt lat="45.9815541" lon="11.7524795"><ele>323.79999999999995</ele><time>2026-04-25T17:05:55.595Z</time></trkpt><trkpt lat="45.981501" lon="11.7523777"><ele>321.20000000000005</ele><time>2026-04-25T17:05:56.581Z</time></trkpt><trkpt lat="45.9814501" lon="11.7522623"><ele>318.6</ele><time>2026-04-25T17:05:57.589Z</time></trkpt><trkpt lat="45.9814023" lon="11.7521472"><ele>316.0</ele><time>2026-04-25T17:05:58.586Z</time></trkpt><trkpt lat="45.9813646" lon="11.7520433"><ele>316.0</ele><time>2026-04-25T17:05:59.614Z</time></trkpt><trkpt lat="45.9813288" lon="11.7519432"><ele>316.0</ele><time>2026-04-25T17:06:01.586Z</time></trkpt><trkpt lat="45.9813107" lon="11.7518411"><ele>316.0</ele><time>2026-04-25T17:06:04.59Z</time></trkpt><trkpt lat="45.9812853" lon="11.7516787"><ele>316.0</ele><time>2026-04-25T17:06:06.575Z</time></trkpt><trkpt lat="45.9812506" lon="11.7515704"><ele>316.0</ele><time>2026-04-25T17:06:07.585Z</time></trkpt><trkpt lat="45.981198" lon="11.7514438"><ele>317.8</ele><time>2026-04-25T17:06:08.579Z</time></trkpt><trkpt lat="45.9811452" lon="11.7513036"><ele>319.6</ele><time>2026-04-25T17:06:09.596Z</time></trkpt><trkpt lat="45.9810995" lon="11.7511669"><ele>321.4</ele><time>2026-04-25T17:06:10.583Z</time></trkpt><trkpt lat="45.9810614" lon="11.7510378"><ele>323.2</ele><time>2026-04-25T17:06:11.567Z</time></trkpt><trkpt lat="45.9810216" lon="11.7509241"><ele>325.0</ele><time>2026-04-25T17:06:12.595Z</time></trkpt><trkpt lat="45.9809892" lon="11.7508069"><ele>324.8</ele><time>2026-04-25T17:06:13.595Z</time></trkpt><trkpt lat="45.9809469" lon="11.7506744"><ele>324.6</ele><time>2026-04-25T17:06:14.582Z</time></trkpt><trkpt lat="45.9809109" lon="11.7505458"><ele>324.4</ele><time>2026-04-25T17:06:15.61Z</time></trkpt><trkpt lat="45.9808806" lon="11.7504266"><ele>324.2</ele><time>2026-04-25T17:06:16.583Z</time></trkpt><trkpt lat="45.9808615" lon="11.7503055"><ele>324.0</ele><time>2026-04-25T17:06:17.581Z</time></trkpt><trkpt lat="45.980849" lon="11.7501739"><ele>324.0</ele><time>2026-04-25T17:06:18.585Z</time></trkpt><trkpt lat="45.980846" lon="11.7500429"><ele>324.0</ele><time>2026-04-25T17:06:19.578Z</time></trkpt><trkpt lat="45.9808447" lon="11.7499143"><ele>324.0</ele><time>2026-04-25T17:06:20.553Z</time></trkpt><trkpt lat="45.9808414" lon="11.7497836"><ele>324.0</ele><time>2026-04-25T17:06:21.571Z</time></trkpt><trkpt lat="45.9808431" lon="11.7496578"><ele>324.0</ele><time>2026-04-25T17:06:22.553Z</time></trkpt><trkpt lat="45.980843" lon="11.7495284"><ele>324.0</ele><time>2026-04-25T17:06:23.568Z</time></trkpt><trkpt lat="45.9808395" lon="11.7494068"><ele>324.5</ele><time>2026-04-25T17:06:24.586Z</time></trkpt><trkpt lat="45.9808454" lon="11.7492868"><ele>325.0</ele><time>2026-04-25T17:06:25.571Z</time></trkpt><trkpt lat="45.9808584" lon="11.7491622"><ele>325.5</ele><time>2026-04-25T17:06:26.578Z</time></trkpt><trkpt lat="45.9808873" lon="11.749039"><ele>326.0</ele><time>2026-04-25T17:06:27.582Z</time></trkpt><trkpt lat="45.9809372" lon="11.7489337"><ele>326.5</ele><time>2026-04-25T17:06:28.585Z</time></trkpt><trkpt lat="45.9810053" lon="11.7488454"><ele>327.0</ele><time>2026-04-25T17:06:29.58Z</time></trkpt><trkpt lat="45.9810826" lon="11.7487624"><ele>328.20000000000005</ele><time>2026-04-25T17:06:30.576Z</time></trkpt><trkpt lat="45.9811572" lon="11.7486967"><ele>329.4</ele><time>2026-04-25T17:06:31.576Z</time></trkpt><trkpt lat="45.9812435" lon="11.7486537"><ele>330.6</ele><time>2026-04-25T17:06:32.586Z</time></trkpt><trkpt lat="45.9813357" lon="11.7486294"><ele>331.79999999999995</ele><time>2026-04-25T17:06:33.572Z</time></trkpt><trkpt lat="45.9814357" lon="11.7486099"><ele>333.0</ele><time>2026-04-25T17:06:34.584Z</time></trkpt><trkpt lat="45.9815339" lon="11.748589"><ele>333.0</ele><time>2026-04-25T17:06:35.582Z</time></trkpt><trkpt lat="45.9816255" lon="11.7485471"><ele>333.0</ele><time>2026-04-25T17:06:36.596Z</time></trkpt><trkpt lat="45.9817164" lon="11.748506"><ele>333.0</ele><time>2026-04-25T17:06:37.585Z</time></trkpt><trkpt lat="45.981809" lon="11.7484589"><ele>333.0</ele><time>2026-04-25T17:06:38.588Z</time></trkpt><trkpt lat="45.9818941" lon="11.7484194"><ele>333.0</ele><time>2026-04-25T17:06:39.586Z</time></trkpt><trkpt lat="45.9819544" lon="11.7483872"><ele>333.0</ele><time>2026-04-25T17:06:40.583Z</time></trkpt><trkpt lat="45.9820276" lon="11.7484545"><ele>334.8571428571429</ele><time>2026-04-25T17:06:44.584Z</time></trkpt><trkpt lat="45.9820547" lon="11.748544"><ele>336.71428571428567</ele><time>2026-04-25T17:06:45.587Z</time></trkpt><trkpt lat="45.9820723" lon="11.7486338"><ele>338.57142857142856</ele><time>2026-04-25T17:06:46.577Z</time></trkpt><trkpt lat="45.982093" lon="11.7487377"><ele>340.42857142857144</ele><time>2026-04-25T17:06:47.579Z</time></trkpt><trkpt lat="45.9821131" lon="11.7488249"><ele>342.28571428571433</ele><time>2026-04-25T17:06:48.587Z</time></trkpt><trkpt lat="45.9821498" lon="11.7489283"><ele>344.1428571428571</ele><time>2026-04-25T17:06:50.594Z</time></trkpt><trkpt lat="45.9822227" lon="11.7489684"><ele>346.0</ele><time>2026-04-25T17:06:53.6Z</time></trkpt><trkpt lat="45.9823041" lon="11.7489491"><ele>346.0</ele><time>2026-04-25T17:06:56.584Z</time></trkpt><trkpt lat="45.9823878" lon="11.7489934"><ele>346.0</ele><time>2026-04-25T17:07:00.585Z</time></trkpt><trkpt lat="45.9823757" lon="11.7491608"><ele>346.0</ele><time>2026-04-25T17:07:04.586Z</time></trkpt><trkpt lat="45.9823306" lon="11.7492985"><ele>346.0</ele><time>2026-04-25T17:07:05.592Z</time></trkpt><trkpt lat="45.9822712" lon="11.7494304"><ele>346.0</ele><time>2026-04-25T17:07:06.592Z</time></trkpt><trkpt lat="45.9822053" lon="11.7495261"><ele>347.5</ele><time>2026-04-25T17:07:07.577Z</time></trkpt><trkpt lat="45.9821474" lon="11.7495805"><ele>349.0</ele><time>2026-04-25T17:07:08.585Z</time></trkpt><trkpt lat="45.9821872" lon="11.7496539"><ele>350.5</ele><time>2026-04-25T17:07:13.599Z</time></trkpt><trkpt lat="45.9822515" lon="11.7496516"><ele>352.0</ele><time>2026-04-25T17:07:15.574Z</time></trkpt><trkpt lat="45.9823527" lon="11.7496111"><ele>353.5</ele><time>2026-04-25T17:07:17.563Z</time></trkpt><trkpt lat="45.9824279" lon="11.749615"><ele>355.0</ele><time>2026-04-25T17:07:18.598Z</time></trkpt><trkpt lat="45.9825036" lon="11.7496438"><ele>356.66666666666663</ele><time>2026-04-25T17:07:19.587Z</time></trkpt><trkpt lat="45.9825787" lon="11.7496869"><ele>358.3333333333333</ele><time>2026-04-25T17:07:20.587Z</time></trkpt><trkpt lat="45.9826504" lon="11.7497203"><ele>360.0</ele><time>2026-04-25T17:07:21.588Z</time></trkpt><trkpt lat="45.9827177" lon="11.7497367"><ele>361.6666666666667</ele><time>2026-04-25T17:07:22.584Z</time></trkpt><trkpt lat="45.9828273" lon="11.7496692"><ele>363.33333333333337</ele><time>2026-04-25T17:07:24.563Z</time></trkpt><trkpt lat="45.9828717" lon="11.74958"><ele>365.0</ele><time>2026-04-25T17:07:25.586Z</time></trkpt><trkpt lat="45.9829212" lon="11.7494697"><ele>364.5</ele><time>2026-04-25T17:07:26.598Z</time></trkpt><trkpt lat="45.9829731" lon="11.7493739"><ele>364.0</ele><time>2026-04-25T17:07:27.595Z</time></trkpt><trkpt lat="45.9830302" lon="11.749309"><ele>363.5</ele><time>2026-04-25T17:07:28.595Z</time></trkpt><trkpt lat="45.9830968" lon="11.7492449"><ele>363.0</ele><time>2026-04-25T17:07:29.587Z</time></trkpt><trkpt lat="45.9831797" lon="11.7491919"><ele>362.5</ele><time>2026-04-25T17:07:30.606Z</time></trkpt><trkpt lat="45.9832664" lon="11.7491413"><ele>362.0</ele><time>2026-04-25T17:07:31.587Z</time></trkpt><trkpt lat="45.9833514" lon="11.7491184"><ele>362.0</ele><time>2026-04-25T17:07:32.587Z</time></trkpt><trkpt lat="45.9833046" lon="11.7491836"><ele>362.0</ele><time>2026-04-25T17:07:45.586Z</time></trkpt><trkpt lat="45.9833847" lon="11.7492101"><ele>362.0</ele><time>2026-04-25T17:07:48.575Z</time></trkpt><trkpt lat="45.9835077" lon="11.7491727"><ele>362.0</ele><time>2026-04-25T17:07:50.592Z</time></trkpt><trkpt lat="45.9835902" lon="11.7491399"><ele>362.0</ele><time>2026-04-25T17:07:51.572Z</time></trkpt><trkpt lat="45.9836823" lon="11.7491154"><ele>364.8</ele><time>2026-04-25T17:07:52.601Z</time></trkpt><trkpt lat="45.9837755" lon="11.7491162"><ele>367.6</ele><time>2026-04-25T17:07:53.572Z</time></trkpt><trkpt lat="45.9838773" lon="11.7491243"><ele>370.40000000000003</ele><time>2026-04-25T17:07:54.58Z</time></trkpt><trkpt lat="45.9839735" lon="11.7491405"><ele>373.20000000000005</ele><time>2026-04-25T17:07:55.575Z</time></trkpt><trkpt lat="45.984049" lon="11.7491707"><ele>376.0</ele><time>2026-04-25T17:07:56.589Z</time></trkpt><trkpt lat="45.9841365" lon="11.7492381"><ele>376.0</ele><time>2026-04-25T17:07:58.557Z</time></trkpt><trkpt lat="45.9841469" lon="11.7493631"><ele>376.0</ele><time>2026-04-25T17:08:00.588Z</time></trkpt><trkpt lat="45.9841556" lon="11.7494718"><ele>376.0</ele><time>2026-04-25T17:08:01.591Z</time></trkpt><trkpt lat="45.9841681" lon="11.7495937"><ele>376.0</ele><time>2026-04-25T17:08:02.588Z</time></trkpt><trkpt lat="45.9841752" lon="11.74971"><ele>376.0</ele><time>2026-04-25T17:08:03.578Z</time></trkpt><trkpt lat="45.9842885" lon="11.7496943"><ele>376.0</ele><time>2026-04-25T17:08:06.583Z</time></trkpt><trkpt lat="45.9844056" lon="11.7494519"><ele>380.6</ele><time>2026-04-25T17:08:08.645Z</time></trkpt><trkpt lat="45.9845093" lon="11.7492727"><ele>385.20000000000005</ele><time>2026-04-25T17:08:09.656Z</time></trkpt><trkpt lat="45.9845905" lon="11.7491501"><ele>389.79999999999995</ele><time>2026-04-25T17:08:10.632Z</time></trkpt><trkpt lat="45.9846463" lon="11.7490883"><ele>394.4</ele><time>2026-04-25T17:08:11.651Z</time></trkpt><trkpt lat="45.9847087" lon="11.7490367"><ele>399.0</ele><time>2026-04-25T17:08:12.65Z</time></trkpt><trkpt lat="45.984776" lon="11.7489878"><ele>399.0</ele><time>2026-04-25T17:08:13.642Z</time></trkpt><trkpt lat="45.9848443" lon="11.7489601"><ele>399.0</ele><time>2026-04-25T17:08:14.655Z</time></trkpt><trkpt lat="45.9849177" lon="11.7489525"><ele>399.0</ele><time>2026-04-25T17:08:15.644Z</time></trkpt><trkpt lat="45.9849928" lon="11.7489303"><ele>399.0</ele><time>2026-04-25T17:08:16.642Z</time></trkpt><trkpt lat="45.9850585" lon="11.7489417"><ele>399.0</ele><time>2026-04-25T17:08:17.643Z</time></trkpt><trkpt lat="45.985116" lon="11.7489829"><ele>399.0</ele><time>2026-04-25T17:08:19.639Z</time></trkpt><trkpt lat="45.9851226" lon="11.7490803"><ele>399.0</ele><time>2026-04-25T17:08:21.644Z</time></trkpt><trkpt lat="45.9850951" lon="11.7491856"><ele>403.2</ele><time>2026-04-25T17:08:22.635Z</time></trkpt><trkpt lat="45.9850674" lon="11.7493241"><ele>407.4</ele><time>2026-04-25T17:08:23.646Z</time></trkpt><trkpt lat="45.9850717" lon="11.7494613"><ele>411.6</ele><time>2026-04-25T17:08:24.636Z</time></trkpt><trkpt lat="45.9850912" lon="11.749611"><ele>415.8</ele><time>2026-04-25T17:08:25.664Z</time></trkpt><trkpt lat="45.9851173" lon="11.7497577"><ele>420.0</ele><time>2026-04-25T17:08:26.626Z</time></trkpt><trkpt lat="45.9851585" lon="11.7498985"><ele>420.0</ele><time>2026-04-25T17:08:27.641Z</time></trkpt><trkpt lat="45.9852216" lon="11.7499811"><ele>420.0</ele><time>2026-04-25T17:08:28.64Z</time></trkpt><trkpt lat="45.9852985" lon="11.7500226"><ele>420.0</ele><time>2026-04-25T17:08:29.639Z</time></trkpt><trkpt lat="45.9853949" lon="11.7500675"><ele>420.0</ele><time>2026-04-25T17:08:30.641Z</time></trkpt><trkpt lat="45.985502" lon="11.7501347"><ele>420.0</ele><time>2026-04-25T17:08:31.642Z</time></trkpt><trkpt lat="45.9855852" lon="11.7501731"><ele>420.0</ele><time>2026-04-25T17:08:32.651Z</time></trkpt><trkpt lat="45.9857111" lon="11.7501404"><ele>420.0</ele><time>2026-04-25T17:08:34.645Z</time></trkpt><trkpt lat="45.9858011" lon="11.7500978"><ele>420.0</ele><time>2026-04-25T17:08:35.639Z</time></trkpt><trkpt lat="45.9859041" lon="11.7500451"><ele>420.0</ele><time>2026-04-25T17:08:36.645Z</time></trkpt><trkpt lat="45.9860027" lon="11.7500193"><ele>420.0</ele><time>2026-04-25T17:08:37.646Z</time></trkpt><trkpt lat="45.9860711" lon="11.749989"><ele>421.8333333333333</ele><time>2026-04-25T17:08:38.622Z</time></trkpt><trkpt lat="45.9861359" lon="11.7499074"><ele>423.66666666666663</ele><time>2026-04-25T17:08:39.647Z</time></trkpt><trkpt lat="45.9861897" lon="11.7498063"><ele>425.5</ele><time>2026-04-25T17:08:40.634Z</time></trkpt><trkpt lat="45.9862485" lon="11.7497164"><ele>427.3333333333333</ele><time>2026-04-25T17:08:41.599Z</time></trkpt><trkpt lat="45.986306" lon="11.7496392"><ele>429.16666666666663</ele><time>2026-04-25T17:08:42.63Z</time></trkpt><trkpt lat="45.9863825" lon="11.749641"><ele>431.0</ele><time>2026-04-25T17:08:44.639Z</time></trkpt><trkpt lat="45.986513" lon="11.7496742"><ele>431.0</ele><time>2026-04-25T17:08:46.631Z</time></trkpt><trkpt lat="45.9865959" lon="11.7497076"><ele>431.0</ele><time>2026-04-25T17:08:47.651Z</time></trkpt><trkpt lat="45.9866885" lon="11.749759"><ele>431.0</ele><time>2026-04-25T17:08:48.662Z</time></trkpt><trkpt lat="45.9868006" lon="11.7497813"><ele>431.0</ele><time>2026-04-25T17:08:49.645Z</time></trkpt><trkpt lat="45.9868912" lon="11.7497873"><ele>431.0</ele><time>2026-04-25T17:08:50.651Z</time></trkpt><trkpt lat="45.9869582" lon="11.7497681"><ele>430.99999999999994</ele><time>2026-04-25T17:08:51.609Z</time></trkpt><trkpt lat="45.9870333" lon="11.7497259"><ele>431.0</ele><time>2026-04-25T17:08:52.641Z</time></trkpt><trkpt lat="45.9871059" lon="11.7496559"><ele>431.0</ele><time>2026-04-25T17:08:53.646Z</time></trkpt><trkpt lat="45.9871718" lon="11.7495728"><ele>431.0</ele><time>2026-04-25T17:08:54.632Z</time></trkpt><trkpt lat="45.9872454" lon="11.749489"><ele>430.99999999999994</ele><time>2026-04-25T17:08:55.645Z</time></trkpt><trkpt lat="45.9873047" lon="11.7494088"><ele>431.0</ele><time>2026-04-25T17:08:56.651Z</time></trkpt><trkpt lat="45.9873623" lon="11.7493423"><ele>432.99999999999994</ele><time>2026-04-25T17:08:57.642Z</time></trkpt><trkpt lat="45.9874044" lon="11.7492559"><ele>435.0</ele><time>2026-04-25T17:08:58.624Z</time></trkpt><trkpt lat="45.987445" lon="11.7491659"><ele>437.0</ele><time>2026-04-25T17:08:59.637Z</time></trkpt><trkpt lat="45.9874933" lon="11.7490696"><ele>439.0</ele><time>2026-04-25T17:09:00.662Z</time></trkpt><trkpt lat="45.9875299" lon="11.7489833"><ele>440.99999999999994</ele><time>2026-04-25T17:09:01.626Z</time></trkpt><trkpt lat="45.9875658" lon="11.7489062"><ele>443.0</ele><time>2026-04-25T17:09:02.631Z</time></trkpt><trkpt lat="45.9876191" lon="11.7487568"><ele>444.49999999999994</ele><time>2026-04-25T17:09:04.641Z</time></trkpt><trkpt lat="45.9876602" lon="11.7486719"><ele>446.0</ele><time>2026-04-25T17:09:05.65Z</time></trkpt><trkpt lat="45.9877092" lon="11.7485959"><ele>447.5</ele><time>2026-04-25T17:09:06.63Z</time></trkpt><trkpt lat="45.9877706" lon="11.7485263"><ele>449.0</ele><time>2026-04-25T17:09:07.651Z</time></trkpt><trkpt lat="45.9878384" lon="11.7484734"><ele>450.49999999999994</ele><time>2026-04-25T17:09:08.648Z</time></trkpt><trkpt lat="45.9879089" lon="11.7484216"><ele>452.0</ele><time>2026-04-25T17:09:09.645Z</time></trkpt><trkpt lat="45.9879808" lon="11.7483712"><ele>453.66666666666663</ele><time>2026-04-25T17:09:10.646Z</time></trkpt><trkpt lat="45.988054" lon="11.7483196"><ele>455.3333333333333</ele><time>2026-04-25T17:09:11.653Z</time></trkpt><trkpt lat="45.9881265" lon="11.7482687"><ele>457.0</ele><time>2026-04-25T17:09:12.647Z</time></trkpt><trkpt lat="45.9882018" lon="11.7482189"><ele>458.66666666666663</ele><time>2026-04-25T17:09:13.656Z</time></trkpt><trkpt lat="45.9882799" lon="11.7481639"><ele>460.3333333333333</ele><time>2026-04-25T17:09:14.652Z</time></trkpt><trkpt lat="45.988366" lon="11.7481046"><ele>462.0</ele><time>2026-04-25T17:09:15.652Z</time></trkpt><trkpt lat="45.9884529" lon="11.7480407"><ele>463.6</ele><time>2026-04-25T17:09:16.635Z</time></trkpt><trkpt lat="45.9885476" lon="11.7479698"><ele>465.20000000000005</ele><time>2026-04-25T17:09:17.64Z</time></trkpt><trkpt lat="45.9886479" lon="11.7478922"><ele>466.8</ele><time>2026-04-25T17:09:18.652Z</time></trkpt><trkpt lat="45.988747" lon="11.7478176"><ele>468.4</ele><time>2026-04-25T17:09:19.629Z</time></trkpt><trkpt lat="45.988851" lon="11.7477438"><ele>470.0</ele><time>2026-04-25T17:09:20.647Z</time></trkpt><trkpt lat="45.9889538" lon="11.7476727"><ele>470.0</ele><time>2026-04-25T17:09:21.659Z</time></trkpt><trkpt lat="45.9890493" lon="11.7476017"><ele>470.0</ele><time>2026-04-25T17:09:22.652Z</time></trkpt><trkpt lat="45.9891353" lon="11.747524"><ele>470.0</ele><time>2026-04-25T17:09:23.618Z</time></trkpt><trkpt lat="45.9892205" lon="11.7474354"><ele>470.0</ele><time>2026-04-25T17:09:24.634Z</time></trkpt><trkpt lat="45.9893043" lon="11.747348"><ele>470.0</ele><time>2026-04-25T17:09:25.65Z</time></trkpt><trkpt lat="45.9893882" lon="11.7472709"><ele>469.99999999999994</ele><time>2026-04-25T17:09:26.677Z</time></trkpt><trkpt lat="45.9894622" lon="11.7472108"><ele>470.0</ele><time>2026-04-25T17:09:27.664Z</time></trkpt><trkpt lat="45.9895267" lon="11.7471498"><ele>470.0</ele><time>2026-04-25T17:09:28.652Z</time></trkpt><trkpt lat="45.989584" lon="11.747073"><ele>470.0</ele><time>2026-04-25T17:09:29.662Z</time></trkpt><trkpt lat="45.9896204" lon="11.7469691"><ele>469.99999999999994</ele><time>2026-04-25T17:09:30.646Z</time></trkpt><trkpt lat="45.9896448" lon="11.7468367"><ele>470.0</ele><time>2026-04-25T17:09:31.655Z</time></trkpt><trkpt lat="45.9897114" lon="11.7466757"><ele>469.99999999999994</ele><time>2026-04-25T17:09:33.651Z</time></trkpt><trkpt lat="45.989766" lon="11.7466108"><ele>470.0</ele><time>2026-04-25T17:09:34.664Z</time></trkpt><trkpt lat="45.9898284" lon="11.7465484"><ele>470.0</ele><time>2026-04-25T17:09:35.646Z</time></trkpt><trkpt lat="45.9898902" lon="11.7464735"><ele>470.0</ele><time>2026-04-25T17:09:36.643Z</time></trkpt><trkpt lat="45.9899507" lon="11.7463862"><ele>469.99999999999994</ele><time>2026-04-25T17:09:37.653Z</time></trkpt><trkpt lat="45.9900029" lon="11.7462857"><ele>470.0</ele><time>2026-04-25T17:09:38.638Z</time></trkpt><trkpt lat="45.9900454" lon="11.7461709"><ele>469.8333333333333</ele><time>2026-04-25T17:09:39.65Z</time></trkpt><trkpt lat="45.9900782" lon="11.746058"><ele>469.66666666666663</ele><time>2026-04-25T17:09:40.646Z</time></trkpt><trkpt lat="45.9901031" lon="11.745944"><ele>469.5</ele><time>2026-04-25T17:09:41.637Z</time></trkpt><trkpt lat="45.9901249" lon="11.7458206"><ele>469.33333333333337</ele><time>2026-04-25T17:09:42.648Z</time></trkpt><trkpt lat="45.9901482" lon="11.7457003"><ele>469.1666666666667</ele><time>2026-04-25T17:09:43.638Z</time></trkpt><trkpt lat="45.9901745" lon="11.745587"><ele>469.0</ele><time>2026-04-25T17:09:44.653Z</time></trkpt><trkpt lat="45.9902094" lon="11.745501"><ele>470.00000000000006</ele><time>2026-04-25T17:09:45.647Z</time></trkpt><trkpt lat="45.9902591" lon="11.7454396"><ele>471.0</ele><time>2026-04-25T17:09:46.652Z</time></trkpt><trkpt lat="45.9903715" lon="11.7454036"><ele>472.0</ele><time>2026-04-25T17:09:48.653Z</time></trkpt><trkpt lat="45.9904421" lon="11.7455182"><ele>473.0</ele><time>2026-04-25T17:09:50.644Z</time></trkpt><trkpt lat="45.9904621" lon="11.7456222"><ele>474.00000000000006</ele><time>2026-04-25T17:09:51.641Z</time></trkpt><trkpt lat="45.9904841" lon="11.7457358"><ele>475.0</ele><time>2026-04-25T17:09:52.645Z</time></trkpt><trkpt lat="45.9905091" lon="11.7458505"><ele>475.00000000000006</ele><time>2026-04-25T17:09:53.65Z</time></trkpt><trkpt lat="45.9905341" lon="11.7459629"><ele>475.0</ele><time>2026-04-25T17:09:54.638Z</time></trkpt><trkpt lat="45.9905641" lon="11.7460752"><ele>475.0</ele><time>2026-04-25T17:09:55.66Z</time></trkpt><trkpt lat="45.9905995" lon="11.7461776"><ele>475.0</ele><time>2026-04-25T17:09:56.638Z</time></trkpt><trkpt lat="45.990645" lon="11.7462738"><ele>475.00000000000006</ele><time>2026-04-25T17:09:57.651Z</time></trkpt><trkpt lat="45.9906936" lon="11.7463601"><ele>475.0</ele><time>2026-04-25T17:09:58.637Z</time></trkpt><trkpt lat="45.9907526" lon="11.7464291"><ele>474.8571428571429</ele><time>2026-04-25T17:09:59.647Z</time></trkpt><trkpt lat="45.9908222" lon="11.7464671"><ele>474.7142857142858</ele><time>2026-04-25T17:10:00.657Z</time></trkpt><trkpt lat="45.9908911" lon="11.7464666"><ele>474.57142857142856</ele><time>2026-04-25T17:10:01.612Z</time></trkpt><trkpt lat="45.9909601" lon="11.7464336"><ele>474.42857142857144</ele><time>2026-04-25T17:10:02.642Z</time></trkpt><trkpt lat="45.991019" lon="11.7463737"><ele>474.2857142857143</ele><time>2026-04-25T17:10:03.641Z</time></trkpt><trkpt lat="45.9910749" lon="11.7463058"><ele>474.1428571428571</ele><time>2026-04-25T17:10:04.637Z</time></trkpt><trkpt lat="45.9911326" lon="11.7462424"><ele>473.99999999999994</ele><time>2026-04-25T17:10:05.653Z</time></trkpt><trkpt lat="45.9911879" lon="11.7461987"><ele>474.0</ele><time>2026-04-25T17:10:06.627Z</time></trkpt><trkpt lat="45.9912508" lon="11.7461722"><ele>474.0</ele><time>2026-04-25T17:10:07.641Z</time></trkpt><trkpt lat="45.9913236" lon="11.7461737"><ele>474.0</ele><time>2026-04-25T17:10:08.658Z</time></trkpt><trkpt lat="45.9913972" lon="11.7462029"><ele>474.0</ele><time>2026-04-25T17:10:09.644Z</time></trkpt><trkpt lat="45.9914733" lon="11.7462459"><ele>474.0</ele><time>2026-04-25T17:10:10.645Z</time></trkpt><trkpt lat="45.9915545" lon="11.7463023"><ele>474.0</ele><time>2026-04-25T17:10:11.644Z</time></trkpt><trkpt lat="45.9916385" lon="11.7463658"><ele>476.6</ele><time>2026-04-25T17:10:12.647Z</time></trkpt><trkpt lat="45.9917236" lon="11.7464285"><ele>479.2</ele><time>2026-04-25T17:10:13.643Z</time></trkpt><trkpt lat="45.9918088" lon="11.7464885"><ele>481.80000000000007</ele><time>2026-04-25T17:10:14.65Z</time></trkpt><trkpt lat="45.9918929" lon="11.7465483"><ele>484.40000000000003</ele><time>2026-04-25T17:10:15.648Z</time></trkpt><trkpt lat="45.9919741" lon="11.7466087"><ele>487.0</ele><time>2026-04-25T17:10:16.654Z</time></trkpt><trkpt lat="45.9920549" lon="11.746668"><ele>487.00000000000006</ele><time>2026-04-25T17:10:17.66Z</time></trkpt><trkpt lat="45.9921322" lon="11.7467297"><ele>487.0</ele><time>2026-04-25T17:10:18.641Z</time></trkpt><trkpt lat="45.9922058" lon="11.7468043"><ele>487.0</ele><time>2026-04-25T17:10:19.66Z</time></trkpt><trkpt lat="45.9922722" lon="11.7468875"><ele>487.0</ele><time>2026-04-25T17:10:20.659Z</time></trkpt><trkpt lat="45.992334" lon="11.7469738"><ele>487.00000000000006</ele><time>2026-04-25T17:10:21.656Z</time></trkpt><trkpt lat="45.9923872" lon="11.747067"><ele>487.0</ele><time>2026-04-25T17:10:22.642Z</time></trkpt><trkpt lat="45.9924315" lon="11.7471695"><ele>486.83333333333337</ele><time>2026-04-25T17:10:23.636Z</time></trkpt><trkpt lat="45.9924627" lon="11.7472827"><ele>486.6666666666667</ele><time>2026-04-25T17:10:24.641Z</time></trkpt><trkpt lat="45.9924793" lon="11.7474081"><ele>486.5</ele><time>2026-04-25T17:10:25.671Z</time></trkpt><trkpt lat="45.9924899" lon="11.7475307"><ele>486.33333333333337</ele><time>2026-04-25T17:10:26.656Z</time></trkpt><trkpt lat="45.9924931" lon="11.7476583"><ele>486.1666666666667</ele><time>2026-04-25T17:10:27.654Z</time></trkpt><trkpt lat="45.9924915" lon="11.7477882"><ele>486.0</ele><time>2026-04-25T17:10:28.659Z</time></trkpt><trkpt lat="45.9924875" lon="11.7479166"><ele>486.4</ele><time>2026-04-25T17:10:29.648Z</time></trkpt><trkpt lat="45.9924801" lon="11.7480482"><ele>486.8</ele><time>2026-04-25T17:10:30.656Z</time></trkpt><trkpt lat="45.9924692" lon="11.7481779"><ele>487.19999999999993</ele><time>2026-04-25T17:10:31.643Z</time></trkpt><trkpt lat="45.9924495" lon="11.7483102"><ele>487.59999999999997</ele><time>2026-04-25T17:10:32.652Z</time></trkpt><trkpt lat="45.992417" lon="11.7484359"><ele>488.0</ele><time>2026-04-25T17:10:33.648Z</time></trkpt><trkpt lat="45.9923839" lon="11.7485624"><ele>490.2</ele><time>2026-04-25T17:10:34.662Z</time></trkpt><trkpt lat="45.9923549" lon="11.7486903"><ele>492.4</ele><time>2026-04-25T17:10:35.652Z</time></trkpt><trkpt lat="45.9923308" lon="11.748821"><ele>494.59999999999997</ele><time>2026-04-25T17:10:36.639Z</time></trkpt><trkpt lat="45.9923139" lon="11.7489538"><ele>496.79999999999995</ele><time>2026-04-25T17:10:37.616Z</time></trkpt><trkpt lat="45.9923009" lon="11.7490949"><ele>499.0</ele><time>2026-04-25T17:10:38.649Z</time></trkpt><trkpt lat="45.9922909" lon="11.7492345"><ele>499.0</ele><time>2026-04-25T17:10:39.662Z</time></trkpt><trkpt lat="45.9922814" lon="11.7493708"><ele>499.0</ele><time>2026-04-25T17:10:40.645Z</time></trkpt><trkpt lat="45.9922689" lon="11.7495116"><ele>499.0</ele><time>2026-04-25T17:10:41.654Z</time></trkpt><trkpt lat="45.9922475" lon="11.749646"><ele>499.0</ele><time>2026-04-25T17:10:42.65Z</time></trkpt><trkpt lat="45.9922098" lon="11.7497745"><ele>499.0</ele><time>2026-04-25T17:10:43.661Z</time></trkpt><trkpt lat="45.9921677" lon="11.7498968"><ele>501.0</ele><time>2026-04-25T17:10:44.652Z</time></trkpt><trkpt lat="45.9921288" lon="11.7500219"><ele>503.0</ele><time>2026-04-25T17:10:45.652Z</time></trkpt><trkpt lat="45.9921017" lon="11.7501532"><ele>505.0</ele><time>2026-04-25T17:10:46.649Z</time></trkpt><trkpt lat="45.992082" lon="11.7502949"><ele>507.0</ele><time>2026-04-25T17:10:47.654Z</time></trkpt><trkpt lat="45.9920451" lon="11.7504074"><ele>509.0</ele><time>2026-04-25T17:10:48.604Z</time></trkpt><trkpt lat="45.9919925" lon="11.7505108"><ele>508.99999999999994</ele><time>2026-04-25T17:10:49.647Z</time></trkpt><trkpt lat="45.9919252" lon="11.7505854"><ele>509.0</ele><time>2026-04-25T17:10:50.643Z</time></trkpt><trkpt lat="45.991856" lon="11.7506573"><ele>509.0</ele><time>2026-04-25T17:10:51.663Z</time></trkpt><trkpt lat="45.9917946" lon="11.7507366"><ele>509.0</ele><time>2026-04-25T17:10:52.636Z</time></trkpt><trkpt lat="45.9917396" lon="11.7508379"><ele>508.99999999999994</ele><time>2026-04-25T17:10:53.648Z</time></trkpt><trkpt lat="45.9916968" lon="11.7509513"><ele>509.0</ele><time>2026-04-25T17:10:54.64Z</time></trkpt><trkpt lat="45.9916584" lon="11.7510718"><ele>508.99999999999994</ele><time>2026-04-25T17:10:55.67Z</time></trkpt><trkpt lat="45.9916233" lon="11.7511828"><ele>509.0</ele><time>2026-04-25T17:10:56.637Z</time></trkpt><trkpt lat="45.9915871" lon="11.7513006"><ele>509.0</ele><time>2026-04-25T17:10:57.66Z</time></trkpt><trkpt lat="45.9915513" lon="11.7514161"><ele>509.0</ele><time>2026-04-25T17:10:58.649Z</time></trkpt><trkpt lat="45.9915126" lon="11.7515299"><ele>508.99999999999994</ele><time>2026-04-25T17:10:59.651Z</time></trkpt><trkpt lat="45.9914704" lon="11.7516423"><ele>509.0</ele><time>2026-04-25T17:11:00.659Z</time></trkpt><trkpt lat="45.9914273" lon="11.7517493"><ele>508.99999999999994</ele><time>2026-04-25T17:11:01.643Z</time></trkpt><trkpt lat="45.9913843" lon="11.75186"><ele>509.0</ele><time>2026-04-25T17:11:02.651Z</time></trkpt><trkpt lat="45.9913441" lon="11.751977"><ele>509.0</ele><time>2026-04-25T17:11:03.676Z</time></trkpt><trkpt lat="45.9913108" lon="11.7520856"><ele>509.0</ele><time>2026-04-25T17:11:04.597Z</time></trkpt><trkpt lat="45.9912787" lon="11.7522059"><ele>508.99999999999994</ele><time>2026-04-25T17:11:05.596Z</time></trkpt><trkpt lat="45.9912504" lon="11.7523286"><ele>509.0</ele><time>2026-04-25T17:11:06.586Z</time></trkpt><trkpt lat="45.9912245" lon="11.7524574"><ele>511.8333333333333</ele><time>2026-04-25T17:11:07.589Z</time></trkpt><trkpt lat="45.9912094" lon="11.7525809"><ele>514.6666666666666</ele><time>2026-04-25T17:11:08.594Z</time></trkpt><trkpt lat="45.9912065" lon="11.7527081"><ele>517.5</ele><time>2026-04-25T17:11:09.589Z</time></trkpt><trkpt lat="45.9912118" lon="11.7528266"><ele>520.3333333333334</ele><time>2026-04-25T17:11:10.583Z</time></trkpt><trkpt lat="45.9912253" lon="11.7529437"><ele>523.1666666666667</ele><time>2026-04-25T17:11:11.598Z</time></trkpt><trkpt lat="45.9912481" lon="11.7530561"><ele>526.0</ele><time>2026-04-25T17:11:12.588Z</time></trkpt><trkpt lat="45.9912792" lon="11.7531728"><ele>526.0</ele><time>2026-04-25T17:11:13.589Z</time></trkpt><trkpt lat="45.9913192" lon="11.7532798"><ele>526.0</ele><time>2026-04-25T17:11:14.602Z</time></trkpt><trkpt lat="45.9913667" lon="11.7533766"><ele>526.0</ele><time>2026-04-25T17:11:15.6Z</time></trkpt><trkpt lat="45.9914087" lon="11.7534804"><ele>526.0</ele><time>2026-04-25T17:11:16.587Z</time></trkpt><trkpt lat="45.991441" lon="11.753592"><ele>526.0</ele><time>2026-04-25T17:11:17.609Z</time></trkpt><trkpt lat="45.9914591" lon="11.7537047"><ele>526.0</ele><time>2026-04-25T17:11:18.591Z</time></trkpt><trkpt lat="45.9914639" lon="11.7538248"><ele>525.2</ele><time>2026-04-25T17:11:19.598Z</time></trkpt><trkpt lat="45.9914646" lon="11.7539463"><ele>524.4000000000001</ele><time>2026-04-25T17:11:20.601Z</time></trkpt><trkpt lat="45.9914507" lon="11.7540759"><ele>523.6</ele><time>2026-04-25T17:11:21.592Z</time></trkpt><trkpt lat="45.9914384" lon="11.7542087"><ele>522.8000000000001</ele><time>2026-04-25T17:11:22.592Z</time></trkpt><trkpt lat="45.9914364" lon="11.7543406"><ele>522.0</ele><time>2026-04-25T17:11:23.592Z</time></trkpt><trkpt lat="45.9914395" lon="11.7544696"><ele>521.0</ele><time>2026-04-25T17:11:24.584Z</time></trkpt><trkpt lat="45.9914538" lon="11.7545843"><ele>520.0</ele><time>2026-04-25T17:11:25.58Z</time></trkpt><trkpt lat="45.9914933" lon="11.7546826"><ele>519.0</ele><time>2026-04-25T17:11:26.59Z</time></trkpt><trkpt lat="45.9915447" lon="11.7547779"><ele>518.0</ele><time>2026-04-25T17:11:27.598Z</time></trkpt><trkpt lat="45.9916094" lon="11.754862"><ele>517.0</ele><time>2026-04-25T17:11:28.58Z</time></trkpt><trkpt lat="45.9916915" lon="11.754933"><ele>516.0</ele><time>2026-04-25T17:11:29.588Z</time></trkpt><trkpt lat="45.9917775" lon="11.7549916"><ele>520.2</ele><time>2026-04-25T17:11:30.567Z</time></trkpt><trkpt lat="45.9918658" lon="11.7550458"><ele>524.4000000000001</ele><time>2026-04-25T17:11:31.583Z</time></trkpt><trkpt lat="45.9919511" lon="11.7550992"><ele>528.6</ele><time>2026-04-25T17:11:32.596Z</time></trkpt><trkpt lat="45.9920307" lon="11.7551561"><ele>532.8000000000001</ele><time>2026-04-25T17:11:33.588Z</time></trkpt><trkpt lat="45.9921103" lon="11.7552309"><ele>537.0</ele><time>2026-04-25T17:11:34.61Z</time></trkpt><trkpt lat="45.9921855" lon="11.7553107"><ele>537.2</ele><time>2026-04-25T17:11:35.612Z</time></trkpt><trkpt lat="45.9922583" lon="11.7554006"><ele>537.4000000000001</ele><time>2026-04-25T17:11:36.622Z</time></trkpt><trkpt lat="45.9923211" lon="11.7554995"><ele>537.5999999999999</ele><time>2026-04-25T17:11:37.602Z</time></trkpt><trkpt lat="45.9923663" lon="11.7556103"><ele>537.8</ele><time>2026-04-25T17:11:38.586Z</time></trkpt><trkpt lat="45.9923911" lon="11.7557425"><ele>538.0</ele><time>2026-04-25T17:11:39.602Z</time></trkpt><trkpt lat="45.9923983" lon="11.7558757"><ele>538.0</ele><time>2026-04-25T17:11:40.589Z</time></trkpt><trkpt lat="45.9924045" lon="11.7560058"><ele>538.0</ele><time>2026-04-25T17:11:41.601Z</time></trkpt><trkpt lat="45.9924096" lon="11.7561215"><ele>538.0</ele><time>2026-04-25T17:11:42.598Z</time></trkpt><trkpt lat="45.9924186" lon="11.7562358"><ele>538.0</ele><time>2026-04-25T17:11:43.588Z</time></trkpt><trkpt lat="45.9924293" lon="11.7563563"><ele>538.0</ele><time>2026-04-25T17:11:44.595Z</time></trkpt><trkpt lat="45.9924245" lon="11.7564829"><ele>538.0</ele><time>2026-04-25T17:11:45.577Z</time></trkpt><trkpt lat="45.9924072" lon="11.7566187"><ele>538.6</ele><time>2026-04-25T17:11:46.6Z</time></trkpt><trkpt lat="45.9923794" lon="11.7567461"><ele>539.1999999999999</ele><time>2026-04-25T17:11:47.593Z</time></trkpt><trkpt lat="45.9923481" lon="11.7568638"><ele>539.8</ele><time>2026-04-25T17:11:48.552Z</time></trkpt><trkpt lat="45.9923125" lon="11.7569881"><ele>540.4</ele><time>2026-04-25T17:11:49.583Z</time></trkpt><trkpt lat="45.9922839" lon="11.7571072"><ele>541.0</ele><time>2026-04-25T17:11:50.565Z</time></trkpt><trkpt lat="45.9922539" lon="11.7572325"><ele>541.4</ele><time>2026-04-25T17:11:51.599Z</time></trkpt><trkpt lat="45.9922206" lon="11.7573507"><ele>541.8</ele><time>2026-04-25T17:11:52.604Z</time></trkpt><trkpt lat="45.9921871" lon="11.757477"><ele>542.1999999999999</ele><time>2026-04-25T17:11:53.587Z</time></trkpt><trkpt lat="45.992156" lon="11.7576032"><ele>542.6</ele><time>2026-04-25T17:11:54.59Z</time></trkpt><trkpt lat="45.9921273" lon="11.7577333"><ele>543.0</ele><time>2026-04-25T17:11:55.589Z</time></trkpt><trkpt lat="45.9921089" lon="11.7578573"><ele>543.0</ele><time>2026-04-25T17:11:56.599Z</time></trkpt><trkpt lat="45.9920971" lon="11.7579797"><ele>543.0</ele><time>2026-04-25T17:11:57.596Z</time></trkpt><trkpt lat="45.9920967" lon="11.7581028"><ele>543.0</ele><time>2026-04-25T17:11:58.583Z</time></trkpt><trkpt lat="45.9921099" lon="11.7582307"><ele>543.0</ele><time>2026-04-25T17:11:59.597Z</time></trkpt><trkpt lat="45.992139" lon="11.7583488"><ele>543.0</ele><time>2026-04-25T17:12:00.59Z</time></trkpt><trkpt lat="45.992177" lon="11.7584673"><ele>543.0</ele><time>2026-04-25T17:12:01.603Z</time></trkpt><trkpt lat="45.992215" lon="11.758581"><ele>543.3333333333334</ele><time>2026-04-25T17:12:02.583Z</time></trkpt><trkpt lat="45.9922534" lon="11.7586989"><ele>543.6666666666666</ele><time>2026-04-25T17:12:03.594Z</time></trkpt><trkpt lat="45.9922892" lon="11.7588208"><ele>544.0</ele><time>2026-04-25T17:12:04.595Z</time></trkpt><trkpt lat="45.9923256" lon="11.7589409"><ele>544.3333333333333</ele><time>2026-04-25T17:12:05.594Z</time></trkpt><trkpt lat="45.9923568" lon="11.759055"><ele>544.6666666666666</ele><time>2026-04-25T17:12:06.593Z</time></trkpt><trkpt lat="45.9923896" lon="11.7591642"><ele>545.0</ele><time>2026-04-25T17:12:07.583Z</time></trkpt><trkpt lat="45.9924265" lon="11.7592697"><ele>545.0</ele><time>2026-04-25T17:12:08.601Z</time></trkpt><trkpt lat="45.9924651" lon="11.7593542"><ele>545.0</ele><time>2026-04-25T17:12:09.591Z</time></trkpt><trkpt lat="45.9925195" lon="11.7594654"><ele>545.0</ele><time>2026-04-25T17:12:11.601Z</time></trkpt><trkpt lat="45.992616" lon="11.7595021"><ele>545.0</ele><time>2026-04-25T17:12:13.598Z</time></trkpt><trkpt lat="45.9927299" lon="11.7594696"><ele>545.0</ele><time>2026-04-25T17:12:15.599Z</time></trkpt><trkpt lat="45.9928433" lon="11.7594383"><ele>547.8</ele><time>2026-04-25T17:12:17.596Z</time></trkpt><trkpt lat="45.992952" lon="11.7594149"><ele>550.6</ele><time>2026-04-25T17:12:19.577Z</time></trkpt><trkpt lat="45.9930674" lon="11.7594017"><ele>553.4</ele><time>2026-04-25T17:12:21.601Z</time></trkpt><trkpt lat="45.993176" lon="11.7593925"><ele>556.2</ele><time>2026-04-25T17:12:23.598Z</time></trkpt><trkpt lat="45.9932868" lon="11.7593825"><ele>559.0</ele><time>2026-04-25T17:12:25.591Z</time></trkpt><trkpt lat="45.9933982" lon="11.7593883"><ele>563.8333333333334</ele><time>2026-04-25T17:12:27.593Z</time></trkpt><trkpt lat="45.9934885" lon="11.7593796"><ele>568.6666666666667</ele><time>2026-04-25T17:12:29.59Z</time></trkpt><trkpt lat="45.9935618" lon="11.7593779"><ele>573.5</ele><time>2026-04-25T17:12:31.596Z</time></trkpt><trkpt lat="45.9936411" lon="11.7593766"><ele>578.3333333333334</ele><time>2026-04-25T17:12:33.591Z</time></trkpt><trkpt lat="45.9937044" lon="11.7594266"><ele>583.1666666666666</ele><time>2026-04-25T17:12:36.582Z</time></trkpt><trkpt lat="45.9937861" lon="11.7595382"><ele>588.0</ele><time>2026-04-25T17:12:38.618Z</time></trkpt><trkpt lat="45.9938704" lon="11.7596273"><ele>588.0</ele><time>2026-04-25T17:12:40.578Z</time></trkpt><trkpt lat="45.9939359" lon="11.7596549"><ele>588.0</ele><time>2026-04-25T17:12:42.595Z</time></trkpt><trkpt lat="45.9940285" lon="11.7596299"><ele>588.0</ele><time>2026-04-25T17:12:44.586Z</time></trkpt><trkpt lat="45.9941064" lon="11.7595026"><ele>588.0</ele><time>2026-04-25T17:12:46.585Z</time></trkpt><trkpt lat="45.9941506" lon="11.7594255"><ele>588.0</ele><time>2026-04-25T17:12:47.596Z</time></trkpt><trkpt lat="45.9941971" lon="11.7593517"><ele>588.0</ele><time>2026-04-25T17:12:48.599Z</time></trkpt><trkpt lat="45.9942638" lon="11.759281"><ele>590.2857142857143</ele><time>2026-04-25T17:12:50.566Z</time></trkpt><trkpt lat="45.9943592" lon="11.7593072"><ele>592.5714285714286</ele><time>2026-04-25T17:12:53.6Z</time></trkpt><trkpt lat="45.994418" lon="11.7593425"><ele>594.8571428571429</ele><time>2026-04-25T17:12:54.585Z</time></trkpt><trkpt lat="45.994492" lon="11.7593707"><ele>597.1428571428571</ele><time>2026-04-25T17:12:56.576Z</time></trkpt><trkpt lat="45.9944996" lon="11.7594765"><ele>599.4285714285714</ele><time>2026-04-25T17:13:00.641Z</time></trkpt><trkpt lat="45.994538" lon="11.7595515"><ele>601.7142857142858</ele><time>2026-04-25T17:13:01.64Z</time></trkpt><trkpt lat="45.9945892" lon="11.7596109"><ele>604.0</ele><time>2026-04-25T17:13:02.658Z</time></trkpt><trkpt lat="45.9947014" lon="11.7596921"><ele>604.0</ele><time>2026-04-25T17:13:04.648Z</time></trkpt><trkpt lat="45.994795" lon="11.7597823"><ele>604.0</ele><time>2026-04-25T17:13:06.643Z</time></trkpt><trkpt lat="45.9948354" lon="11.7599062"><ele>604.0</ele><time>2026-04-25T17:13:08.663Z</time></trkpt><trkpt lat="45.9948683" lon="11.7599895"><ele>604.0</ele><time>2026-04-25T17:13:10.655Z</time></trkpt><trkpt lat="45.9949822" lon="11.759758"><ele>604.0</ele><time>2026-04-25T17:13:17.642Z</time></trkpt><trkpt lat="45.995029" lon="11.7596452"><ele>636.0</ele><time>2026-04-25T17:13:38.604Z</time></trkpt><trkpt lat="45.995029" lon="11.7596452"><ele>636.0</ele><time>2026-04-25T17:13:38.604Z</time></trkpt><trkpt lat="45.995029" lon="11.7596452"><ele>636.0</ele><time>2026-04-25T17:13:38.604Z</time></trkpt><trkpt lat="45.995029" lon="11.7596452"><ele>636.0</ele><time>2026-04-25T17:13:38.604Z</time></trkpt></trkseg></trk></gpx>